GFSGL_con_mucape_000.txt.gz
CAPE
1437 1530 1626 2105 2384 278 0 0 0 0 0 0 0 0 0 0 0 0 0 0 0 0 32 49 42 52 62 72 67 34 22 7 17 0 0 0 0 0 0 0 0 0 0
1478 1546 1455 1694 1955 714 1 1 8 25 9 0 0 0 0 0 0 0 0 0 0 11 46 45 69 62 45 54 66 56 38 31 45 1 0 0 0 0 0 0 0 0 0
1458 1437 1493 1356 1616 993 36 11 29 53 0 0 0 0 3 0 0 0 0 0 0 3 31 46 56 56 27 14 0 13 44 51 64 42 3 0 0 0 0 0 0 0 0
1324 1381 1449 1338 1473 941 95 96 18 8 0 0 0 0 0 0 0 0 0 0 0 11 41 69 37 28 16 7 0 0 22 30 51 35 14 4 3 0 0 0 0 0 0
1249 1201 1335 1338 1288 972 268 62 61 50 46 31 1 0 0 0 0 0 0 8 22 71 80 51 21 18 38 40 32 40 0 20 49 28 16 7 1 0 0 0 1 0 0
1190 1165 1142 1178 1160 553 54 268 189 379 274 133 68 8 9 4 12 0 30 44 89 93 78 25 0 4 8 10 31 68 100 122 150 79 24 1 24 23 1 0 2 2 5
1189 1206 1183 1146 1095 821 216 5 281 522 290 124 100 39 39 93 79 42 54 82 82 64 28 6 10 0 17 9 0 8 54 93 155 368 26 18 43 1 6 10 9 13 28
1181 1212 1226 1234 1104 496 234 8 355 105 21 48 95 102 84 171 184 122 159 99 60 75 52 27 11 10 13 1 0 13 14 23 20 0 0 0 3 8 17 35 15 29 15
1158 1226 1207 1209 1131 841 232 13 162 304 80 104 186 191 147 173 210 240 90 164 65 37 54 29 6 6 6 0 0 0 0 0 0 0 0 0 0 0 0 1 0 25 24
1082 1202 1418 1227 969 581 274 113 110 217 339 195 189 208 146 194 246 127 127 94 82 41 1 0 0 0 0 0 0 0 0 0 0 0 0 0 0 0 0 3 46 14 0
1220 1620 1576 1220 1058 470 229 191 261 270 286 141 94 6 19 66 86 188 120 159 75 2 0 0 0 0 0 0 0 0 0 0 0 0 0 0 0 0 0 0 5 3 0
1387 1590 1275 1023 906 573 250 245 275 275 166 15 28 12 3 0 123 96 185 144 74 33 24 0 0 0 0 0 5 0 0 0 0 0 0 0 0 0 0 4 0 0 4
1458 1315 988 910 732 357 171 47 90 53 39 31 59 81 114 142 115 99 126 81 40 22 0 0 0 0 0 1 1 0 0 0 0 0 0 0 0 0 0 0 0 0 0
974 780 707 571 518 346 211 85 32 51 1 10 54 93 140 95 82 90 51 13 0 0 0 0 0 0 0 3 0 3 0 0 0 0 0 0 0 0 0 0 0 0 0
492 490 565 534 457 205 95 71 24 1 45 84 138 103 83 78 42 19 1 0 0 0 0 0 0 0 4 0 1 0 0 0 0 0 0 0 0 0 0 0 0 0 0
237 68 68 270 172 50 15 26 4 87 118 130 110 81 49 16 11 2 0 0 0 0 0 0 0 3 0 0 0 0 0 0 0 0 0 0 0 0 0 0 1 15 0
68 15 15 37 0 0 0 0 0 1 134 142 42 16 0 0 0 0 0 0 0 0 0 0 0 0 0 0 0 0 0 0 0 0 0 0 0 0 0 0 0 25 0
0 4 19 1 0 0 0 9 53 154 54 9 9 0 0 0 0 0 0 0 0 0 0 0 0 0 0 0 0 0 0 0 0 0 0 0 0 0 0 0 1 5 0
0 7 0 29 107 202 187 146 110 117 22 13 0 0 0 0 0 0 0 0 0 0 0 0 0 0 0 0 0 0 0 0 0 0 0 0 0 0 0 0 8 27 33
302 246 187 143 88 118 162 138 119 77 57 31 2 0 0 0 0 0 0 0 0 0 0 0 0 0 0 0 0 0 0 0 0 0 0 0 0 0 0 0 0 16 8
83 69 78 88 132 91 89 84 57 44 28 14 10 0 0 0 0 2 3 1 0 0 0 0 0 0 0 0 0 0 0 0 0 0 0 0 0 0 0 0 0 1 0
43 42 88 151 178 123 108 89 73 51 27 38 1 0 1 15 1 3 0 0 0 0 0 0 0 0 0 0 0 0 0 0 0 0 0 0 0 0 0 0 0 0 0
130 81 46 19 13 29 105 111 87 50 38 9 0 13 38 37 10 3 0 0 0 0 0 0 0 0 0 0 0 0 0 0 0 0 0 0 0 0 0 0 0 0 0
42 23 13 5 1 35 58 70 16 1 8 3 16 38 43 40 6 3 0 0 0 0 0 0 0 0 0 0 0 0 0 0 0 0 0 0 0 0 0 0 0 0 0
7 0 0 0 0 0 0 2 0 1 7 23 7 10 37 31 4 2 0 0 0 0 0 0 0 0 0 0 0 0 0 0 0 0 0 0 0 0 0 0 0 0 0
0 0 0 0 0 0 0 0 0 0 0 0 0 2 10 13 6 0 0 0 0 0 0 0 0 0 0 0 0 0 0 0 0 0 0 0 0 0 0 0 0 0 0

GFSGL_con_mucape_006.txt.gz
CAPE
2706 3320 3116 2923 3007 3396 3342 3438 3033 2585 1627 1121 881 401 302 225 148 188 129 0 1 2 0 62 211 420 193 74 72 53 64 80 82 7 12 24 50 120 100 144 127 86 69
3125 3354 2907 2894 2988 3197 3882 3274 2691 2794 1400 1129 751 443 672 218 209 303 189 7 11 0 32 165 324 245 358 429 188 204 167 179 127 204 183 55 349 68 79 225 207 87 97
2602 2756 2825 2825 2997 3226 3346 2877 2917 1749 904 468 433 674 713 561 292 345 386 321 116 32 108 245 311 332 401 207 235 102 113 109 141 122 133 131 71 46 181 478 463 445 114
2331 2709 3233 2999 2822 2979 2890 1830 1332 815 401 117 286 332 173 447 640 622 349 427 205 70 220 324 492 506 406 384 294 317 323 212 285 117 166 99 140 205 186 97 95 106 68
2567 2653 3001 3146 3073 2775 2415 1479 1260 446 382 0 93 72 135 490 198 570 374 231 248 302 371 478 622 739 347 320 173 475 331 197 144 133 114 97 50 105 298 107 96 159 363
2798 2872 2983 3274 3069 2810 2241 1201 1208 838 537 337 179 107 12 147 0 0 122 309 385 551 710 892 1004 873 538 203 60 12 51 119 126 86 74 114 287 272 301 183 213 153 194
2921 2963 3095 3183 2849 2361 1728 1361 1266 1127 871 556 387 261 171 399 30 5 33 172 389 667 978 987 794 417 341 570 223 70 15 2 6 122 258 229 430 435 370 483 348 236 133
2899 2915 2959 2817 2548 2163 1985 1343 1038 1115 1122 888 503 337 270 409 296 198 60 420 835 1084 966 770 631 501 537 500 465 256 173 186 212 169 188 135 152 141 60 29 25 54 98
2655 2714 2644 2413 2201 1694 1541 1475 1393 1102 1013 853 749 643 608 716 488 330 211 585 852 992 703 545 430 662 249 112 64 112 157 145 21 2 0 0 0 0 0 5 5 32 50
2615 2652 2549 2247 2207 1897 1691 1709 1467 1184 866 677 755 734 596 1297 579 400 167 670 1016 573 276 437 211 117 59 55 4 52 63 89 74 1 22 16 1 9 1 25 13 35 64
2554 2650 2370 2147 2211 2352 1967 1726 1517 1079 987 1020 838 863 1043 469 926 354 70 591 299 376 393 975 388 56 32 9 0 0 22 0 0 0 4 0 0 12 38 154 138 69 36
2714 2558 2084 2028 1777 1869 1799 1326 1048 1137 1202 990 1464 1482 1214 1365 682 618 145 91 108 497 1177 386 109 69 4 0 0 0 0 0 0 5 2 0 2 14 17 10 6 3 0
2128 2074 1874 1913 1444 1222 1281 1139 906 1178 1041 1078 1299 1180 1804 1067 204 102 18 7 62 527 393 110 29 0 0 0 0 0 0 0 10 1 0 0 1 3 1 17 30 56 88
2121 2087 1644 1388 1497 1260 1115 1131 1199 1155 1033 1687 1391 801 539 776 292 93 71 66 37 29 22 0 0 0 0 0 0 0 1 4 0 0 0 1 1 2 3 0 0 0 7
1726 1733 1617 1591 1144 1314 1158 976 965 628 386 547 457 273 214 1157 586 282 118 170 149 35 0 0 0 5 5 13 17 9 4 0 0 0 0 0 0 0 0 0 0 0 30
1616 1384 1333 1402 1430 1328 740 480 235 130 16 6 40 226 160 278 143 45 38 39 7 0 0 0 1 3 3 7 8 2 0 0 0 0 0 0 0 0 0 0 0 0 28
1448 1375 1172 768 823 894 823 474 152 0 14 0 0 42 22 50 45 54 53 32 0 0 0 0 0 0 0 0 0 0 0 0 0 0 0 0 0 0 0 0 0 0 10
1150 450 759 747 752 578 547 564 539 399 154 0 26 31 37 62 47 27 0 0 0 0 0 0 0 0 0 0 0 0 0 0 0 0 0 0 0 0 0 0 0 0 10
260 312 464 311 181 87 196 236 358 360 245 144 33 35 26 8 0 0 0 0 0 0 0 0 0 0 0 0 0 0 0 0 0 0 0 0 0 0 0 0 0 0 0
139 0 36 181 358 431 564 490 455 393 377 320 100 38 5 0 0 0 0 0 0 0 0 0 0 0 0 0 0 0 0 0 0 0 0 0 0 0 0 0 0 0 7
232 312 147 465 445 404 302 230 236 291 328 246 245 106 0 6 16 12 0 0 0 0 0 0 0 0 0 0 0 0 0 0 0 0 0 0 0 0 0 0 0 0 0
343 219 147 99 169 186 199 253 308 292 237 239 195 10 0 2 12 31 12 1 1 3 0 0 0 0 0 0 0 0 0 0 0 0 0 0 0 0 0 0 0 0 0
145 110 234 311 308 164 268 334 365 353 362 237 299 194 3 7 21 36 18 2 3 0 0 0 0 0 0 0 0 0 0 0 0 0 0 0 0 0 0 0 0 0 0
177 200 176 149 109 114 131 254 330 147 294 325 235 154 34 20 39 18 9 25 10 0 0 0 0 0 0 0 0 0 0 0 0 0 0 0 0 0 0 0 0 0 0
99 98 95 91 74 79 163 125 101 73 61 76 49 29 28 39 34 5 21 1 1 5 0 0 0 0 0 0 0 0 0 0 0 0 0 0 0 0 0 0 0 0 0
1 0 0 0 0 1 1 6 9 11 11 17 26 33 33 41 50 47 30 32 30 16 4 0 0 0 0 0 0 0 0 0 0 0 0 0 0 0 0 0 0 0 0

GFSGL_con_mucape_009.txt.gz
CAPE
3938 3937 4138 3896 4054 4551 4433 4247 4223 3343 3271 2343 2432 1923 1007 813 759 941 500 174 413 621 521 173 380 688 103 19 26 41 17 57 20 16 21 134 1119 741 469 442 169 430 117
3573 4228 4282 4308 4219 4103 4569 4569 4281 3780 3527 2689 2351 1862 1081 588 202 871 548 365 128 175 209 644 337 199 1205 1485 168 1236 582 316 90 524 250 23 483 721 1063 1097 304 54 110
3082 3239 3972 3920 4309 4229 4576 4450 4455 4345 3692 2478 2362 2035 1102 1005 1051 1098 1050 579 324 392 338 753 572 1129 1280 602 1007 474 278 408 290 45 68 86 79 26 180 765 650 278 231
2113 2428 3565 4082 4124 4084 4527 4473 4552 4152 3932 2687 2284 1722 1313 1026 1019 939 978 936 1151 962 861 824 913 1013 1145 1285 1029 1444 1008 565 343 182 102 97 160 190 395 122 124 45 67
2876 2907 3585 4381 4294 4316 4285 4631 4406 4157 3669 2501 2123 1427 1209 599 389 1089 668 490 933 842 649 566 891 1009 669 733 838 808 1253 465 252 178 161 144 166 165 191 207 244 213 91
3675 3580 4106 4720 4588 4581 4622 4695 4222 3631 3065 2265 1224 721 400 146 118 156 489 192 1133 1130 920 1275 1351 708 449 207 227 181 144 478 584 159 177 160 384 355 142 127 315 161 13
4179 4500 4617 4993 4914 4916 4580 4139 3554 2716 2492 1810 986 615 486 595 440 328 202 273 738 1117 1487 1178 1086 793 344 437 464 250 175 88 67 354 561 555 511 533 507 550 403 208 69
4621 4545 4804 4955 4924 4791 4212 3573 2786 2433 2257 1519 1049 925 823 733 476 294 217 294 791 907 1405 1710 1808 1554 1036 1019 814 418 556 949 651 264 446 654 579 275 101 55 160 143 70
3845 4229 4402 4258 4152 3910 3305 3020 2480 2170 1978 1059 1167 973 949 1111 500 357 220 642 831 1511 1645 1642 1311 1373 682 294 274 192 214 361 215 50 1 0 0 0 0 0 4 12 18
3607 3637 4029 4083 3732 3242 3071 2962 2519 2472 1851 1196 1000 1076 1133 1316 624 315 280 438 778 1261 1428 1770 689 253 199 155 83 103 229 339 218 199 168 1 19 22 0 18 53 71 53
2939 3027 3381 3270 3388 3170 2751 2881 2527 2297 1782 1440 1053 1435 1622 1508 1188 649 668 565 877 959 1224 989 768 285 82 50 34 40 93 20 103 0 0 3 149 160 19 131 519 125 49
3647 3344 3322 3088 2798 2659 2586 2516 2258 1997 1630 1561 1840 1832 1423 1681 698 652 455 420 432 691 1132 984 963 458 113 49 0 0 0 0 0 0 11 43 27 1 4 22 317 274 27
3706 3494 3119 2731 2481 2416 2725 2134 1464 1389 1184 1427 1098 1689 1736 1875 992 584 540 309 125 135 339 204 298 120 10 0 0 0 0 0 0 23 40 2 0 0 158 87 296 480 459
2908 2548 2397 2642 2096 1676 1639 1271 1069 1246 1206 1523 1493 1509 1497 1234 997 221 36 6 4 33 48 175 11 0 0 0 0 0 0 2 19 0 0 0 0 0 0 0 0 0 0
2934 2574 2465 1940 1608 1218 1050 1125 1137 1100 888 986 1202 1304 784 347 502 148 37 30 231 127 103 88 37 47 48 65 55 67 40 36 13 2 0 0 0 0 0 0 0 0 0
2324 2078 1756 1523 1276 1142 1010 955 724 580 438 335 70 106 97 65 215 239 122 92 74 67 14 28 38 19 45 42 106 149 50 10 6 1 0 0 0 0 0 0 0 0 0
1893 1851 1399 1275 1411 1560 1057 975 568 221 0 0 0 0 29 20 95 74 71 17 6 8 0 0 6 10 24 20 17 10 2 0 0 0 0 0 0 0 0 0 0 0 1
1739 1017 1258 1018 865 909 893 695 449 245 57 2 0 0 13 0 0 8 23 13 0 0 0 0 4 10 6 1 0 0 0 0 0 0 0 0 0 0 0 0 0 0 0
1505 950 992 893 779 457 392 381 418 406 333 18 0 4 0 0 0 0 0 0 0 6 8 1 1 0 0 0 0 0 0 0 0 0 0 0 0 0 0 0 0 0 0
434 352 524 528 285 189 230 195 247 284 216 69 22 4 0 4 0 0 0 0 0 0 2 0 0 0 0 0 0 0 0 0 0 0 0 0 0 0 0 0 0 0 0
151 152 34 319 281 268 335 304 244 223 203 206 195 37 60 1 23 81 33 17 1 3 7 0 0 0 0 0 0 0 0 0 0 0 0 0 0 0 0 0 0 0 0
248 299 142 296 192 229 192 158 152 147 150 233 65 46 36 52 54 65 56 147 15 18 16 3 0 0 0 0 0 0 0 0 0 0 0 0 0 0 0 0 0 0 0
122 97 88 89 212 100 151 262 199 325 228 273 51 51 34 164 75 43 163 32 63 20 19 1 0 0 0 0 0 0 0 0 0 0 0 0 0 0 0 0 0 0 0
302 118 185 247 416 209 178 277 155 76 185 223 158 140 152 42 30 203 62 42 37 13 6 0 0 0 0 0 0 0 0 0 0 0 0 0 0 0 0 0 0 0 0
114 100 136 126 119 123 113 90 98 134 80 66 121 111 74 92 12 25 29 0 10 11 7 11 4 0 0 0 0 0 0 0 0 0 0 0 0 0 0 0 0 0 0
66 45 41 42 27 17 20 29 40 60 66 59 88 170 50 30 26 29 32 31 13 16 19 24 7 0 0 0 0 0 0 0 0 0 0 0 0 0 0 0 0 0 0

GFSGL_con_mucape_012.txt.gz
CAPE
4117 4060 4067 4025 3984 3467 3889 3287 3529 2771 2495 2463 2168 1822 1597 1127 1119 914 601 388 569 541 477 604 507 820 487 336 669 420 178 160 166 31 78 88 105 136 151 159 382 177 84
3899 3952 3977 4049 4016 3976 3434 3886 3328 3862 3017 2365 2265 2000 1646 752 1123 609 371 213 728 655 627 628 477 370 1010 934 915 629 677 827 319 237 239 160 429 603 692 152 355 59 58
3637 3665 3773 3813 3970 3893 4037 3448 4161 3578 3099 2320 2370 2038 1742 772 983 651 478 570 603 241 444 564 404 742 1215 979 924 770 560 574 620 190 109 123 112 36 36 48 29 214 354
3254 3363 3516 3651 3748 3658 3868 4068 3745 3846 3278 3063 2362 2099 1875 928 757 552 737 820 723 437 831 736 676 651 1145 1156 927 1179 1055 942 397 49 113 177 326 179 271 95 33 143 69
2768 3137 3447 3815 3728 3800 3767 4122 4015 3951 3870 3494 2930 2296 2041 1031 710 890 897 846 897 649 1245 806 839 1181 886 1058 1214 1011 1149 730 201 25 7 32 53 39 80 52 43 50 39
2238 2663 3077 3585 3951 3777 3976 3921 4231 4165 4220 3741 3141 2232 1909 1016 480 396 732 832 995 686 1001 1194 932 716 453 425 218 163 624 596 134 74 42 21 82 152 171 89 40 8 0
2565 2726 2918 3542 3947 4053 3976 4032 4279 4297 4194 3698 3328 2319 1834 1074 424 244 295 695 459 644 1384 1191 1067 545 964 1197 413 168 210 173 84 50 37 71 155 241 151 76 61 50 0
3667 3264 3485 4112 4296 4220 4221 4249 4432 4360 3985 3478 2717 2576 1892 1324 556 344 344 365 390 702 980 1305 1078 837 1165 1157 1065 1007 477 265 214 118 110 130 216 273 184 47 1 0 0
3365 4630 4128 5033 4793 4762 4742 4681 4495 3799 3069 3033 2637 2170 1547 1107 777 778 420 310 278 597 932 844 1033 1278 1147 820 690 722 311 604 494 223 153 206 166 12 23 3 0 0 0
4295 4442 5008 5021 4950 4888 4790 4364 3421 3431 3192 2731 1723 2080 1453 905 836 592 620 488 304 766 1099 981 577 803 842 731 365 367 370 390 577 537 240 72 74 47 2 13 11 12 15
4533 4546 4828 4917 4957 4833 4538 3296 3039 3335 2622 1701 1985 1573 923 747 1303 855 676 658 901 1025 925 891 1029 689 599 303 115 301 204 111 95 98 67 0 0 50 73 236 153 116 122
4489 4465 4626 4686 3833 3788 3384 2730 2749 2373 1953 1661 1647 1148 1344 1610 769 798 679 571 606 696 1171 906 701 707 528 419 56 44 6 0 0 0 0 0 23 20 9 5 26 28 12
4029 4257 4217 3890 3473 3131 2771 2701 2439 2267 1829 1520 1664 1611 1929 1880 1193 715 643 479 406 406 508 433 210 87 220 139 41 0 0 0 0 0 0 9 0 0 1 0 66 277 370
4104 3715 3270 2641 2544 2577 2375 2213 1847 1687 1499 1624 1814 2157 1805 1710 884 531 464 395 252 90 34 26 34 37 19 0 0 0 0 1 9 67 9 0 10 0 0 1 1 0 0
2891 2647 2313 1882 2150 2111 2017 1482 1404 1078 1062 1901 1964 1693 1286 1174 1013 405 93 8 16 8 5 42 22 15 0 2 13 14 12 21 43 109 22 6 0 0 0 0 0 0 0
2608 2247 1834 1952 2124 1700 1356 947 930 993 856 638 670 796 638 249 76 1 0 22 51 74 93 522 365 344 258 323 54 116 42 38 57 24 1 0 0 0 0 0 0 0 0
2372 2310 1941 1636 1622 1170 810 675 544 464 414 412 348 2 124 0 52 115 122 74 45 61 109 93 39 446 288 249 106 50 18 55 3 3 0 2 0 0 0 0 0 0 0
2734 1977 1845 1699 1765 1694 1543 1121 899 447 304 0 0 0 0 0 0 0 24 16 0 0 0 0 252 203 99 18 5 0 0 1 0 0 0 0 0 0 0 0 0 0 0
2170 1550 1226 1707 1712 1437 1285 1201 636 290 144 0 0 0 0 0 0 0 0 0 0 19 17 42 54 5 1 0 1 2 0 0 0 0 0 0 1 0 0 0 0 0 0
2043 933 1027 1279 681 883 707 624 606 659 86 41 26 0 0 0 0 0 0 0 0 13 79 38 11 0 0 0 0 0 0 0 0 0 0 0 0 0 0 0 0 0 0
611 883 563 912 482 476 364 319 305 297 242 114 52 13 0 0 0 0 0 1 22 23 135 27 30 29 13 5 0 0 0 0 0 0 0 0 0 0 0 0 0 0 0
231 373 262 286 432 528 645 479 294 163 195 259 192 54 32 23 51 160 35 12 47 50 30 64 15 24 18 3 0 0 0 0 0 0 0 0 0 0 0 0 0 0 0
296 101 100 119 101 72 78 178 277 336 35 38 69 27 11 17 133 37 97 45 34 12 20 2 20 1 0 0 0 0 0 0 0 0 0 0 0 0 0 0 0 0 0
169 111 130 182 206 140 132 238 103 70 94 60 52 29 18 166 37 29 76 39 31 15 4 22 6 2 0 0 0 0 0 0 0 0 0 0 0 0 0 0 0 0 0
69 132 63 127 139 46 66 125 105 138 107 161 109 87 129 123 68 19 20 7 15 5 9 6 5 0 0 0 0 0 0 0 0 0 0 0 0 0 0 0 0 0 0
62 65 27 5 45 50 1 40 98 60 58 105 127 172 240 121 69 52 34 34 28 11 12 12 11 8 0 0 0 0 0 0 0 0 0 0 0 0 0 0 0 0 0

GFSGL_con_mucape_015.txt.gz
CAPE
2861 2612 2985 2767 2549 2101 2476 2538 1709 1853 1233 1167 1095 1062 710 530 371 445 249 107 153 19 58 0 98 6 19 2 51 1 0 2 2 0 0 0 26 0 0 9 2 12 14
3075 2941 2975 3015 2990 2618 2267 2293 2204 1700 1719 1448 1081 1271 1100 685 369 419 317 161 31 195 18 10 1 18 38 11 115 75 181 98 47 1 12 9 0 6 40 47 12 25 43
3269 3230 3080 2928 3178 3068 2580 2383 2611 2345 1859 1616 1499 1155 1090 849 526 423 327 176 137 68 162 30 17 1 3 82 84 110 175 88 129 87 31 24 22 37 27 0 0 0 34
3418 3326 3176 3019 2990 3085 3042 2393 2594 2994 2541 1945 1514 1327 1170 964 730 485 406 303 98 224 236 269 198 10 13 336 236 264 174 241 147 87 58 23 34 36 32 50 0 0 0
3191 3285 3087 3075 3084 3147 3072 3158 2641 2671 3075 2678 2309 1908 1561 1237 947 762 534 317 239 331 280 237 107 111 142 207 311 184 337 339 255 191 72 7 0 0 20 17 2 0 0
2939 3061 2990 2960 3067 3125 3226 3186 3366 3046 2947 2996 2653 2287 1951 1681 1535 1313 1003 469 504 517 337 509 363 313 436 581 483 415 373 364 380 240 68 9 0 0 34 31 0 0 0
2498 2853 2881 2803 3023 3066 3174 3145 3371 3483 3325 3399 3222 2934 2422 2210 1891 1620 1470 733 529 510 508 517 657 410 229 258 238 370 397 234 304 109 42 33 5 0 50 64 0 0 0
2051 2598 2705 2821 2811 3153 3178 3297 3218 3589 3499 3549 3400 3257 2920 2852 2579 2188 1733 1148 563 523 462 586 525 491 289 641 624 640 434 229 260 212 70 51 43 117 105 106 36 0 0
1773 1967 2427 2580 2925 3109 3347 3298 3394 3526 3664 3500 3312 3009 3010 2956 2385 1979 1408 886 583 404 226 414 560 463 452 493 443 476 418 452 204 379 434 446 293 197 216 150 14 25 0
1466 1995 2215 2387 2894 3346 3423 3429 3670 3698 3570 3367 3418 3232 2869 2156 1525 1098 691 505 315 355 345 248 345 418 480 353 212 219 185 158 192 201 253 222 126 53 23 27 26 12 18
1467 3575 2811 3391 3826 3703 3890 3920 3815 3238 3314 3206 3150 2802 2057 1472 1182 667 413 653 714 578 371 340 266 298 442 366 314 246 191 205 170 103 85 6 0 0 0 13 38 50 19
3769 4114 4422 4456 4349 4281 4149 3614 3139 3142 2746 2789 2115 1455 1272 782 600 611 752 799 840 532 326 376 381 515 266 384 430 102 69 27 0 0 0 0 0 0 5 8 2 12 23
3939 4100 4245 4350 4325 4241 3785 2807 2818 2628 1835 1677 1521 1327 869 925 816 754 769 702 656 514 505 354 338 311 318 293 207 60 2 0 0 0 0 0 0 4 0 0 0 0 0
3712 3748 3726 3668 3622 3181 2869 2662 2243 1715 1529 1336 1321 979 1030 760 705 764 662 610 628 382 415 323 117 23 38 50 25 0 0 0 0 0 0 0 0 0 0 0 0 0 0
3401 3321 3298 3172 2991 2375 1833 1758 1695 1446 1163 1073 1162 1127 885 848 886 627 194 267 481 327 173 34 23 9 0 0 0 1 11 7 4 4 7 0 0 0 0 0 0 0 0
2767 2707 2702 2483 2112 1816 1795 1646 1390 1242 913 1024 1271 796 903 890 675 125 0 0 0 0 0 22 33 7 0 49 68 34 6 13 20 19 2 0 0 0 0 0 0 0 0
2602 2404 2030 1781 1572 1468 1414 1607 1024 916 817 853 830 714 482 386 170 0 0 0 9 18 24 83 57 0 0 0 4 8 2 22 10 0 0 0 0 0 0 0 0 0 0
1891 1760 1642 1570 1510 1484 1241 1031 885 882 826 503 406 313 17 0 0 8 22 0 0 0 9 0 0 0 0 0 0 0 0 0 0 0 0 0 0 0 0 0 0 0 0
1847 1736 1515 1313 1030 966 887 753 532 493 369 75 13 0 0 0 0 4 1 0 0 0 0 0 2 0 0 0 0 0 0 0 0 0 0 0 0 0 0 0 0 0 0
1907 1719 1606 1600 1496 1270 1031 861 653 251 261 72 2 0 0 0 0 0 0 0 0 0 0 0 0 0 0 0 0 0 0 0 0 0 0 0 0 0 0 0 0 0 0
1223 1026 911 714 1384 1156 1046 673 614 395 120 70 58 0 0 0 0 0 0 0 0 0 0 0 0 0 0 0 0 0 0 0 0 0 0 0 0 0 0 0 0 0 0
355 419 672 564 485 492 204 26 24 155 212 164 50 27 5 0 0 0 0 0 0 0 3 1 0 1 0 0 0 0 0 0 0 0 0 0 0 0 0 0 0 0 0
253 296 363 367 230 193 104 63 39 49 50 41 53 73 45 20 9 0 0 5 1 12 10 4 5 3 3 0 0 0 0 0 0 0 0 0 0 0 0 0 0 0 0
70 80 99 101 137 109 68 62 48 54 27 34 58 59 42 13 11 21 14 15 12 23 16 5 9 5 4 0 0 0 0 0 0 0 0 0 0 0 0 0 0 0 0
100 29 33 89 105 80 59 45 39 32 25 48 21 24 31 36 43 31 8 2 0 15 3 7 1 7 5 3 0 0 0 0 0 0 0 0 0 0 0 0 0 0 0
53 65 43 35 43 34 10 4 24 59 57 104 78 46 49 45 35 26 9 3 0 8 9 4 0 4 1 0 0 0 0 0 0 0 0 0 0 0 0 0 0 0 0

GFSGL_con_mucape_018.txt.gz
CAPE
1944 1875 1728 1443 1364 1826 1798 1599 1530 1632 1538 1349 1281 1196 912 679 575 507 282 182 129 9 51 24 0 0 0 1 3 7 9 7 2 12 0 0 0 17 0 0 1 0 0
2007 2061 2047 1984 1741 1552 1643 1893 1976 1899 1554 1410 1454 1339 951 797 700 597 391 200 141 18 0 65 23 0 16 9 9 13 11 13 53 35 16 2 10 14 9 25 45 16 0
2111 2126 2397 2297 2196 2016 1737 1664 1883 2043 1746 1491 1485 1219 1108 960 822 700 484 310 171 99 44 4 0 0 3 43 17 17 49 81 66 66 43 33 34 32 42 37 17 15 9
2363 2239 2317 2544 2414 2356 2180 1933 1845 1894 2139 1694 1549 1502 1445 1289 1180 1067 915 768 525 242 13 77 35 1 12 5 52 14 70 118 115 100 93 81 57 44 30 22 10 1 1
2442 2596 2449 2553 2640 2590 2523 2271 2019 2012 1990 2038 1646 1591 1525 1403 1363 1302 1205 1037 739 595 352 107 126 99 58 54 27 42 157 164 136 136 95 85 75 50 18 0 1 2 1
2614 2666 2770 2709 2648 2656 2783 2720 2453 2177 2426 2359 2158 1921 1779 1740 1739 1691 1642 1415 1117 1006 656 273 145 200 233 238 18 32 130 250 179 48 30 50 78 37 11 0 0 0 0
2683 2879 2919 2879 2809 2744 2725 2813 2910 2772 2539 2668 2884 3031 2868 2612 2407 2188 1916 1778 1525 1389 1241 424 231 297 335 331 226 265 451 300 217 80 111 83 57 22 7 1 34 38 0
2698 2852 3045 2925 2864 2822 2857 2903 2893 3008 2965 2823 2640 2797 2933 2850 2505 2659 2294 2478 2463 1792 1470 572 332 417 504 466 336 213 260 118 72 141 69 145 116 98 144 151 129 111 108
2500 2686 2896 2872 2764 2844 2822 2927 2958 3053 3136 3143 3200 3163 2974 2624 2476 3038 2840 2637 2001 1589 1028 444 537 536 514 318 281 305 203 222 254 328 212 217 224 220 164 73 81 63 3
2062 2461 2717 2749 2702 2767 2875 2892 2959 3038 3118 3228 3346 3391 3081 2614 2729 2899 2801 1974 1300 662 397 537 453 279 336 270 354 318 136 49 88 117 94 117 154 153 74 0 0 0 0
1942 2042 2426 2654 2668 2674 2902 2956 3075 3070 3197 3232 3330 3397 2918 3161 3367 2331 1468 976 652 282 277 467 428 399 350 280 283 158 81 131 164 120 55 0 0 0 0 0 0 0 7
1630 1787 1898 2391 2474 2680 2998 3087 3127 3177 3225 3115 2721 2740 3126 2641 1876 1007 760 380 317 521 967 569 301 221 234 157 197 172 155 139 97 10 0 0 0 0 0 0 0 0 2
1432 1687 1857 2087 2588 2987 3037 3118 3184 3209 2905 2476 2282 2315 2021 1359 773 544 525 553 616 789 861 580 290 257 145 85 147 195 58 24 0 0 0 0 0 0 0 0 0 0 0
2236 3191 3216 2965 2918 3013 3035 2992 3098 2980 2647 2415 2147 1299 991 793 696 662 616 672 697 691 593 429 332 119 21 12 50 19 10 0 0 0 0 0 0 0 0 0 0 0 0
2996 2832 2959 2928 3067 3110 3143 3109 2467 2281 2068 1745 1180 937 899 765 731 688 634 539 492 555 553 326 127 25 6 6 0 0 0 0 1 0 0 0 0 0 0 0 0 0 0
3157 2857 2695 3255 3158 3074 2359 1370 1272 1173 1268 970 848 876 877 787 691 595 184 24 186 347 254 84 0 0 0 0 0 0 0 4 5 0 0 2 0 0 0 0 0 0 0
2853 2885 2722 2242 1417 1238 1284 1211 1043 821 711 948 989 991 741 577 241 0 0 0 0 0 0 0 0 0 0 0 0 0 0 0 0 0 0 0 0 0 0 0 0 0 0
1975 1033 2020 1549 1063 1033 1173 1072 838 711 610 848 819 601 600 525 263 0 0 0 0 0 0 0 0 0 0 0 0 0 0 0 0 0 0 0 0 0 0 0 0 0 0
1541 1513 1528 1396 1228 1287 1221 1085 726 416 550 527 593 263 76 79 0 0 0 0 0 0 0 0 0 0 0 0 0 0 0 0 0 0 0 0 0 0 0 0 0 0 0
1343 1364 1359 1245 1214 1182 971 721 642 604 581 394 270 131 5 0 0 0 0 0 0 0 0 0 0 0 0 0 0 0 0 0 0 0 0 0 0 0 0 0 0 0 0
1314 1244 1101 977 924 825 643 472 286 304 205 118 16 7 0 0 0 0 0 0 0 0 0 0 0 0 0 2 0 0 0 0 0 0 0 0 0 0 0 0 0 0 0
791 936 704 1424 1244 804 740 587 523 259 140 73 5 0 0 0 0 0 0 0 0 0 0 0 0 2 2 0 0 0 0 0 0 0 0 0 0 0 0 0 0 0 0
204 328 364 625 915 855 666 593 505 473 308 104 76 44 38 13 0 0 0 0 0 0 1 2 8 5 1 0 0 0 0 0 0 0 0 0 0 0 0 0 0 0 0
166 124 177 277 249 162 163 48 54 175 212 147 88 51 50 34 22 11 3 0 7 12 0 18 18 7 2 3 3 1 1 0 0 0 0 0 0 0 0 0 0 0 0
17 17 29 69 64 66 49 65 44 94 103 102 66 49 33 19 16 9 11 22 30 25 17 28 15 2 3 0 3 2 0 0 0 0 0 0 0 0 0 0 0 0 0
54 28 56 71 56 56 56 42 37 26 17 53 35 28 27 66 36 31 27 23 14 24 20 14 5 4 2 6 3 0 0 0 0 0 0 0 0 0 0 0 0 0 0

GFSGL_con_mucape_021.txt.gz
CAPE
993 1135 1101 1068 1082 1097 1077 1029 950 1184 1331 1346 1304 1406 1134 1073 1224 904 368 198 52 56 16 0 0 0 0 0 0 0 2 0 0 0 1 0 0 0 0 0 0 0 0
958 1069 1095 1170 1235 1197 1119 1131 979 1153 1345 1517 1506 1429 1237 1229 1410 901 591 524 375 110 5 13 0 0 5 0 3 1 7 6 0 0 2 4 22 18 9 9 0 3 8
1033 1230 1189 1138 1164 1291 1388 1296 1230 1276 1464 1278 1414 1429 1227 1279 1317 961 759 705 659 434 105 15 0 9 21 1 9 20 19 11 12 19 19 27 41 35 38 37 12 0 0
1267 1406 1479 1433 1347 1212 1280 1404 1452 1497 1533 1604 1550 1418 1529 1476 1359 1125 1019 859 783 748 622 391 160 16 79 1 4 23 17 14 29 61 78 78 48 53 52 32 18 0 0
1385 1581 1605 1654 1662 1606 1482 1362 1349 1423 1526 1542 1692 1697 1506 1484 1548 1484 1408 1260 1199 1068 874 673 490 274 171 14 5 16 8 10 39 97 79 56 29 2 21 33 13 0 0
1575 1710 1751 1874 1912 1916 1887 1767 1627 1523 1531 1556 1535 1605 1735 1691 1600 1574 1576 1515 1420 1392 1299 1070 901 584 199 70 136 121 147 27 37 100 98 58 7 4 20 3 11 2 0
1834 1857 1889 1879 2069 2136 2092 2067 1975 1866 1755 1726 1732 1696 1795 2008 1743 1655 1583 1592 1716 1666 1619 1327 1145 1070 280 82 199 219 204 138 71 96 74 4 1 29 28 39 19 26 59
1972 2029 2149 2104 2072 2198 2263 2279 2217 2087 2017 1944 1921 1879 1857 1952 1942 1954 2094 2401 2429 2157 1778 1611 1433 1012 519 178 303 314 233 147 173 56 43 24 46 34 92 90 108 95 90
2029 2163 2287 2441 2347 2268 2304 2344 2400 2311 2227 2221 2109 2158 2264 2292 2492 2922 2981 2948 2426 2528 2407 1456 1407 807 463 309 464 325 149 146 135 93 71 151 196 105 55 76 106 38 0
2165 2278 2453 2550 2538 2467 2408 2381 2385 2475 2424 2393 2463 2465 2504 2521 2628 2774 2845 2555 2820 2869 1928 1526 794 553 540 523 502 389 149 153 103 29 18 37 37 19 7 0 0 0 0
2097 2366 2428 2641 2629 2551 2488 2457 2551 2568 2689 2690 2605 2644 2901 3026 2920 2610 2731 2824 2827 2258 1268 691 412 455 361 284 203 206 91 77 38 48 27 0 0 0 0 0 0 0 0
1651 2005 2314 2463 2678 2538 2549 2582 2690 2714 2941 2920 3271 3045 3148 2995 2413 2684 2651 2364 1829 905 423 108 177 247 190 159 162 105 59 51 25 13 0 0 0 0 0 0 0 0 0
1464 1671 1886 2334 2527 2546 2560 2600 2666 2734 2940 3102 3165 3014 3093 2427 2536 2232 1829 1245 672 277 133 453 576 207 110 71 11 31 43 40 1 0 0 0 0 0 0 0 0 0 0
1456 1527 1661 2061 2380 2495 2556 2662 2724 2807 2886 2829 2783 2915 2286 1941 1608 1618 766 499 348 435 481 631 485 173 1 0 0 10 11 3 0 0 0 0 0 0 0 0 0 0 0
1175 1363 1492 1791 2235 2556 2665 2704 2674 2583 2328 2284 2145 1842 1775 1454 1461 821 519 476 569 589 610 597 196 77 7 0 0 0 0 0 0 0 0 0 0 0 0 0 0 0 0
1421 1769 1983 2069 2317 2504 2520 2646 2212 1872 1696 1164 1139 537 1030 745 726 699 634 593 539 492 512 457 215 2 0 0 0 0 0 0 0 0 0 0 0 0 0 0 0 0 0
2367 2211 2147 1953 2320 2377 2374 1966 1112 737 665 2 238 487 576 514 584 601 536 177 218 265 250 232 22 0 0 0 0 0 0 0 0 0 0 0 0 0 0 0 0 0 0
2405 1983 1926 1990 1884 1975 954 446 48 2 50 486 372 409 445 329 406 193 0 0 0 0 0 0 0 0 0 0 0 0 0 0 0 0 0 0 0 0 0 0 0 0 0
1397 1655 1264 1222 280 301 221 235 113 1 88 360 286 235 145 50 0 0 0 0 0 0 0 0 0 0 0 0 0 0 0 0 0 0 0 0 0 0 0 0 0 0 0
89 206 304 65 0 29 100 37 168 288 356 415 391 328 216 50 0 0 0 0 0 0 0 0 0 0 0 0 0 0 0 0 0 0 0 0 0 0 0 0 0 0 0
62 479 469 410 293 575 599 591 396 425 496 430 254 155 242 70 0 0 0 0 0 0 0 0 0 0 0 0 0 0 0 0 0 0 0 0 0 0 0 0 0 0 0
690 895 863 833 747 716 510 365 241 245 318 327 157 22 3 0 0 0 0 0 0 0 0 0 0 0 0 0 0 0 0 0 0 0 0 0 0 0 0 0 0 0 0
412 743 694 692 560 386 303 322 289 257 230 57 26 28 1 0 0 0 0 0 0 0 0 0 0 0 2 3 2 1 0 0 0 0 0 0 0 0 0 0 0 0 0
180 271 424 700 606 508 360 360 271 178 120 85 64 32 20 4 0 0 0 0 0 0 0 0 0 1 16 10 3 2 0 0 0 0 0 0 0 0 0 0 0 0 0
63 2 1 54 241 317 293 112 61 109 102 89 57 51 43 22 14 7 1 0 0 0 0 0 4 16 13 8 5 3 0 0 0 0 0 0 0 0 0 0 0 0 0
10 26 45 42 38 50 63 63 63 75 66 58 55 57 49 34 24 9 3 3 5 8 7 12 10 10 7 6 2 0 0 0 0 0 0 0 0 0 0 0 0 0 0

GFSGL_con_mucape_024.txt.gz
CAPE
745 753 759 712 637 608 663 775 825 776 804 877 1027 1223 1266 1390 1344 1225 894 800 354 12 11 0 0 0 0 0 0 0 0 0 0 0 0 0 0 6 0 0 0 2 2
851 969 963 895 792 730 703 748 816 857 933 959 889 1130 1117 1263 1458 1222 1051 1005 611 256 148 0 0 0 0 0 0 0 1 0 1 9 0 0 0 0 1 15 3 0 1
504 1019 1036 986 901 844 796 781 840 941 1006 987 841 1090 1249 1363 1403 1274 1099 1216 926 591 567 445 155 34 4 6 0 0 0 1 0 0 6 0 0 1 4 3 1 1 0
557 794 1014 1059 1016 1026 962 940 896 979 1030 1072 1085 1361 1474 1522 1464 1402 1202 1403 1229 870 792 737 619 430 230 93 18 0 0 11 11 4 4 3 26 43 14 12 25 5 3
722 761 994 1055 1089 1138 1216 1174 1107 1043 1084 1151 1006 1162 1324 1325 1458 1494 1354 1432 1348 1160 1004 976 1017 795 414 364 65 8 0 2 11 9 10 15 43 21 15 2 4 11 6
922 940 1066 1204 1183 1151 1135 1281 1309 1306 1275 1245 1262 1098 1375 1431 1305 1427 1634 1653 1489 1518 1545 1474 1359 1207 886 516 149 51 0 9 14 13 1 34 40 45 15 11 1 13 7
1089 1177 1296 1399 1442 1418 1366 1244 1225 1238 1345 1397 1410 1335 1281 1496 1616 1559 1583 1672 1672 1656 1678 1660 1688 1432 1098 869 551 375 32 81 125 92 36 43 40 83 7 7 3 16 32
1217 1270 1475 1603 1666 1663 1675 1573 1458 1363 1296 1339 1405 1478 1382 1368 1477 1575 1647 1777 1832 1786 1753 2011 1924 1564 1457 1234 1015 422 29 107 130 42 61 47 6 21 0 1 20 39 64
1436 1420 1548 1739 1808 1838 1881 1877 1839 1723 1546 1516 1495 1569 1616 1529 1499 1518 1566 1950 2041 1971 2407 2600 2257 1889 1468 1154 796 257 36 118 79 40 58 33 20 19 23 5 19 26 12
1584 1702 1759 1847 1829 1926 2035 2090 2060 2004 1841 1730 1656 1723 1816 1823 1672 1710 1744 1973 2087 2431 2843 2841 2291 1682 1200 650 353 296 327 283 40 69 40 1 0 0 0 0 0 0 0
1409 1793 1968 2067 2052 1964 2090 2276 2324 2350 2164 1870 1825 1813 1972 2036 1915 1868 2049 2267 2501 2784 2592 2571 1911 1455 687 371 363 282 179 78 88 21 8 0 3 0 0 0 0 0 0
1435 1775 1982 2202 2320 2323 2207 2286 2285 2439 2415 2140 1937 2372 2044 2223 2251 2180 2412 2643 2787 2682 2682 1887 1506 579 186 66 42 57 42 60 6 6 7 0 0 0 0 0 0 0 0
1202 1773 2148 2258 2445 2433 2469 2405 2407 2425 2434 2301 2259 3117 2967 2493 2303 2504 2734 2660 2537 2603 2087 1162 267 80 78 74 47 17 1 2 11 0 0 0 0 0 0 0 0 0 0
1024 1398 1839 2339 2479 2614 2471 2483 2479 2477 2306 2452 2229 2702 2900 2480 2298 2694 2568 2068 1790 1669 719 204 274 311 172 28 12 0 0 6 14 0 0 0 0 0 0 0 0 0 0
1644 1030 1472 2023 2380 2574 2500 2379 2356 2470 2555 2551 2421 2368 2213 1635 1630 1806 1147 1191 1349 475 232 308 383 369 36 0 0 0 0 1 0 0 0 0 0 0 0 0 0 0 0
2566 2005 1520 1762 2168 2388 2394 2290 2490 2620 2601 2539 2306 1736 843 31 209 182 298 419 337 211 359 423 314 116 0 0 0 0 0 0 0 0 0 0 0 0 0 0 0 0 0
2349 2255 1658 1506 1759 2154 2164 1980 2189 2640 2575 2336 1775 1060 472 190 8 207 130 282 349 413 384 352 283 126 0 0 0 0 0 0 0 0 0 0 0 0 0 0 0 0 0
1871 1891 1536 1182 1264 1633 1626 1785 1656 1739 2034 1888 1183 482 179 96 13 244 271 403 496 426 332 277 236 45 0 0 0 0 0 0 0 0 0 0 0 0 0 0 0 0 0
429 884 1182 1237 1034 1052 1362 1750 1948 1833 1388 670 232 101 45 12 172 189 273 438 243 160 175 124 55 0 0 0 0 0 0 0 0 0 0 0 0 0 0 0 0 0 0
287 226 403 325 397 660 1099 1432 1573 975 180 27 0 148 160 145 162 180 211 9 0 9 1 0 0 0 0 0 0 0 0 0 0 0 0 0 0 0 0 0 0 0 0
0 91 13 0 43 60 169 120 32 0 4 0 0 327 318 270 146 12 0 0 0 0 0 0 0 0 0 0 0 0 0 0 0 0 0 0 0 0 0 0 0 0 0
10 8 1 1 2 20 14 0 0 0 0 69 200 326 172 0 0 0 0 0 0 0 0 0 0 0 0 0 0 0 0 0 0 0 0 0 0 0 0 0 0 0 0
56 38 79 101 178 221 233 158 42 67 66 219 286 144 100 5 0 0 0 0 0 0 0 0 0 0 0 0 0 0 0 0 0 0 0 0 0 0 0 0 0 0 0
80 172 180 136 163 220 196 199 247 346 276 213 214 255 201 113 65 14 1 0 0 0 0 0 0 0 0 0 1 3 0 0 0 0 0 0 0 0 0 0 0 0 0
31 77 112 127 145 111 112 128 110 57 46 56 99 93 66 74 25 23 37 23 9 3 0 0 0 0 1 9 9 3 2 0 0 0 0 0 0 0 0 0 0 0 0
17 46 51 34 37 68 50 25 33 47 52 73 87 57 62 40 46 11 7 15 13 15 17 13 6 9 24 13 2 0 0 0 0 0 0 0 0 0 0 0 0 0 0

GFSGL_con_mucape_027.txt.gz
CAPE
1827 1812 1766 1727 1754 1900 1921 2001 2089 2255 2320 2319 2321 2303 2305 2183 1860 1684 1540 1022 712 688 340 360 367 316 94 67 39 18 13 0 0 0 5 67 68 103 36 161 96 232 126
1832 1931 1888 1912 1872 1832 1903 1973 2081 2215 2194 2522 2465 2357 2231 2190 2003 1736 1659 1203 949 851 639 434 387 131 217 148 44 131 41 16 0 255 82 91 190 242 416 455 265 49 149
1793 1866 2006 2031 1928 1910 1941 2036 2141 2196 2253 2047 2418 2577 2267 2091 2076 1825 1814 1641 1154 1076 829 602 512 393 214 40 72 15 13 112 119 53 71 91 123 140 293 469 486 242 172
1489 1806 2050 2105 2066 2012 2052 2140 2157 2279 2267 2364 2514 2665 2430 2082 2043 1831 1792 1822 1538 1269 1032 773 636 573 496 370 184 223 168 146 169 146 105 96 160 269 277 263 224 101 44
1713 1769 2090 2239 2292 2302 2222 2225 2262 2374 2269 2396 2489 2587 2460 2049 1777 1922 1827 1838 1725 1523 1324 1093 872 797 784 789 652 447 619 359 153 189 201 196 128 110 34 204 101 67 84
1786 1720 1991 2390 2452 2398 2374 2354 2386 2385 2354 2488 2532 2589 2592 2054 1457 1260 1567 1905 1787 1989 1824 1427 1207 1144 1151 1051 919 550 607 693 695 293 296 350 502 54 269 122 94 153 95
1861 1931 2051 2299 2461 2474 2435 2483 2427 2474 2417 2484 2466 2545 2610 2617 1317 1196 1175 2062 1881 2138 2043 1877 1511 1510 1532 1448 1156 808 496 184 128 765 693 738 546 200 172 309 238 206 287
1931 2138 2110 2112 2367 2458 2548 2539 2594 2571 2560 2567 2531 2539 2594 2555 1428 1115 1210 1862 2260 2243 2076 1907 1683 1637 1630 1715 1272 1104 802 595 214 96 645 863 464 391 198 352 455 548 519
2010 2208 2260 2182 2413 2536 2513 2543 2551 2623 2711 2733 2683 2713 2641 2711 1487 1303 1175 1571 2205 2247 2136 1875 1669 1705 1630 1596 1345 1212 1026 941 309 58 56 9 11 14 42 358 331 204 148
2154 2263 2308 2554 2591 2656 2715 2746 2690 2633 2676 2645 2802 2802 2273 2777 1634 1373 1338 1926 2186 1967 2069 1804 1831 1833 2306 2159 1630 1264 1107 856 663 141 18 1 24 1 0 247 101 0 0
1858 2055 2617 2852 2908 2785 2529 2857 3106 2989 2901 2893 2855 2831 2783 2311 2517 1475 1514 2086 2172 2000 1910 1436 1890 1985 2549 2258 1489 1281 1052 988 365 353 90 66 2 0 0 0 0 0 0
2249 2682 3203 3207 2873 2661 3042 2753 3285 2884 3136 3300 3133 2612 2594 2888 1806 1730 1632 1704 1663 2043 1389 1479 1841 2522 2541 1927 1414 752 552 210 276 188 16 0 0 0 0 0 0 0 0
2588 3149 3340 3403 3381 3384 3446 3417 2740 2419 2513 2796 2429 2584 2454 2071 2164 1757 1894 1908 1927 1683 1655 1778 2348 2461 2369 1501 747 304 135 201 104 0 0 0 0 0 0 0 0 0 0
2781 3019 3282 3555 3636 3720 3382 3267 3028 2507 2344 2094 2338 2443 2186 2143 1919 2137 1820 2048 1967 1800 2100 2031 2128 1866 1253 403 144 125 194 226 31 0 0 0 0 0 0 0 0 0 0
2368 2333 2714 2910 2988 3598 3652 3461 3060 2779 2748 2752 2975 2425 2378 2102 1996 1970 2130 1825 1879 1563 1652 1510 1318 762 187 125 124 85 82 0 0 0 0 0 0 0 0 0 0 0 0
1793 2111 2014 2155 2563 3125 3325 2747 2711 2606 2481 2322 2528 2470 2297 1965 1750 1475 1984 1096 228 3 198 499 310 124 153 179 30 0 0 0 0 0 0 0 0 0 0 0 0 0 0
724 1230 1692 1363 1966 3041 2529 2404 2344 2495 2500 2177 2137 2248 2055 1885 1548 1184 1268 728 201 14 105 61 169 96 163 8 0 0 0 0 0 0 0 0 0 0 0 0 0 0 0
654 243 825 1407 2018 1763 1527 1640 1914 2063 2405 2146 2165 2073 1958 1732 1233 1146 525 246 157 0 43 40 42 78 55 0 0 0 0 0 0 0 0 0 0 0 0 0 0 0 0
362 68 154 269 546 707 892 888 1152 1515 1671 1486 1894 2174 1973 1744 1285 616 207 77 2 1 99 201 235 120 54 0 0 0 0 0 0 0 0 0 0 0 0 0 0 0 0
129 0 8 4 140 397 666 767 734 719 667 797 1027 970 1324 1328 1059 229 55 12 0 77 203 304 230 167 18 0 0 0 0 0 0 0 0 0 0 0 0 0 0 0 0
2 148 0 70 11 40 99 40 1 1 3 3 1 377 786 218 133 63 47 102 75 162 212 127 114 22 0 0 0 0 0 0 0 0 0 0 0 0 0 0 0 0 0
165 166 59 4 9 9 15 10 11 0 9 15 14 14 3 150 167 208 152 180 173 57 30 0 0 0 0 0 0 0 0 0 0 0 0 0 0 0 0 0 0 0 0
83 75 17 3 25 2 0 0 11 12 30 3 7 68 122 109 147 188 82 0 0 0 0 0 0 0 0 0 0 0 0 0 0 0 0 0 0 0 0 0 0 0 0
323 299 49 13 42 42 24 51 39 18 67 117 183 185 158 136 77 1 0 0 4 0 0 0 0 0 0 0 0 0 0 0 0 0 0 0 0 0 0 0 0 0 0
0 27 40 202 216 112 60 13 12 1 7 112 127 113 61 13 4 7 9 4 0 0 0 0 0 0 0 0 0 0 0 0 0 0 0 0 0 0 0 0 0 0 0
7 32 59 44 7 3 21 29 10 21 23 33 25 43 59 99 96 89 57 15 0 0 0 0 0 0 0 0 0 2 6 0 0 0 0 0 0 0 0 0 0 0 0

GFSGL_con_mucape_030.txt.gz
CAPE
3003 3244 3171 2857 3023 3321 3482 3680 3756 3082 3571 3013 3072 2550 2399 2801 3062 3194 3077 2413 2358 1929 1362 729 873 738 94 48 86 84 63 36 0 7 3 136 443 439 53 69 138 152 75
2874 3360 3408 3443 3308 3041 3425 3498 3710 3723 3456 3790 3340 3251 2792 2659 2986 3010 3008 2399 2489 2232 1981 1515 889 588 783 359 132 998 368 203 0 234 107 195 603 534 524 678 298 56 58
2743 2496 2723 3006 2878 3407 3640 3522 3691 3779 3844 2722 3498 3946 3357 3026 3288 3016 2919 2978 2625 2557 2289 2047 1490 765 852 485 389 235 116 146 275 36 32 235 149 354 569 738 626 617 235
1942 2199 2981 3397 3367 3377 3631 3635 3695 3824 3900 3854 3700 4175 3794 3190 2984 2699 2720 2940 2997 2637 2590 2331 1922 1416 1005 931 545 523 319 164 290 155 72 26 246 416 254 108 536 596 297
2602 2324 3051 3466 3647 3655 3701 3699 3705 3909 3798 3987 3954 4050 4097 3123 2551 3566 3408 3076 3428 2937 2739 2589 2282 1720 909 936 865 981 1382 621 376 236 227 165 200 248 489 288 199 309 353
2834 2840 3120 3641 3886 3808 3817 3804 3933 3892 3910 3974 3903 4053 4080 3067 1998 1807 2615 3219 3733 3771 3240 2791 2536 1406 1057 842 888 942 894 1274 1318 340 268 495 987 576 571 358 210 198 141
2880 3204 3382 3754 3895 3949 3989 4034 3969 3915 3973 4032 3987 4011 4151 4043 2025 1711 1660 2947 3607 3635 3449 3220 2739 2310 1511 1471 1172 1195 1066 939 541 1093 1035 1221 854 1289 1116 779 738 512 511
3123 3304 3555 3732 3928 4155 4188 4113 4086 4041 3974 4092 4037 4095 4145 4075 2592 1824 1523 2767 3683 3765 3584 3556 3885 3506 2435 1812 1709 1510 1386 1308 895 576 816 952 1525 943 1061 775 841 677 638
3156 3389 3557 3670 3410 3551 4120 4098 4067 3845 3665 3693 3554 4120 4375 4226 2707 2318 1735 2572 2936 3985 3671 3512 3594 3550 2621 1740 1878 1923 1715 1453 1182 1049 809 496 509 289 273 482 406 711 599
3008 3277 3476 3786 3781 3705 4092 4230 4088 3938 3556 3107 3511 3910 3417 4265 3137 2410 2069 2261 2849 2715 3804 3971 2227 2889 2390 1844 1580 1815 2004 1783 1305 1034 840 607 179 24 1 194 286 257 105
2349 2415 3367 3875 4040 4038 4341 4302 4240 4067 3624 4045 3715 3696 4075 3877 3799 2662 2107 2631 2757 2788 2551 2831 2827 1994 1876 1690 1586 1680 1867 1884 1414 1246 696 619 526 427 99 69 242 0 0
3083 3084 3874 3994 3208 3073 4433 4496 4176 4167 4127 3978 3379 3552 3703 4106 2781 2716 2474 1923 2176 3010 2968 2454 2672 1869 1358 1310 1567 1720 1451 1236 2141 1138 842 483 411 321 181 13 0 0 0
2999 3669 3715 3817 3855 4197 4487 4536 3738 4238 3371 3369 2907 3468 3176 3682 3713 2520 2373 2193 1771 2005 2522 2339 1830 1433 1130 1415 1629 1819 1361 1072 1001 781 507 491 270 160 22 0 0 0 0
2875 3131 3239 3500 3483 3475 3295 3545 3284 3098 3598 3207 3560 3712 3414 3448 3475 3140 2240 2006 1888 1499 1707 1763 1467 1176 1233 1729 1845 1406 1100 719 677 615 466 376 91 11 0 0 0 0 0
3120 3231 3353 3301 3469 3626 3853 3376 3266 3635 3205 3428 3503 3170 3090 3100 3306 2848 2103 1942 1833 1623 1505 1575 1018 1265 1342 1181 1007 924 410 549 455 554 376 121 12 7 0 1 0 0 5
2398 2539 2400 2498 2802 3219 3300 3737 2780 2939 2953 2857 2805 2427 2201 2342 2585 2486 2134 1874 1739 1725 1580 919 866 431 452 554 528 200 320 221 286 254 129 25 10 2 0 4 0 1 2
1541 1516 1458 1389 1585 1816 2400 2906 3042 2999 2881 2774 2670 2594 2356 2581 2545 2474 2081 2015 1905 1795 1419 936 565 265 100 78 42 216 321 127 109 39 28 17 3 2 1 8 0 0 0
805 144 1138 1247 1479 1880 2430 2664 2879 3266 2779 2687 2378 2588 2444 2412 2502 2334 2203 1862 1694 1497 719 526 279 104 57 25 50 110 170 66 51 5 4 2 0 6 8 0 0 0 0
231 567 423 263 210 215 576 783 998 1050 1019 1058 1319 1485 2051 1984 2272 2223 1732 1427 1158 856 521 369 218 120 120 70 111 121 80 11 0 0 0 1 3 4 0 0 0 0 0
246 0 27 177 0 19 17 6 282 476 622 695 691 709 668 1031 1200 1295 1161 1088 1083 453 337 320 405 269 157 183 109 66 32 0 0 1 2 1 0 0 0 0 0 0 0
400 484 1 132 133 15 5 1 11 14 16 0 0 3 36 7 68 26 0 593 247 182 376 318 189 151 280 225 53 3 5 0 6 1 0 0 0 0 0 0 0 0 0
665 384 240 129 93 6 21 14 16 7 17 7 0 0 3 0 0 4 94 83 92 70 113 388 475 209 74 16 1 0 0 0 0 0 0 0 0 0 0 0 0 0 0
532 429 216 238 194 1 3 4 14 16 4 0 0 0 1 1 17 34 107 113 138 182 374 522 495 93 40 0 0 0 0 0 0 0 0 0 0 0 0 0 0 0 0
699 704 439 137 129 83 12 0 0 0 0 0 5 32 62 10 34 44 22 43 116 134 81 119 42 5 6 0 0 0 0 3 2 0 0 0 0 0 0 0 0 0 0
2 35 138 266 410 177 23 5 7 6 14 6 5 27 42 20 34 28 38 5 0 2 12 11 0 0 0 0 0 0 0 0 0 0 0 0 0 0 0 0 0 0 0
5 5 1 0 40 21 48 17 0 2 4 2 22 28 0 0 2 4 5 19 37 45 39 6 1 0 0 0 0 0 0 0 0 0 0 0 0 0 0 0 0 0 0

GFSGL_con_mucape_033.txt.gz
CAPE
3763 3768 3859 4000 4060 4269 3952 4196 4174 4186 4402 3761 4087 3664 3708 3792 3985 4382 3978 3703 3624 3309 2489 2464 2153 2223 113 56 74 52 43 41 4 0 9 798 448 335 218 321 169 594 52
3785 3880 3864 4021 4010 4049 4225 4028 4308 4407 4201 4405 4284 4201 3972 3808 3980 4255 3998 2588 3707 3201 2626 2695 1960 832 2090 1797 228 1555 451 737 76 1678 696 426 1065 1547 1437 1610 402 34 217
3248 3444 3958 3963 4052 3973 4144 4210 4172 4353 4402 4196 4284 4471 4324 3948 4019 4410 4289 3990 3784 3670 3464 3331 2717 2201 2260 733 845 426 243 496 486 181 113 175 269 535 1037 1419 1416 1138 453
2501 2859 3481 4052 3975 4042 4122 4333 4276 4383 4392 4329 4275 4403 4410 4297 4028 4109 4185 4195 3988 3799 3715 3664 3426 2811 2199 2333 1666 1605 1161 643 538 251 140 66 177 887 442 256 421 637 593
3151 3153 3456 3998 4198 4253 4212 4289 4333 4384 4357 4407 4369 4378 4566 4398 3585 4064 3864 3998 4138 4172 3966 3914 3728 3025 1897 1923 1369 1582 1470 851 319 272 290 304 137 413 886 631 602 183 590
3479 3342 3729 4127 4351 4424 4436 4380 4538 4434 4476 4467 4464 4380 4376 4091 2830 2490 3152 3961 4130 4318 4211 4130 3848 2418 1759 1330 931 1107 1461 2066 1756 830 709 768 2151 1282 620 386 526 195 290
3378 3782 3815 4188 4393 4522 4572 4605 4527 4524 4534 4520 4471 4529 4479 4476 3022 2303 2177 3789 4117 4033 4326 4294 3920 2713 2394 2196 1293 868 734 847 1034 2247 1981 1867 2173 1970 1905 984 1443 1050 570
3634 3690 3998 4125 4356 4573 4683 4633 4650 4632 4592 4594 4599 4656 4632 4514 3521 2679 2114 2993 3735 3929 4072 4258 4310 3464 3477 2976 2725 1515 1348 1150 1163 1165 1665 2057 2086 2005 1058 1607 1475 1220 1017
3908 3861 3820 4196 4345 4526 4574 4610 4644 4610 4605 4555 4610 4724 4717 4575 3588 3226 2565 2671 3202 3552 3735 4154 4213 4284 3424 2221 3123 2985 2137 1674 1332 1402 1159 963 836 657 663 803 497 691 601
3658 4076 4156 4444 4475 4533 4624 4762 4739 4690 4567 4299 4481 4632 4293 4683 3958 3354 2960 2907 3106 3276 3593 4079 3077 3645 3523 2837 2807 3163 2677 2091 1602 1296 1185 917 900 780 536 743 434 278 316
3329 3999 4390 4465 4647 4572 4655 4783 4828 4759 4430 4637 4525 4569 4636 4349 4524 3538 3139 3310 3152 3156 3255 3414 3749 2729 3130 2925 2568 2840 2816 2730 1897 1535 1368 842 751 746 356 165 681 365 329
3761 3970 4324 4548 4132 4067 4692 4833 4969 4842 4750 4747 4703 4633 4553 4659 3643 3679 3352 2942 2911 3186 3267 3224 3401 2834 2342 2617 2648 2391 2128 1984 1923 1472 1279 1027 715 480 490 390 548 523 168
4491 4638 4619 4694 4696 4536 4840 4910 4502 4794 4311 4404 4248 4507 4468 4468 4562 3508 3166 3171 2784 2584 3193 2991 2555 2456 2235 2040 2232 2238 1842 1463 1532 1325 1064 881 833 596 815 749 549 301 54
4740 4844 4808 4894 4783 4610 3660 4007 3845 3696 4024 3973 3905 4110 4014 4122 3995 4485 3424 3157 2959 2695 2385 2377 2202 2139 2014 1990 1921 1803 1596 1341 1280 1167 828 881 539 454 83 34 9 0 0
3426 3393 3615 3433 3852 4495 4385 3289 3606 3966 3276 3589 3737 3600 3662 3766 3620 3543 3861 3695 2936 2732 2645 2246 1779 1845 1878 1824 1623 1099 919 869 822 760 470 404 300 99 71 71 4 0 2
3592 3550 3338 3171 3324 3525 3581 4000 3149 2901 2954 2836 2767 2720 3028 2959 2823 2834 2981 2850 2919 2761 2199 2251 1846 1600 1783 1698 1445 690 559 475 674 392 168 274 238 58 84 51 1 8 14
2434 2467 2138 1748 1897 2033 2872 3033 2906 2671 2856 2560 2571 2662 2698 2737 2727 2741 2473 2518 2580 2460 2148 1989 1735 1495 1605 1637 986 589 395 282 158 312 172 108 169 174 22 6 23 21 14
1165 794 1453 1533 1649 1847 2152 2360 2432 2464 2656 2692 2707 2418 2197 1880 2175 2606 2574 2402 2340 2366 2220 1725 1598 1617 1336 1361 1191 616 278 254 159 91 102 156 168 112 9 9 67 46 9
1048 981 766 785 697 598 735 676 736 635 562 618 671 672 774 625 650 843 1155 1439 1839 1976 1802 1630 1761 1481 1380 1231 699 269 522 284 249 67 133 183 89 18 11 27 52 5 0
332 59 375 464 235 223 235 343 282 62 9 7 3 1 0 0 0 1 172 693 760 1022 932 1347 1128 1193 1163 630 290 224 291 23 96 154 199 117 65 13 14 47 6 0 0
635 596 65 310 170 217 191 134 16 30 6 6 2 0 0 0 0 10 0 0 4 92 294 42 135 510 334 141 209 162 173 80 98 143 66 65 36 11 19 4 0 0 0
528 479 406 450 179 63 151 21 59 13 3 2 9 1 0 8 20 68 61 3 19 59 45 47 89 133 141 132 125 68 75 117 157 71 15 4 2 0 0 0 0 0 0
295 389 533 531 403 32 116 51 8 3 5 0 0 13 36 42 39 45 40 10 29 99 74 97 143 177 233 109 50 48 54 39 33 6 5 0 0 0 0 0 0 0 0
329 355 327 219 143 147 79 33 7 0 2 2 4 12 35 1 1 1 2 6 47 96 128 276 102 87 98 78 49 42 11 0 0 0 0 0 0 0 0 0 0 0 0
2 22 44 8 107 17 19 16 18 0 1 0 0 2 12 15 30 0 18 26 20 48 65 90 137 135 116 123 68 2 0 0 0 0 0 0 0 0 0 0 0 0 0
0 0 7 12 11 8 0 0 0 0 2 4 1 2 6 4 0 10 9 30 51 85 82 64 56 67 60 38 38 0 0 0 0 0 0 0 0 0 0 0 0 0 0

GFSGL_con_mucape_036.txt.gz
CAPE
3281 3249 3218 3330 2828 2931 3051 3115 3763 2763 4141 2962 3801 3214 3270 3295 3313 3603 3117 3012 3577 3044 2101 2192 1728 1389 1471 1024 774 807 903 714 463 402 1137 1405 917 413 120 416 271 415 45
3534 3438 3144 3238 3512 3341 2906 3175 3483 4098 3182 4257 3687 3381 3411 3162 3294 3285 3316 2545 3323 3051 2514 1982 2011 1418 1654 1782 1770 890 744 1084 893 1100 845 1159 1253 913 1083 1080 331 5 251
3458 3411 3312 3204 3240 3475 3540 3052 3281 3422 3838 3286 3993 3906 3245 3180 3159 3273 3259 3226 2335 3197 3009 2522 2147 1706 1556 930 1165 1057 988 1143 1408 673 758 1002 1294 1315 1012 1020 1278 805 636
3178 3450 3287 3365 3370 3410 3546 3685 3265 3292 3454 3668 3533 3472 3818 3317 3249 3170 3286 3559 3216 2899 3257 3000 2712 2161 1534 1589 1231 917 1138 1079 713 847 677 481 982 948 871 681 729 735 602
2680 3203 3359 3372 3509 3516 3619 3684 3838 3592 3421 3551 3630 3611 3506 3697 3348 3228 3249 3515 3493 3051 2970 3348 3043 2723 2105 1607 1387 1531 786 972 876 428 333 527 595 816 648 618 291 242 493
2758 2929 3185 3459 3485 3835 3680 3775 3856 3946 3837 3782 3820 3703 3687 3585 3355 3084 2974 3320 3556 3367 3272 3215 3204 2827 2612 2026 1577 1100 1302 734 499 247 346 485 638 875 1429 604 347 343 307
2998 3261 3311 3404 3565 3737 3989 3889 3846 4036 4051 4029 4011 3966 3710 3695 3437 3243 2857 3129 3227 3283 3241 3261 3317 3020 2698 2456 2089 1697 1007 1014 734 641 931 1312 1814 1583 1467 1242 1084 981 533
3880 3601 3805 3862 3686 3922 4064 4098 4124 4050 4163 4119 4174 4101 4021 3863 3510 3364 3035 2650 3087 3145 3203 3198 3254 3169 2931 2688 2297 1987 1660 1026 911 888 1364 1179 1740 1599 1542 1529 1210 1138 1006
3464 3920 3696 4044 4027 4027 4135 4153 4213 4279 4213 4311 4243 4271 4191 4029 3709 3464 3273 2915 2718 2922 3162 3299 3212 3243 3114 2718 2513 2137 1971 1713 1070 747 656 1174 1251 1144 1343 918 923 577 510
3597 3435 3858 3783 3952 4068 4190 4341 4359 4363 4351 4304 4316 4274 4156 4196 3872 3732 3433 3112 2633 2628 2809 3221 3120 3122 3176 3050 2508 2488 2085 1874 1448 1078 796 803 1105 1051 941 772 573 417 241
3601 3745 3984 4023 3890 4093 4250 4448 4497 4487 4446 4425 4358 4341 4339 4179 4142 3935 3708 3433 3165 2803 2656 2797 3012 3009 3108 3161 2837 2540 2455 2224 1779 1381 1078 978 1084 1128 882 723 489 319 209
4223 4064 4173 4513 3956 3938 4406 4510 4536 4527 4507 4445 4402 4376 4387 4323 4098 4021 3934 3730 3299 3203 2949 2673 2775 2921 2934 2972 3004 2738 2500 2385 2190 1807 1481 1255 1191 1061 978 587 277 286 281
5087 4912 4472 4704 4525 4143 4588 4486 4512 4599 4527 4504 4405 4385 4308 4211 4499 4168 3944 3794 3748 3556 3226 3069 2711 2661 2769 2820 2815 2801 2785 2600 2289 1932 1661 1289 1154 1068 565 229 159 213 154
5233 5322 4947 4843 4661 4528 4171 4448 4330 4357 4512 4555 4458 4334 4167 4380 4427 4109 4087 3960 3778 3537 3448 3223 2919 2763 2527 2570 2686 2671 2724 2726 2227 1981 1769 1301 1130 675 298 196 139 112 67
4830 4986 5113 4685 4587 4739 4590 3995 4478 4403 4237 4382 4386 4083 3908 4200 3668 3331 3590 3647 3529 3534 3466 3229 2988 2871 2660 2325 2223 2399 2501 2489 2511 2050 1624 1191 787 346 134 119 106 54 67
4644 4244 4059 3859 4121 4327 4563 4501 3552 3318 3483 3273 3084 3175 3197 3049 3015 2974 2947 2903 2778 3033 3387 3206 3035 2901 2695 2443 2208 1984 1806 1975 2012 1547 1271 927 410 145 87 54 42 50 40
3975 4549 4082 3386 3944 4194 3976 4525 4424 3366 2786 2828 2853 2881 2798 2658 2597 2550 2718 2845 2840 2597 2348 2442 2656 2658 2590 2461 2045 2005 1957 1603 1540 1175 1215 465 74 30 87 68 18 18 73
2911 2623 2434 2442 2334 2547 2600 2547 2479 2551 2952 2738 2582 2497 2486 2478 2486 2462 2357 2194 2127 2159 2248 2261 2113 2085 1885 1945 1445 1466 1447 1813 1172 836 626 272 85 12 22 19 9 1 0
2348 1587 1500 1086 1150 1352 1362 1550 1578 1626 1626 1506 1576 1382 1606 1423 973 268 0 15 74 148 452 750 1243 1499 1537 1477 1292 1157 1023 963 1018 894 581 131 93 64 15 34 15 23 0
677 642 685 934 698 810 728 717 744 569 405 281 13 0 0 0 0 0 0 0 0 0 1 63 481 587 439 430 383 485 226 610 610 492 66 30 48 13 42 0 0 0 0
491 672 271 440 473 530 534 499 355 348 124 34 1 0 0 0 8 21 18 0 0 19 67 9 9 15 13 30 60 74 44 17 203 89 59 52 88 30 16 2 0 0 1
879 743 664 280 201 247 334 174 106 9 0 0 4 0 0 7 15 28 43 32 29 80 109 62 9 11 16 5 16 27 98 201 84 75 93 44 25 7 0 0 0 2 0
217 370 432 347 109 33 1 2 2 4 4 8 19 19 11 1 5 8 7 13 24 19 38 33 128 93 46 40 31 37 45 45 81 74 70 75 65 33 0 0 0 0 0
24 15 18 5 5 0 0 0 0 0 0 0 0 1 0 2 14 14 17 30 31 14 43 9 26 34 32 46 52 50 36 43 57 90 96 69 20 6 0 0 0 0 0
46 48 120 0 1 0 0 0 0 4 2 3 5 2 0 0 0 0 0 37 44 50 18 42 18 11 35 45 55 41 27 42 68 60 43 29 2 0 0 0 0 0 0
0 5 1 0 17 0 0 0 0 0 0 0 3 6 2 0 0 0 0 0 0 31 113 127 109 87 27 28 33 39 69 81 54 33 1 0 0 0 0 0 0 0 0

GFSGL_con_mucape_039.txt.gz
CAPE
1934 1763 1998 1769 1219 1690 2132 1221 1795 1551 1624 1292 2144 2028 2031 2100 2283 2242 2191 2452 2616 2335 2060 1617 1248 935 200 72 228 77 58 5 0 2 42 94 91 96 17 19 26 118 23
2139 1921 1991 2221 2021 1391 2019 2455 970 2244 1464 2434 2454 2178 2331 2067 2057 2699 2364 2246 2184 2409 2294 1851 1390 1060 610 269 676 137 45 151 22 0 277 333 111 33 50 65 33 39 12
2257 2325 2158 2134 2371 2170 1755 1873 2589 1547 2589 1756 2802 2476 2359 2448 2493 2206 2495 2331 2190 2336 2303 2123 1675 1282 877 452 454 629 408 49 440 181 202 434 352 238 261 169 84 17 21
2217 2424 2494 2452 2415 2533 2233 1827 1628 2496 2195 3064 2284 2804 2501 2419 2366 2477 2386 2440 2390 1927 2450 2593 2278 1854 1451 1024 643 381 475 553 448 511 205 106 193 618 189 181 226 347 164
2322 2556 2604 2639 2480 2442 2458 2508 2315 1780 2535 2405 2744 2707 2806 2530 2499 2376 2487 2474 2457 2457 1996 2504 2630 2426 2067 1682 1000 708 330 356 492 158 150 217 89 431 618 313 200 197 281
2103 2436 2707 2658 2640 2435 2499 2442 2736 2711 2146 2445 2696 2476 2756 2828 2734 2560 2478 2506 2525 2593 2609 2100 2582 2703 2670 2412 2031 1555 806 214 146 562 192 64 108 183 351 385 284 262 284
1761 2278 2571 2764 2646 2673 2555 2738 2705 2910 2962 2643 2441 2795 2654 2797 2911 3004 2800 2564 2536 2653 2684 2618 2218 2442 2779 2781 2616 2400 2015 1477 868 193 313 267 99 120 319 382 294 244 109
1992 2012 2261 2649 2833 2741 2824 2714 2940 2966 3080 3194 3131 2843 3037 2944 2912 3017 3104 3038 2715 2597 2868 2836 2737 2592 2490 2729 2817 2742 2545 2309 1887 1477 365 56 166 317 548 580 463 335 198
2276 2305 2290 2762 2813 2984 2924 3082 3055 3066 3165 3207 3411 3375 3254 3230 3250 3135 3135 3193 3091 2870 2766 2852 2985 2889 2797 2783 2842 2818 2731 2601 2431 2137 1659 912 670 1007 754 738 640 535 311
2823 2961 2805 2816 2971 2931 3048 3064 3216 3328 3265 3322 3310 3550 3500 3466 3407 3391 3383 3180 3043 2936 2866 2742 2853 2933 2951 2923 2871 2781 2812 2664 2528 2388 2096 1601 1217 891 752 537 732 738 512
2525 2806 3386 3503 3336 3296 3202 3299 3409 3540 3584 3567 3624 3594 3755 3685 3615 3655 3579 3612 3364 2966 2818 2699 2663 2708 2997 3129 3079 2824 2604 2404 2325 2323 2094 1837 1450 1020 848 672 576 678 567
2901 3033 2975 3241 3250 3494 3622 3653 3790 3814 3847 3808 3837 3855 3797 3774 3864 3824 3776 3804 3672 3509 3269 3089 2883 2693 2559 2864 3151 3185 3072 2859 2581 2411 2156 1850 1630 1364 847 603 572 517 538
2915 3096 3239 3393 3375 3065 3701 3729 4097 4085 4090 4051 3988 4010 3977 3914 3880 3941 3967 3917 3888 3905 3610 3359 3270 3158 2962 2995 2752 2887 3046 3077 2846 2545 2371 2031 1913 1621 1169 799 609 478 285
3343 4270 3643 3752 4161 3647 3835 3903 3980 4219 4142 4099 4128 4078 3891 3799 3885 3909 3822 3826 3929 3918 3875 3816 3713 3550 3360 3177 2975 2630 2745 2732 2654 2655 2374 2450 2250 1627 1466 973 527 419 134
2723 4592 4291 4243 4265 4139 3693 4243 4055 3922 4054 4123 4065 3932 3997 4074 3884 3792 3768 3896 3838 3830 3810 3783 3797 3787 3655 3458 3243 3142 2957 2615 2490 2533 2436 2221 2204 1850 1623 929 408 62 1
3818 4392 4587 4101 4035 4243 4271 3793 3689 4058 3959 3866 3919 3979 3912 3795 3667 3461 3294 3109 3105 2949 2818 2800 2757 2815 2998 3104 3101 2942 2852 2740 2484 2192 1866 1735 1575 1643 1362 855 356 24 0
3395 3604 3378 3660 3783 4081 4106 4053 3873 3338 3272 3573 3862 3753 3415 3138 2966 2854 2861 2810 2719 2721 2645 2718 2777 2765 2673 2563 2602 2585 2488 2439 2306 1949 1543 1406 1357 1227 1313 774 168 35 24
3202 3212 3205 3093 2977 3540 3580 3683 4018 3815 3336 2761 2815 2965 2962 2932 2876 2755 2591 2439 2287 2173 2142 1970 1469 896 1211 1626 1918 1896 1715 1701 1583 1396 1265 1156 815 719 858 645 219 2 48
3251 2934 2985 2993 2741 3218 3361 3299 3245 3439 3344 3201 3009 2729 2596 2513 2373 2082 1726 933 319 0 0 0 0 0 0 0 76 361 715 895 953 729 732 652 374 274 378 398 1 0 21
1869 2195 2417 2112 2117 2033 1975 2165 2257 2346 2228 2113 2087 1545 272 0 0 0 0 0 0 0 0 2 2 3 2 0 0 0 12 155 279 375 738 195 111 2 81 19 0 17 14
594 513 233 162 544 98 110 797 461 48 0 0 0 0 0 0 0 0 0 0 0 0 0 2 0 1 0 0 6 0 0 1 5 14 93 121 10 5 119 45 29 6 5
253 174 117 73 45 85 61 17 0 0 0 0 0 0 1 0 0 0 0 0 0 3 1 0 0 8 16 3 4 22 21 17 43 42 1 7 0 3 14 5 1 8 6
413 258 101 46 34 8 0 0 0 1 1 1 1 0 3 2 0 0 0 2 13 9 0 0 0 3 7 7 5 0 0 9 26 11 7 3 12 0 5 18 22 13 6
570 279 357 378 49 0 0 2 0 0 3 0 2 0 0 0 0 0 0 0 0 13 17 0 0 0 0 7 11 1 3 12 42 34 26 12 4 18 32 23 1 3 13
42 40 28 7 10 2 0 0 2 4 5 3 2 0 0 0 0 0 0 0 0 0 2 2 5 7 1 2 17 11 11 8 9 7 3 2 20 63 42 9 1 0 0
37 28 50 11 3 0 0 0 0 0 0 0 0 0 0 0 1 1 0 0 0 1 0 0 0 4 2 9 5 0 14 29 19 10 14 19 23 34 32 37 25 21 4

GFSGL_con_mucape_042.txt.gz
CAPE
961 1215 1046 719 689 1611 1517 872 652 1251 1206 1083 1328 1489 1776 1754 1652 1411 1446 2185 2182 1828 1961 1724 951 640 382 135 133 107 85 23 6 0 17 35 34 27 10 98 29 19 0
1122 1302 1395 1272 933 743 1622 1949 1321 674 966 1523 1327 1470 1760 1832 1789 1619 1408 1759 2339 2200 1982 2095 1976 1553 988 401 146 96 194 66 25 23 0 321 83 98 58 23 25 32 24
1301 1339 1491 1582 1459 1133 823 1601 1904 1543 970 1262 1477 1537 1700 1781 1807 1784 1616 1662 1844 2145 2195 2213 2176 1963 1630 1134 634 91 296 302 72 43 47 119 296 140 89 45 41 44 78
1611 1615 1494 1683 1806 1636 1331 987 1820 2040 1474 1330 1745 1983 1913 1897 1799 1791 2006 1945 1796 1887 1948 2046 1929 2044 2051 1772 1263 670 208 291 439 130 136 108 176 176 59 61 65 58 152
1827 1844 1793 1639 1864 2054 1892 1565 1306 1664 2192 1777 1657 1917 2142 2140 2103 1980 1796 1868 2084 2081 1968 2045 2183 2182 2148 2062 1970 1816 1231 466 210 345 271 192 163 188 213 65 71 74 80
1849 1957 1970 2036 1905 1983 2200 2138 1848 1564 1463 2081 2176 2071 2039 2275 2300 2312 2190 2074 1989 1975 1974 1955 1909 2113 2221 2356 2383 2350 2200 1899 1204 230 194 233 173 88 179 163 111 80 105
1783 1885 2128 2148 2310 2229 2218 2285 2333 2122 1860 1456 1758 2154 2159 2360 2523 2466 2453 2358 2253 2150 2089 2054 2087 1972 2116 2156 2237 2394 2500 2484 2282 1685 1118 436 144 80 36 146 156 138 180
1649 2031 2121 2426 2394 2463 2353 2293 2270 2378 2445 2265 1818 1843 2211 2165 2345 2681 2738 2644 2478 2401 2367 2313 2252 2274 2179 2166 2284 2171 2298 2468 2575 2491 2181 1833 1308 854 360 21 49 88 182
1415 1574 2262 2394 2653 2559 2554 2455 2396 2428 2442 2608 2605 2421 2118 2176 2419 2467 2657 2799 2764 2746 2668 2629 2621 2596 2545 2476 2342 2344 2287 2140 2170 2468 2476 2313 1934 1595 1171 724 74 36 73
1767 1750 1760 2425 2563 2705 2655 2648 2627 2597 2704 2666 2707 2846 2868 2753 2617 2770 2799 2723 2616 2618 2680 2808 2855 2876 2868 2848 2778 2668 2551 2469 2352 2226 2187 2239 2316 2296 2043 1597 966 101 57
2085 1963 1925 1951 2425 2598 2737 2728 2751 2828 2729 2793 2877 2884 2978 3134 3168 3166 3093 3113 3083 3002 2951 2864 2800 2824 2873 2884 2977 3003 2771 2659 2572 2530 2479 2443 2342 2138 2042 1990 1577 848 131
2217 2377 2297 2325 2266 2545 2643 2778 2848 2826 2993 3042 2978 3034 3102 3100 3305 3374 3365 3384 3397 3411 3598 3245 3295 3414 3216 3119 3001 2872 2907 2945 2883 2807 2666 2536 2618 2534 2443 2172 1687 1267 632
2529 2583 2734 2866 2868 2823 2810 2793 2881 2979 3017 3162 3246 3283 3338 3467 3561 3566 3675 3720 3772 3805 3689 3442 3470 3340 3285 3294 3484 3514 2931 2827 2676 2656 2618 2643 2659 2414 2259 2140 1951 1507 1076
1868 3076 2819 2764 2828 3115 3222 3163 3170 3328 3385 3403 3516 3577 3621 3716 3802 3901 3877 3838 3879 3940 3976 3963 3954 3957 3965 3951 3987 3828 3684 3475 3233 3028 2772 2664 2550 2583 2345 2092 2264 1775 1532
3127 3153 3165 3630 3003 3059 3027 3257 3506 3652 3703 3799 3891 3908 3926 3909 3869 3853 3747 3772 3806 3797 3825 3905 3769 3559 3465 3427 3479 3503 3440 3437 3418 3381 3301 2981 2592 2198 2061 1954 1899 1856 1377
2831 3068 3513 4032 3684 3496 3347 3251 3621 3705 3961 3989 3969 4008 3904 3850 3814 3709 3717 3769 3506 3332 2865 2794 2844 2799 2731 2663 2562 2592 2622 2549 2428 2349 2314 2201 2044 1923 1800 1564 1280 1040 1163
2035 2809 3222 4009 3919 3917 3758 3586 3437 3700 4042 3970 3979 4025 3942 3813 3895 3740 3647 3201 3128 3013 2918 2780 2667 2498 2222 1901 1609 1845 2057 2245 2285 2085 1334 1756 1578 1393 1346 1167 997 802 536
1523 2372 2813 3313 3975 3896 3879 3813 3463 3398 3285 3338 3241 3384 3691 3796 3540 3230 3123 3024 2934 2743 2514 2302 2020 1504 345 0 0 0 0 2 8 196 685 811 960 1164 774 544 606 363 85
1395 1659 1780 2569 3055 3079 3619 4001 4034 3801 4008 3598 3173 2695 2750 2884 2952 2896 2742 2487 2264 1705 449 0 0 0 1 1 3 1 3 0 0 0 0 24 247 328 365 358 241 49 25
894 1155 1757 1639 2338 3132 3037 3478 3621 3721 3976 3701 3722 3629 2868 2558 2377 2186 1829 407 0 0 0 0 0 1 0 2 1 3 5 0 0 0 0 20 64 132 97 65 48 11 1
697 814 959 1474 2022 2292 2888 2838 2682 3185 3178 2621 2340 2043 1803 1548 1153 0 0 0 0 0 0 0 0 0 0 1 2 3 0 8 5 1 0 0 36 52 44 48 4 8 6
420 440 488 407 240 638 1307 1561 1705 1501 1520 1485 1298 905 182 0 0 0 0 0 0 1 1 0 0 0 0 5 5 4 0 1 5 14 2 0 0 0 0 0 0 0 2
628 453 449 310 174 127 72 20 2 0 0 0 0 0 0 0 0 0 0 0 0 0 3 3 0 1 2 6 4 6 5 6 5 4 5 0 0 0 0 0 1 5 7
864 377 372 316 76 15 1 0 0 0 0 0 0 0 0 0 0 0 0 0 0 0 0 6 4 5 3 4 6 5 3 5 0 0 0 8 3 6 2 0 0 3 6
743 351 365 205 86 13 0 0 0 0 0 0 0 0 0 0 0 0 0 0 0 0 0 0 0 0 2 5 6 0 0 1 4 0 0 5 13 26 24 16 4 0 2
456 305 351 206 62 85 29 2 0 0 0 0 0 0 0 0 0 0 0 0 0 0 2 0 0 0 2 3 2 0 0 1 1 6 3 6 12 12 9 5 3 7 13

GFSGL_con_mucape_045.txt.gz
CAPE
449 395 422 450 450 459 508 476 454 541 485 672 737 895 1045 1111 1362 1594 1345 1345 1323 1407 1453 1520 1118 626 615 378 136 179 264 157 60 48 19 37 62 100 42 34 23 11 28
508 542 552 601 705 829 645 590 596 677 680 431 837 972 1215 1288 1306 1460 1517 1393 1626 1620 1825 1767 1783 1701 1242 693 283 146 166 225 198 154 97 43 1 18 15 20 30 14 30
398 640 644 619 629 828 1292 1196 856 782 736 864 1067 988 1095 1311 1385 1361 1385 1542 1429 1604 1755 1959 1870 1817 1775 1760 1625 1250 252 69 160 179 188 133 82 65 31 5 9 21 1
605 576 841 920 844 654 613 1031 1389 1409 1332 1133 881 858 1171 1273 1467 1505 1527 1562 1605 1503 1692 1863 1940 1963 1881 1800 1867 1831 1576 914 50 11 151 245 151 60 66 56 38 12 1
747 808 923 1149 1168 1103 877 753 975 1351 1279 1395 1459 1240 1180 1264 1340 1453 1589 1660 1660 1626 1522 1592 1705 1823 1908 1897 1692 1586 1658 1645 1478 928 233 56 173 187 86 50 19 6 13
994 1024 1065 1129 1350 1398 1335 1223 1096 1110 1470 1213 1055 1089 1348 1509 1670 1686 1724 1662 1768 1744 1654 1631 1674 1877 1907 1925 1942 1910 1781 1759 1668 1692 1629 1298 827 163 44 59 27 15 17
1365 1352 1374 1353 1386 1572 1662 1627 1484 1318 1197 1562 1535 1227 1283 1396 1744 1965 2003 1949 1985 2006 1867 1734 1750 1757 1832 1879 1905 2048 2051 2052 2078 1768 1532 1381 1173 1035 807 387 69 22 19
1634 1686 1707 1756 1650 1596 1785 1958 1899 1711 1576 1458 1389 1647 1679 1680 1718 1907 2142 2129 1999 2063 2054 2030 2036 2042 2067 2083 2082 2083 2068 2002 1856 1791 1746 1642 1595 1616 1643 1478 1127 851 598
1549 1766 1873 1924 1969 2003 1906 1928 2046 2125 2051 1894 1779 1631 1454 1693 1908 2091 2192 2267 2200 2194 2181 2224 2280 2298 2308 2350 2419 2483 2492 2468 2404 2368 2211 2055 1937 1856 1841 1863 1786 1592 1284
1454 1685 1798 1978 2113 2152 2257 2189 2143 2197 2234 2305 2325 2262 2122 1969 1760 1931 2009 2066 2020 2098 2203 2346 2430 2469 2507 2577 2675 2735 2803 2733 2571 2500 2501 2454 2452 2439 2356 2240 2119 1874 1812
1430 1387 1727 2023 2192 2302 2271 2306 2313 2317 2351 2405 2400 2413 2472 2487 2468 2485 2479 2474 2438 2492 2607 2712 2799 2864 2916 2972 2987 3112 2883 2832 3351 2833 2664 2737 2635 2574 2432 2349 2454 2055 1913
1791 1789 1854 1846 2133 2284 2476 2462 2489 2529 2541 2536 2547 2565 2609 2667 2789 2844 2883 2953 2929 2994 3063 3159 3238 3217 2932 3233 3130 3189 2978 2996 3372 2996 3243 2855 2732 2673 2581 2383 2248 2208 2036
2131 2154 2180 2138 2123 2178 2470 2557 2573 2590 2623 2660 2658 2674 2687 2789 2907 3015 3107 3148 3219 3335 3464 3516 3452 3520 3538 3435 3347 3407 3417 3402 3513 3067 3081 3235 2937 2647 2778 2821 2722 2382 2268
2468 2614 2546 2514 2489 2436 2412 2419 2495 2651 2691 2713 2789 2912 2961 3029 3153 3277 3368 3470 3550 3647 3701 3778 3796 3852 3875 3926 3974 3975 3875 3651 3453 3386 3218 3001 2774 2749 2692 2533 2428 2302 2154
2725 2789 2878 2698 2833 2749 2815 2829 2849 2883 2861 2838 2924 3004 3131 3266 3385 3497 3640 3784 3834 3843 3785 3781 3853 3881 3960 3593 3122 2868 2725 2621 2387 2156 1900 1759 1634 1441 1719 1928 1877 1767 1783
1663 2162 2800 3009 3417 3141 2850 2885 3088 3261 3262 3318 3381 3388 3477 3675 3832 3973 3945 3854 3857 3821 3808 3604 3374 3241 3261 3152 2678 2503 2027 1684 1522 1335 1171 1108 1042 1036 1141 1080 1064 980 991
1195 1496 2166 2826 3199 3626 3422 3123 2895 2792 3373 3646 3829 3912 3967 3987 4000 3791 3629 3687 3732 3610 3137 3237 3487 2709 2632 2280 1661 286 0 0 0 0 0 1 4 14 106 317 826 1022 736
782 1323 1807 2560 3029 3811 3861 3614 3317 3282 3197 3121 3595 3831 3842 3697 3673 3644 3518 3283 3282 2847 2994 2670 2486 2014 1008 1 2 3 3 1 0 6 1 0 0 4 1 2 93 134 166
1038 1373 1554 1918 2408 3112 3760 3802 3678 3189 2905 2525 2363 2673 2714 2346 2754 2698 3028 2844 3141 2753 2413 1848 698 0 3 2 2 5 3 2 3 4 0 0 0 2 5 81 24 16 52
816 882 1039 1699 2205 2574 3137 3598 3142 3195 3254 3398 3040 2979 3073 2479 2752 2580 2427 2439 2200 1584 413 0 0 0 0 0 0 0 1 4 1 4 2 0 0 0 16 3 2 0 40
470 630 660 799 1683 2309 2782 3229 3403 3305 3391 3358 2639 2726 2757 2485 2488 1926 1727 1400 659 0 2 2 1 0 8 4 4 0 3 11 7 4 1 0 1 0 0 0 0 5 7
637 547 527 515 545 850 1477 2200 2497 2287 2293 2638 2211 2356 2449 2015 1726 1263 704 8 1 5 5 3 3 6 2 4 1 4 0 0 0 3 9 7 6 0 0 0 0 0 3
652 571 447 437 459 372 357 391 486 666 765 852 937 819 747 550 322 77 0 0 0 0 0 0 3 3 5 3 5 5 1 2 0 0 7 2 2 0 4 1 0 0 0
576 543 482 491 458 324 224 183 141 81 40 3 0 0 0 0 0 0 0 0 0 0 0 0 0 0 0 0 3 3 0 0 2 0 0 0 3 1 2 0 0 0 0
576 561 565 693 504 341 213 90 31 4 0 0 0 0 0 0 0 0 0 0 0 0 0 0 0 0 0 0 0 0 0 0 1 1 0 4 22 31 1 0 0 0 0
388 454 632 623 496 266 64 214 29 8 2 0 0 0 0 0 0 0 0 0 0 0 0 0 0 0 0 0 0 0 23 21 33 25 32 28 58 79 115 102 67 47 14

GFSGL_con_mucape_048.txt.gz
CAPE
227 149 177 120 46 48 50 48 39 13 83 384 417 486 671 944 1089 1104 1276 1552 1259 1125 1187 1239 1220 844 529 510 326 99 79 136 164 159 93 47 49 62 100 183 99 54 12
337 317 289 268 166 152 150 119 124 80 34 227 487 539 781 883 1011 1112 1255 1498 1571 1351 1306 1289 1407 1457 1456 1356 1197 467 173 88 94 151 196 191 186 144 71 51 47 0 0
374 394 386 388 339 301 300 273 234 233 183 223 440 614 758 1071 1170 1106 1228 1329 1582 1668 1610 1602 1686 1517 1662 1664 1569 1503 1317 703 199 53 74 74 147 134 126 87 52 82 8
392 432 429 439 414 479 519 523 400 420 425 408 452 561 762 960 1258 1343 1307 1315 1308 1510 1687 1724 1732 1767 1781 1782 1606 1608 1510 1526 1590 1554 1220 700 210 29 25 103 134 37 28
403 506 556 515 491 518 687 973 957 573 510 479 494 556 760 979 1144 1435 1526 1492 1481 1471 1533 1699 1816 1699 1483 1609 1774 1673 1449 1459 1364 1197 1042 872 969 984 889 572 361 188 181
457 487 621 670 636 565 480 508 923 1137 934 846 815 735 713 837 856 1075 1298 1633 1659 1613 1590 1569 1671 1605 1594 1607 1625 1648 1662 1595 1354 1213 1019 1045 962 789 749 752 749 729 446
539 511 605 797 932 918 850 679 612 710 1144 1144 993 923 1030 1194 1123 1116 1212 1518 1674 1748 1771 1773 1729 1641 1545 1771 1599 1709 1821 1912 1893 1879 1708 1686 1642 1566 1463 1329 1141 1002 905
704 779 864 949 1097 1169 1212 1185 1062 858 830 1227 1332 1126 980 1037 1048 1268 1341 1376 1658 1773 1777 1850 1899 1970 1910 1906 1919 1993 1916 1970 2051 2101 2138 2202 2232 2265 2204 2127 2088 1981 1870
1050 1092 1158 1208 1205 1307 1461 1521 1490 1376 1214 1147 1213 1500 1542 1361 1077 1149 1348 1345 1622 1798 1952 1980 1955 2017 1875 1878 1909 2048 2144 2131 2208 2340 2438 2532 2524 2431 2413 2478 2421 2303 2036
1390 1449 1530 1555 1522 1471 1489 1630 1781 1839 1735 1615 1578 1481 1403 1591 1523 1544 1567 1472 1543 1742 1969 2063 1876 1930 2014 2090 2125 2216 2330 2503 2671 2751 2682 2574 2475 2401 2334 2368 2303 2225 2157
1380 1598 1707 1785 1809 1814 1788 1788 1859 1983 2098 2157 2135 2046 1948 1882 1902 1922 1958 1942 1939 2017 2028 2052 2193 2144 2381 2619 2790 2904 2860 2802 2767 2801 2863 2943 2988 2786 2710 2631 2562 2389 2148
1145 1412 1684 1793 1976 2028 2093 2225 2227 2163 2204 2257 2281 2351 2422 2445 2311 2353 2395 2457 2435 2512 2530 2560 2681 2862 3075 3201 3185 2987 2890 2849 3000 3141 3126 3066 3017 3070 2810 2862 2929 2811 2928
1379 1485 1622 1779 1969 2224 2292 2265 2338 2351 2365 2385 2428 2473 2520 2512 2546 2508 2580 2681 2765 2852 2907 2959 3103 3252 3347 3364 3363 3317 3357 3387 3712 3328 3274 3251 2940 2563 2441 2201 2320 2272 2174
1833 1829 1918 1949 2027 2124 2342 2419 2435 2498 2545 2573 2551 2567 2563 2609 2706 2671 2747 2876 3011 3126 3213 3248 3272 3361 3460 3547 3637 3695 3771 3731 3346 2887 2624 2522 2141 1746 1675 1755 1909 1887 1621
2486 2374 2348 2398 2315 2323 2350 2405 2494 2602 2589 2610 2668 2729 2867 2876 2784 2831 2948 3119 3322 3458 3563 3652 3657 3594 3578 3661 3707 3361 2862 2576 2489 2412 1625 867 872 781 781 958 900 856 728
1544 2091 2496 2680 2479 2620 2522 2518 2564 2595 2600 2655 2702 2755 2778 2904 3021 3187 3445 3677 3812 3856 3877 3900 3793 3718 3658 2897 3136 2689 2459 2376 1426 28 1 1 52 2 7 8 12 36 14
581 800 1194 1989 2634 2999 2665 2738 2738 2643 2909 2972 3023 3038 3240 3475 3632 3717 3848 3887 3788 3642 3540 3640 3624 3217 3006 2580 2185 2355 1444 15 4 6 0 1 5 8 2 0 0 2 2
658 1155 1255 1423 2127 2751 3179 3033 2854 2699 2676 2736 3163 3522 3685 3964 4007 3633 3595 3412 3098 3331 3183 2847 3052 2807 2018 2099 1158 0 2 3 1 2 8 7 0 2 0 6 7 8 0
599 1315 1379 1717 1895 2613 3471 3746 3544 3244 3053 3065 2993 3195 3523 3426 3316 3166 3266 3102 2919 2755 2621 2507 2142 2034 1134 5 1 2 3 6 3 2 5 13 0 35 5 2 0 0 0
646 670 847 1246 1843 2437 3315 3392 2984 2570 2378 2315 1803 1585 1595 1479 2799 2536 2321 2580 2600 2142 2148 1991 1206 171 0 1 2 2 2 1 4 5 9 7 7 4 2 0 0 0 0
645 650 655 946 1592 2041 2494 2980 2560 1816 2043 2050 2077 2122 2067 2097 2576 2367 2218 2176 1975 1757 1252 765 90 4 3 0 6 3 2 0 12 1 3 3 3 1 3 0 0 0 0
304 621 687 639 926 1343 1881 2431 2875 2729 2752 2385 2067 2425 2553 2182 1936 2236 2063 1576 1481 1167 699 67 6 7 4 3 4 4 3 2 1 3 1 1 1 5 4 2 0 1 0
237 508 715 653 519 955 1480 1590 1760 1819 1666 1654 1659 1329 982 1065 1242 1166 1228 1059 761 411 66 0 4 3 4 0 3 1 1 0 0 0 0 4 3 2 2 0 0 0 3
536 563 592 621 509 423 610 723 702 610 576 567 499 403 319 234 142 49 11 0 0 0 0 0 0 0 0 0 0 0 0 0 0 0 0 0 0 0 2 0 0 0 0
262 409 483 540 494 446 488 383 183 141 126 79 13 0 0 0 0 0 0 0 0 0 0 0 0 0 0 0 0 0 0 0 0 0 0 0 1 13 25 9 8 2 0
5 42 171 425 327 381 378 403 54 140 74 55 22 0 0 0 0 0 0 0 0 0 0 0 0 0 0 0 0 0 0 0 0 3 7 2 9 31 76 75 61 27 37

GFSGL_con_mucape_051.txt.gz
CAPE
883 932 1083 955 838 818 962 1147 1481 1093 1110 1319 1616 1732 1880 1999 2127 2374 2297 2240 2570 2585 2414 2408 2498 2390 1837 1420 1108 893 757 630 635 605 698 652 935 1147 945 827 756 860 630
976 1033 1031 1227 1144 922 1278 1048 1384 1617 1178 1343 1585 1801 1824 1815 1941 2171 2100 1746 2352 2660 2673 2562 2432 2271 2454 2310 1824 1754 1435 1198 843 1688 1214 913 1384 1320 1350 1311 934 421 524
996 736 981 1161 1067 1327 1413 1281 1465 1369 1387 1139 1281 1846 1880 1825 1884 1982 2051 2156 2239 2399 2734 2775 2673 2568 2655 2367 2571 2259 2016 1773 1346 1032 1094 938 963 824 1043 1362 1028 1221 643
801 871 1216 1301 1337 1313 1579 1687 1313 1766 1685 1415 1502 1846 1845 1873 1920 2017 2095 2239 2372 2344 2611 2798 2818 2829 2876 2933 2864 2859 2683 2515 2433 2028 1792 1664 1575 1676 1045 902 870 842 777
1240 1224 1322 1465 1533 1624 1760 1860 1745 1853 1860 1913 1686 1698 1662 1594 1449 1881 2081 2251 2418 2510 2547 2709 2726 2571 2250 2509 2719 3478 3196 2600 2271 1948 1809 1697 1665 1642 1787 1477 1371 1375 1502
1440 1451 1579 1708 1748 1815 1917 2037 2122 1916 1880 2212 2004 1807 1683 1381 794 949 1642 2185 2537 2620 2625 2668 2748 2023 1875 1718 1671 1655 1951 3444 2838 2544 2300 2386 3423 2695 2358 2212 2078 1906 2224
1607 1712 1926 1965 1944 1981 2063 2225 2349 2318 1986 2177 1857 1859 2136 2258 1034 926 1046 1910 2420 2667 2869 2738 2516 2092 2011 2524 2173 1821 1654 1678 1669 2963 3475 3529 3692 3712 3676 3102 3230 2801 2488
1748 1828 2053 2135 2092 2142 2158 2215 2351 2201 2504 2314 2099 2301 2352 2322 1403 931 809 1386 2524 2941 2990 2843 3018 3137 2913 2575 2784 2840 2967 3016 2471 1860 2146 2892 3457 3766 3815 3711 3744 2941 2399
1837 1917 2009 2154 2224 2304 2311 2302 2160 1958 1984 2247 2243 2354 2493 2550 1462 1208 1091 1705 2048 2845 2948 2897 3081 3161 2612 2253 2544 2965 3361 3366 2352 2246 2150 2279 2672 2658 2548 2540 2494 2383 2341
1967 2040 2061 2124 2293 2457 2539 2643 2674 2358 2247 1798 1894 2485 2144 2732 1823 1227 1040 1582 2146 1964 2753 3054 2010 1956 2231 2066 2210 2606 3299 2937 2921 3268 3498 2970 2827 2699 2645 2743 2658 2677 2650
1802 1782 2126 2425 2515 2649 2875 3017 2688 2599 2724 2538 2430 2746 2526 2311 2703 1779 1397 1655 1907 2098 2067 2066 2205 1800 1851 1806 1901 2935 3140 3110 3034 3356 3266 2890 2994 3138 3008 2833 2852 3205 2678
2672 2625 2825 2869 2278 2219 3045 2884 2766 3030 2989 3026 2914 2802 2680 2689 1927 1955 1685 1739 1938 2606 2731 2731 2977 2307 2381 2580 2790 3000 3066 3025 3005 3026 2969 2881 2977 3122 3050 2882 3230 3105 2320
2985 3177 3008 2944 2842 3300 3003 3052 2689 3046 2767 2879 2899 2931 2949 3013 3160 2440 2156 2255 2285 2328 2603 2605 2550 2671 2808 2962 3048 3037 3116 3230 3292 3270 3227 3041 2896 2524 2844 2611 2652 2974 3148
2521 2855 2945 2868 2970 3134 2812 2861 2879 2933 2945 2940 3064 3096 3119 3217 3288 3366 2708 2446 2484 2594 2651 2716 2790 2908 2971 3007 3041 3190 3344 3419 3378 3291 2883 2429 2491 2267 1426 910 664 628 566
2246 2161 2354 2406 2478 2872 3045 2748 2941 3404 2985 3146 3216 3287 3346 3425 3419 3167 3319 3333 2922 2742 2920 3060 3108 3147 3178 3196 3235 3372 3479 3421 2820 2575 2186 2241 1120 370 301 234 146 132 138
2285 2575 2470 2253 1721 2201 2884 2287 2547 2617 2621 2734 2841 3024 3363 3068 3103 2961 2783 2878 3038 3282 3434 3466 3514 3612 3596 3609 3480 3452 2662 2622 2118 2142 1826 89 9 8 28 15 20 58 81
918 1240 1529 2590 3559 2880 2923 2281 2277 2245 2421 2477 2508 2622 2762 2878 2889 2998 3145 3336 3517 3652 3777 3799 4125 3731 3609 3610 3315 2545 2610 1975 2069 338 34 2 5 3 1 11 46 29 0
892 859 1236 1569 2413 2752 2626 2378 2435 2260 2361 2429 2465 2723 2825 2977 3222 3484 3591 3704 4598 3864 3792 3375 3322 3127 3304 2591 2423 1915 2009 1289 3 6 8 6 9 7 49 4 7 5 4
789 966 1388 1796 1775 2511 2481 2780 2759 2501 2343 2425 2552 2628 3238 3412 3506 3606 3571 3542 3324 3321 2883 3031 3134 2468 2611 1914 1885 1785 101 5 6 7 0 1 29 106 48 13 13 7 0
500 491 540 1576 1481 2311 2916 3443 3591 3341 3145 2997 2983 3044 3311 3426 3668 3133 3048 3015 2791 2579 2351 2938 2118 2253 1933 1850 691 15 16 10 12 8 4 2 5 23 9 13 10 22 7
321 786 515 1122 1329 1655 2364 3277 3618 3017 2800 2702 2652 2110 1860 1886 1509 1680 1842 2119 2271 2049 2472 2309 2017 1841 1098 349 0 17 17 19 19 25 27 23 30 28 28 23 17 16 20
312 332 715 840 894 922 1483 2080 2517 2369 1943 1696 1570 1581 1869 1611 1761 1527 1616 1761 1447 1705 1461 1341 1195 895 553 216 1 0 0 1 0 0 0 7 5 14 7 7 6 16 0
0 278 483 539 656 636 923 1195 1528 2080 2002 2116 2284 1933 1801 1699 1813 1580 1364 1090 1134 994 1230 1128 964 740 410 71 0 0 0 0 0 0 0 0 22 8 4 6 2 8 0
4 115 328 350 670 709 736 742 893 1048 1389 1701 1361 1351 1499 1386 1001 807 782 790 844 573 249 58 14 0 0 0 0 0 0 0 0 0 0 0 6 12 6 9 6 0 3
1 241 501 549 627 686 645 761 738 786 775 763 578 482 402 286 172 103 67 17 0 0 0 0 0 0 0 0 0 0 0 0 0 0 0 0 0 4 40 78 49 9 7
0 187 217 118 320 550 580 528 542 481 367 217 129 64 18 13 2 0 0 0 0 0 0 0 0 0 0 0 0 0 0 0 0 0 0 0 0 4 3 29 54 84 107

GFSGL_con_mucape_054.txt.gz
CAPE
1713 1855 1815 1557 1543 1598 1609 1686 1860 1745 1598 1840 1443 1324 1332 2032 2236 2527 2323 1999 2719 2805 2462 2209 2790 2833 1974 1160 1072 1033 923 853 816 587 494 718 1678 1943 1634 1489 1287 1334 931
1806 2303 2039 1999 2136 1537 1806 1743 1891 2036 1852 2000 1879 1676 1481 1745 2244 2561 2438 1748 2229 2552 2765 2759 2655 2249 2980 2818 1786 2006 1671 1780 1068 2518 1605 808 1831 2123 1896 2005 1720 1202 877
1657 1318 1465 1640 1693 2083 2065 1798 2264 2068 2110 1890 1964 2008 1816 1702 2145 2488 2555 2281 2099 2322 2538 2786 2777 2822 2859 2419 2308 1996 1928 2132 2403 2059 1910 1482 1422 1588 2076 2916 2851 2293 1483
1190 1204 1793 1733 1943 1642 2490 2600 1989 2491 2303 2203 2187 2128 2028 1744 1668 2087 2251 2403 2313 2313 2545 2630 2950 3150 3269 3407 3374 3289 3204 3025 2831 2364 1950 1622 1408 1817 1666 1781 1948 1766 1644
2007 1303 1918 2499 2357 2522 2832 2882 2522 2678 2403 2339 2330 2297 2155 1883 1349 1933 1982 2053 2359 2442 2445 2792 2918 2861 2687 2980 3290 4365 4637 3382 2404 1906 1693 1615 1612 1689 2297 2043 2353 2360 2610
2480 2211 2497 3033 2958 3031 3195 3335 3357 2964 2859 2836 2331 2397 2309 1819 930 794 1233 1805 2088 2498 2634 2751 2879 2376 2415 2327 2306 2254 2199 3779 4600 3089 2321 2379 4340 3599 2760 2722 2551 2840 3319
2809 2718 2937 3208 3248 3326 3356 3522 3447 3442 3020 3289 2516 2573 2997 2769 1276 767 715 1493 1767 2534 3272 2738 2525 2030 2449 2938 2349 2085 1955 1826 1683 2684 3637 3844 4287 4474 4953 4982 4156 4178 4281
3160 3001 3131 3359 3374 3521 3561 3626 3740 3143 3331 3155 2852 3299 3341 3097 1769 1311 835 1631 2355 2703 2928 2838 3460 3227 2731 2233 2602 2760 2893 3153 2871 2515 2648 2896 3058 3215 4136 4247 4356 3701 3657
3176 3210 3310 3397 3423 3277 3350 3426 3186 3262 3093 3081 2910 3235 3278 3548 1893 1608 1374 1755 1845 2887 2899 3182 3438 3570 2839 2385 2800 3272 3245 3174 1879 1863 2031 2127 2174 2368 2768 2731 2792 3061 3254
3039 3133 3308 3343 3499 3483 3479 3748 3763 3138 3210 2819 2876 3260 2691 3369 2562 1851 1485 1858 2354 1971 3056 3668 2230 2192 2471 2261 2798 2858 3418 2579 2357 2776 2912 3023 3515 3491 3227 3073 2887 2723 2973
2292 2351 2985 3432 3705 3670 3983 3942 3829 3220 3314 3397 3102 3539 3832 3151 3324 2221 1821 2278 1917 1931 1815 1613 1806 1494 1847 1723 1697 3066 3041 2576 2641 3433 3955 4001 4012 3825 3807 4085 3546 3131 2883
2867 2823 3442 3586 2796 2714 4029 3548 3412 3586 3676 3872 3580 3206 2864 3067 2363 2563 2258 1941 1875 2396 2268 1717 2317 2024 1879 1823 1920 2155 2322 2536 2833 2948 3342 3687 3492 3484 3356 3102 3608 3817 3559
3171 3473 2887 2912 2864 3698 3727 3437 3262 3497 3266 3189 3171 3116 2977 2999 3352 2512 2253 2259 2058 1799 2497 2482 2690 2862 2892 2742 2602 2725 2865 3006 2962 3039 3059 3190 3320 3017 3041 3081 3109 4060 3451
2905 3008 3071 3149 3081 2913 3033 3190 3109 3102 3157 3055 3163 3149 3172 3243 3418 3699 2930 2614 2324 2041 2078 2215 2497 2630 2756 2906 3049 2882 2939 3010 3059 3263 3283 3078 3064 2610 2743 1873 842 656 563
2934 3012 3213 3234 3162 3345 3454 2947 3242 3627 2804 3294 3203 3361 3467 3552 3577 3471 3719 4021 3332 2446 2412 2793 2943 2927 3080 3356 3563 3426 3603 3128 3294 3415 3451 2556 2695 2217 1759 497 524 511 501
2673 2684 2762 2834 3128 3204 3381 2772 2555 2690 2745 2787 2880 3033 3614 3238 3327 3265 3221 3342 3370 3107 2898 3380 3204 3288 3369 3292 3338 3318 3458 3503 3438 2834 2405 2042 1979 1101 480 404 326 323 371
2345 3043 3058 2539 2824 3095 2837 2927 1970 1811 2109 2676 2726 2889 3130 3503 3059 3221 3026 2916 3022 3016 3826 3530 3819 4060 3538 3461 3415 3517 3317 3153 2646 2433 1956 1864 557 412 259 264 178 400 366
1440 1430 2470 2130 1488 1337 1252 1122 1091 1259 3023 3042 2453 2599 2641 2649 2672 2762 2867 3007 3058 3117 3303 3510 3649 3642 3332 3592 3615 3276 3082 2476 2026 1780 1745 393 419 367 168 56 336 411 231
1227 1362 1899 1708 1423 1813 2480 2199 1392 2514 3271 3206 2421 2350 2463 2636 2716 2935 3388 3773 3701 3625 3635 3375 3604 3677 3353 2970 2792 2887 2471 1962 1865 1443 341 221 193 126 64 50 258 2 2
623 524 1027 1890 1914 2073 2182 2250 2693 3483 3493 2813 2062 1974 2355 2674 3025 3260 3688 3674 3502 3250 3372 3470 3354 3132 2676 2862 2291 2044 1749 1748 943 110 79 41 27 53 75 53 133 3 29
85 507 561 1258 1719 1746 2090 1969 2314 2527 3140 2917 2315 2741 2815 2740 3030 3296 3439 3602 3072 3018 2520 2292 2203 2172 1946 2378 1500 1617 1736 555 2 33 24 3 16 16 71 40 27 4 8
83 94 565 873 1252 1220 1184 2140 2708 2890 2499 2179 2342 2643 2535 2275 2023 2097 1567 1810 2138 2040 1623 1594 1717 1613 1730 1601 1701 1352 612 172 33 0 5 6 12 2 11 4 10 8 8
0 0 76 490 1050 699 799 728 1543 2358 2228 1906 1900 1684 1558 1432 1470 1392 1307 1412 1495 1542 1561 1341 1283 1184 1182 1149 1052 887 661 387 118 0 0 0 11 8 22 17 34 21 13
0 4 153 329 343 513 613 391 377 786 1735 1456 1474 1488 1672 1641 1462 1385 1329 1376 1206 1011 857 729 678 794 814 599 416 218 29 0 0 0 0 0 1 14 14 28 90 42 30
0 11 6 120 149 161 349 507 497 425 550 829 979 983 896 975 856 844 684 550 493 426 388 276 142 12 0 0 0 0 0 0 0 0 0 0 0 2 12 40 55 49 48
0 0 0 0 70 239 346 404 436 421 442 528 604 477 360 314 187 101 32 3 0 0 0 0 0 0 0 0 0 0 0 0 0 0 0 0 0 0 1 0 16 72 90

GFSGL_con_mucape_057.txt.gz
CAPE
2428 2604 2323 2367 2248 2316 2995 3125 3334 2862 3267 3041 2668 2304 2271 2357 2785 3881 3639 2641 2746 3285 3005 2531 3519 3844 2112 1320 960 844 815 790 754 710 617 1360 2715 3289 2664 2422 1773 2260 1477
2270 2768 2484 2676 2249 2098 2314 2909 3319 3400 3029 3488 3141 2931 2432 2099 2970 3568 2624 2300 2691 2782 2926 3505 2553 2232 3997 3922 2319 3596 1923 2367 1172 2675 1751 1601 2871 2961 3191 3513 1987 1742 1883
2085 2004 2481 2485 2495 2250 2850 2700 3127 3476 3721 2432 3266 3532 3039 2417 3145 3457 3639 3268 2975 3032 2988 3319 3228 3529 4145 2836 3631 2216 1623 2341 2355 2163 2299 2148 2239 2116 2623 3450 3612 3134 2269
1301 1554 2219 2591 2622 2515 2976 3141 3237 3531 3722 3615 3693 3655 3370 2961 2772 2733 3208 3399 3353 2821 3163 3288 3382 3700 4176 4536 3838 4493 3716 3315 2543 2330 2352 2414 2464 2846 2405 2283 2596 2660 2687
1932 1835 2149 2670 2840 3074 2873 3348 3317 3566 3654 3841 3954 3817 3673 2856 2078 2842 3170 3324 3636 3308 3274 3432 3307 3292 2612 3646 3240 4051 4127 3745 2712 2795 2570 2245 2041 2089 2778 2592 2717 3206 3627
2424 2123 2277 2927 3115 3084 3043 3317 3600 3703 3842 3976 3885 3911 3801 2191 1436 1222 1968 2736 3338 3583 3691 3682 3738 2452 2243 2174 2393 2490 2491 3927 4722 3208 2608 2514 3618 3493 3140 2999 3386 3224 3534
2865 2842 2791 3099 3214 3232 3276 3531 3730 3837 3964 4176 4061 3980 4029 3906 1605 1175 865 2212 2916 3302 3632 3798 3280 1881 2637 3722 2707 2350 2351 2273 2109 2966 3416 3548 3716 4121 4589 4651 3437 3933 4536
3121 3526 3074 3532 3438 3563 3711 3764 3952 3985 4002 4124 4168 4208 4201 3964 2434 1562 1092 2153 2289 2855 3517 3678 3987 3719 3716 3463 3988 3768 3524 3696 3466 2639 2718 3308 3978 4226 4454 4089 4193 4191 4322
3697 3393 3606 3494 3839 3903 3903 3970 4098 4127 4138 4095 4170 4312 4379 4263 2392 1989 1504 2021 2166 2922 3123 3202 3577 4082 3479 2671 3323 3554 3901 4082 2310 1759 1939 2706 2929 2717 2090 2664 3022 3729 3764
3627 3525 3828 3732 4025 4052 4123 4240 4279 4208 4179 3612 3926 4310 3995 4506 3419 2261 1779 2253 2449 2153 3218 3586 2499 2288 2705 2757 3286 3714 3880 4056 3820 3370 3312 2713 2583 2764 3458 3488 3618 3491 3781
3509 3738 4120 4036 4173 4293 4450 4439 4451 4387 3724 4296 4167 4267 4393 4051 4334 2785 2225 2811 2145 2237 2125 1926 2239 1928 1893 1698 1822 3486 3530 3638 3208 3092 2920 3581 3847 4320 4166 3813 4192 4243 3863
3695 3892 4138 4295 3696 3648 4488 4483 4478 4474 4495 4703 4540 4367 3599 4540 3240 3255 2721 2238 2342 2625 2264 1248 1736 1064 1231 1612 1696 1565 1578 1725 2161 2520 2987 3416 3837 4179 3922 3997 4337 4443 4501
4059 4115 4171 4252 4226 4238 4424 4590 4076 4442 3503 3546 3409 3165 2928 2841 3551 2692 2668 2628 2398 2140 2478 1588 1631 2267 2417 2262 2347 2498 2692 2557 2590 2981 3458 3707 3676 3816 3148 2933 4320 4540 4665
4219 4253 4288 4192 4197 4189 3790 3755 3442 3258 3264 3111 3051 2922 2733 2548 2234 2708 2425 2326 2479 2306 2052 2002 2178 2254 2618 2871 3187 3138 3028 3063 3357 3658 3962 3701 3218 3338 3181 3178 3089 1249 732
3992 3807 3934 3504 3436 3948 3774 3369 3344 3638 2899 3200 2716 2450 2204 2742 2739 2858 3196 3436 2901 2387 2381 2685 2552 2589 2912 3296 3799 3877 4029 4042 3862 3691 3447 3092 3388 3121 3459 2321 1438 788 701
3222 3394 3136 3077 3471 3469 3429 2569 2650 2648 2494 2411 2504 2487 3033 2810 2763 2913 2889 3226 3593 3510 2770 3015 3269 3384 3566 3612 3832 4008 4007 3781 4129 3256 3319 3448 3129 2646 2014 1346 746 641 634
3351 3409 3407 2844 3433 3890 3759 3110 2717 2599 2648 2589 2575 2642 2713 2936 3102 2941 2902 3178 3234 3493 3638 3643 3645 3885 3770 3868 3900 3787 3851 3736 3324 3426 3183 2770 2236 1988 1516 689 615 512 713
2450 2714 3512 3247 3195 3551 3523 3451 3191 2826 2261 2634 2185 2243 2293 2528 2621 2747 2771 3015 3065 3085 3855 3660 4302 4035 4460 4273 3840 3502 3119 2871 3271 2759 2402 2114 1600 1441 721 721 468 530 738
2073 2154 2323 2727 2857 2832 2833 2216 1140 1098 1482 1360 1625 1830 2263 2290 2316 2399 2416 3045 3511 3699 3445 3762 3695 3637 3336 3306 3084 3139 3014 2562 2260 2048 2310 1751 1495 606 575 416 304 103 111
1236 1765 1714 1856 1297 1418 1253 1374 1013 1059 836 381 363 1319 1197 1939 1802 2222 2348 2813 3818 3724 3059 2780 2876 2968 2854 2969 3319 2836 2726 2389 2042 1960 1836 1594 681 225 313 286 240 182 174
378 708 913 1680 2082 1310 1595 1137 1429 1958 2252 2611 2287 1388 1506 2018 1906 2023 2363 2675 3037 3336 2493 2568 2528 2543 2568 2154 2265 2269 2137 1833 2232 1338 1465 711 118 72 234 210 426 110 6
0 64 325 1295 1235 1644 1696 1638 1930 2237 2299 1958 2233 2386 2066 1969 2207 2220 2417 2528 3032 2982 2831 2485 2250 2112 2019 1925 1787 1859 1907 1724 1351 1445 929 288 125 38 72 119 21 84 125
0 0 0 629 986 804 1037 1006 1397 1644 1747 1713 1927 1905 1954 2254 2346 2321 2565 2737 2510 2399 1749 1452 1716 1470 1173 1172 1271 1265 1357 1322 1261 920 620 412 316 84 5 6 43 89 78
0 0 6 288 467 402 473 508 849 1744 1703 1744 1775 1867 1566 1587 2162 1903 1513 1517 1412 1314 1412 1398 1307 1503 1574 1014 839 722 768 784 826 705 560 309 25 0 10 25 25 25 68
0 14 1 33 16 5 201 269 169 198 893 1591 1106 1625 1747 1525 1345 1390 1482 1445 1362 1243 1230 1156 926 760 675 559 484 315 83 1 0 0 0 0 0 0 6 19 27 25 32
0 0 0 0 0 2 2 16 134 295 257 223 840 1276 1282 1343 739 824 720 718 545 466 380 272 203 125 58 3 0 0 0 0 0 0 0 0 0 0 0 0 0 0 15

GFSGL_con_mucape_063.txt.gz
CAPE
589 885 323 73 606 853 512 223 957 731 1381 1988 1918 2309 2135 1877 2073 2011 1426 1736 1502 1290 1374 1700 1735 1514 1113 1498 2423 2037 1396 813 756 676 1131 1395 1116 965 776 1133 1245 1243 1437
813 709 965 331 97 647 594 587 200 857 877 1931 2061 2041 2043 2055 2162 2094 1911 1604 1761 1836 1677 1884 2055 1992 1736 1638 2030 1877 1821 1978 1755 1158 860 819 1607 2100 1963 1819 1888 2015 2021
1108 865 1042 941 253 204 250 470 610 1048 676 1900 2063 1972 1894 1769 1718 2071 2131 1849 1742 1899 1919 2227 2010 1936 2347 2560 2593 2287 2304 2084 2638 2393 2171 2247 2365 2007 1858 2057 2106 2103 2357
1374 1430 1152 1079 1010 302 179 36 826 575 1893 1103 2071 1697 2013 1575 1754 1881 1953 2076 2075 1858 2276 2066 2094 2142 1974 2118 2377 2516 2349 2333 2162 2135 2179 2180 2525 2463 2306 2132 2426 2424 2324
1517 1577 1483 1301 1114 1071 572 400 1 1041 760 2062 1463 2299 1835 2058 1731 1637 1826 2175 2178 2116 1950 2007 2330 2169 2493 2617 2673 2741 2815 2805 2773 2765 2756 2928 3328 3018 2500 2392 2287 1692 1833
1169 1615 1610 1457 1386 1280 1184 900 695 167 1418 838 1529 1731 2302 2096 2046 1808 1553 2060 2398 2208 2206 2220 2203 2352 2315 2382 2489 2802 2922 2973 3035 3228 2944 2537 2412 2175 2050 2051 1846 2078 2419
913 1426 1534 1529 1499 1431 1340 1192 1268 1019 781 1702 1348 1511 1751 2095 2192 2160 1846 1429 1590 2310 2335 2218 2255 2217 2308 2364 2247 2106 1941 1786 1886 2067 2054 2010 2008 2031 2075 2162 2080 2343 2539
983 1037 1472 1531 1481 1564 1452 1397 1187 1217 1023 739 1437 1775 1912 1968 2352 2279 2132 1725 1453 1513 2220 2399 2258 2165 2190 2124 2035 2133 2186 2087 1967 1892 1920 2158 2395 2462 2582 2317 2299 2602 2882
1398 1244 1416 1445 1639 1693 1534 1501 1370 1457 1430 1157 1499 1729 2013 2108 2302 2500 2289 1849 1509 1483 1646 1778 2227 2381 2326 2309 2115 2095 2549 2903 3124 3175 3066 2858 2662 2519 2527 2447 2634 2588 2530
1450 1632 1531 1478 1607 1685 1735 1474 1657 1390 1413 1771 1531 1874 2044 2102 2241 2442 2482 2194 1684 1366 1357 1648 2066 2059 2072 2089 2147 1997 1937 1761 1590 1835 2034 2130 2374 2591 2729 2427 2109 2671 3069
1845 2071 1867 1693 1529 1761 1755 1832 1623 1795 1700 1667 1976 1904 2080 2279 2303 2417 2575 2402 1783 1307 1325 1203 1322 1466 1502 1469 1682 1895 2245 2441 2538 2519 2522 2720 2832 2429 2121 2496 3140 3145 3543
1605 2184 2330 2232 1753 1864 1883 1886 1909 1812 1909 1898 1928 2122 2092 2250 2395 2608 2594 2592 2369 1915 1440 1266 1171 1410 1602 1578 1523 1526 1501 1435 1680 2034 2324 2302 2182 2140 2404 2667 3776 3720 3594
2346 2496 2319 2475 2330 1957 2205 2048 2078 2066 2061 2074 2113 2148 2268 2332 2585 2696 2758 2838 2626 2419 2057 1759 1622 1635 1655 1738 1843 1931 1891 1746 1582 1493 1448 1436 1974 2646 2779 3411 3547 3480 3134
2424 2678 2777 2517 2703 2299 2600 2288 2299 2272 2354 2262 2360 2373 2390 2405 2655 2823 3050 2982 3011 2941 2664 2294 1895 1800 1750 1691 1665 1668 1257 1173 1267 1286 1487 2232 2760 2936 3453 3582 3466 2932 3147
2174 2601 2804 2673 2882 2771 2500 2846 2625 2614 2553 2534 2504 2508 2484 2770 2625 2902 3086 3129 3107 2870 2875 2720 2406 2122 1892 1828 1887 1847 2160 2272 2130 2146 2504 2864 3070 3472 3538 3256 2857 2945 2652
2251 2690 2739 2869 2971 2852 2678 2678 2984 3010 2928 2834 2769 2839 2769 2802 2948 2712 3032 3167 2977 2892 2614 2484 2355 2225 2103 2002 1899 1909 2478 2563 2676 2849 3066 3095 3233 3436 3339 3003 2738 2274 1710
2000 2866 3367 3213 3158 3053 2935 2614 2684 3118 3149 3078 3071 3006 3031 2985 2640 3011 2880 2606 3161 3021 2578 2135 2123 2384 2435 2065 1899 1817 1670 2881 3003 3212 3362 3621 3563 3320 2864 2510 1821 1614 1673
1378 1777 2329 3100 3123 3055 3056 2987 2680 2504 3020 3083 3081 3142 3023 2702 2803 2427 2498 2155 2096 2226 2339 1910 2277 2599 2581 2434 2306 2527 2957 3255 3556 3632 3558 3301 3111 2822 2501 1876 1513 1488 1382
1056 1270 1678 2340 2476 2455 2670 2791 2813 2677 2348 2717 2879 2745 2955 2466 2572 2357 2338 2415 2348 2234 2065 2299 2604 2546 2529 2935 3037 3089 3382 3428 3195 2951 2647 2566 2586 2153 1685 1288 1310 1348 1222
703 503 679 1321 1942 2209 2078 2129 2461 2569 2476 2539 2749 2284 2402 2493 2397 2227 1931 2202 2453 2267 2074 2107 2085 2700 3155 3215 3150 2978 3033 2973 2747 2539 2181 2012 1769 1430 1308 1288 1224 1124 890
451 570 689 913 1001 1416 1654 1584 1839 2118 2395 2351 2400 1933 1634 1706 1550 1320 899 1443 1709 2002 2025 1273 745 87 141 2059 2310 2324 2118 2273 2515 2422 1779 1564 1459 1289 1256 1228 783 654 802
429 140 201 315 395 941 860 1388 1379 1536 1553 1544 1382 1489 1196 672 1075 1677 1504 1256 1086 1408 1443 1042 241 5 35 615 1155 1698 1504 1400 1425 1374 1082 1202 967 889 959 1089 1101 690 382
79 160 193 67 245 392 636 675 811 971 962 830 614 424 218 216 257 606 877 828 790 845 1022 855 833 439 656 1197 1318 1147 979 1507 1484 1141 891 903 836 817 590 587 584 579 424
24 125 51 207 280 465 384 415 401 491 452 478 255 212 213 368 350 383 282 491 570 792 1029 939 800 877 784 968 1040 1289 1091 856 816 698 512 447 656 195 232 289 177 74 13
39 78 104 57 31 17 91 59 63 94 37 70 80 109 91 274 427 516 378 315 292 477 652 772 789 782 1074 1063 637 374 352 323 580 341 378 618 697 145 67 0 0 0 0
0 6 22 5 0 0 0 1 23 28 67 120 171 75 87 210 344 225 227 361 342 424 525 517 516 494 478 571 654 369 182 309 276 420 253 159 33 0 0 0 0 0 0

GFSGL_con_mucape_066.txt.gz
CAPE
346 153 37 17 227 793 660 267 745 1162 1086 1116 1422 1528 1376 1222 1243 1240 1149 901 1208 1234 989 906 1225 1503 1206 993 1158 1640 1604 1462 816 558 524 1120 923 777 1835 1928 1709 1726 1859
458 356 163 0 60 339 792 540 217 811 804 1165 1350 1578 1479 1304 1318 1220 1366 1191 1164 1411 1087 972 1419 1665 1727 1634 1329 1520 1340 1348 1491 1331 1141 1851 1855 1865 1684 1650 2227 1932 2097
396 411 405 170 0 84 379 639 547 199 607 1583 1538 1723 1618 1504 1535 1601 1577 1454 1322 1399 1425 1380 1260 1534 1681 1871 1782 2063 2034 2109 2376 2441 2376 2068 1864 1697 2363 2549 1970 1917 1852
454 491 539 608 259 28 49 318 400 577 132 847 1675 1580 1519 1669 1786 1707 1733 1666 1562 1410 1365 1496 1620 1734 1666 1592 1985 1969 1908 2051 1944 1871 1825 1839 2077 2453 2824 2807 2710 1731 1550
578 664 512 703 747 450 197 17 150 266 457 301 1066 1662 1615 1460 1427 1393 1455 1558 1611 1527 1503 1550 1725 1867 1945 1734 1896 1978 2054 2120 2169 2237 2331 2385 2642 3013 2885 2315 1840 1632 1794
832 802 913 650 862 852 671 506 194 9 178 539 920 1130 1476 1610 1452 1410 1379 1449 1520 1503 1422 1490 1682 1617 1799 2083 2073 2223 2265 2277 2326 2442 2475 2539 2758 2486 1897 1757 1852 2081 2001
1097 1126 1157 1237 1017 943 928 870 763 532 81 280 593 1217 1361 1454 1506 1526 1343 1193 1431 1507 1508 1528 1625 1723 1867 1887 1989 2110 2005 2195 2503 2387 2331 2274 2010 1761 1795 2156 2271 2220 2116
751 1394 1559 1497 1439 1355 1153 1020 990 896 748 409 549 540 1057 1440 1794 1790 1623 1497 1328 1319 1594 1786 1892 1871 1845 1897 1902 1881 1883 1913 1892 1831 1810 1802 1796 1985 2481 2644 2281 2249 2201
1024 993 1164 1672 1595 1518 1433 1300 1187 1132 1043 982 580 1036 851 777 1117 1540 1813 1790 1574 1505 1427 1226 1582 1621 1711 1862 1900 1840 1800 1910 1926 2212 2520 2719 2832 2905 2570 2359 2322 2342 2421
965 1056 1065 1099 1510 1610 1509 1452 1364 1311 1217 1138 1046 857 1190 1384 1430 1458 1686 1561 1474 1549 1510 1412 1347 1497 1642 1803 1866 1828 1848 1781 1662 1520 1465 1783 2164 2168 2050 2241 2575 2501 2154
475 846 1085 976 1241 1479 1506 1476 1438 1394 1309 1240 1186 1066 879 939 1227 1506 1651 1624 1459 1321 1344 1236 1164 1224 1361 1474 1654 1430 1458 1539 1580 1636 1825 2115 2253 2224 2352 2614 2320 2317 2559
551 461 581 1495 1602 1735 1504 1542 1465 1407 1400 1308 1350 1429 1210 1276 1543 1610 1738 1876 1684 1550 1371 1138 1010 961 986 1224 1606 1789 1893 1925 1658 1500 1639 1810 1967 2004 2195 2116 2339 2496 3319
85 218 341 1000 1887 1745 1852 1686 1583 1466 1481 1523 1335 1269 1552 1603 1564 1760 1841 1867 1933 1881 1676 1521 1239 1091 1028 978 1038 1092 1129 1122 1144 1235 1275 1272 1265 1317 1630 2310 2479 3129 3408
354 146 324 856 1833 2035 1946 1935 1805 1667 1525 1524 1660 1587 1506 1598 1765 1800 1865 2057 2103 2110 2088 1990 1884 1743 1644 1613 1499 1354 1408 1505 1465 1369 1317 1361 1366 1302 1982 2548 2880 3309 3037
231 557 847 1252 1890 2210 2060 2104 2026 1922 1751 1656 1615 1620 1659 1674 1694 1900 1991 2022 2136 2237 2363 2372 2143 2079 2114 2105 1940 1646 1539 1512 1381 1203 963 935 1122 1809 2566 2773 3205 3066 2619
83 330 1104 1431 2065 2436 2432 2290 2221 2155 2038 1903 1758 1737 1767 1830 1884 1972 2048 2299 2376 2412 2300 2118 2232 2257 2239 2270 2218 2021 1783 1639 1644 1581 1664 1601 1832 2542 2786 3053 3433 2698 2524
145 148 837 1554 2384 2640 2537 2563 2426 2398 2283 2121 2022 1968 1980 2031 2058 2175 2389 2362 2543 2765 2571 2247 2183 2213 2290 2243 2086 2029 1955 1793 1747 1674 1546 1812 2401 2749 2787 2979 2903 2345 1838
82 272 530 836 1703 2516 2973 2827 2638 2508 2636 2558 2529 2411 2306 2311 2498 2553 2484 2645 2703 2571 2565 2866 2839 2789 2563 2302 2115 2420 2489 2110 1928 1732 1892 2421 2833 2956 3061 2697 2019 1760 1105
20 308 565 731 956 1524 2496 2988 2895 2717 2474 2557 2705 2824 2797 2799 2820 2824 2816 2698 2436 2420 2591 2601 2430 2144 2040 1977 1758 1745 1776 1862 1848 2251 2647 2873 3249 3171 2734 2077 1643 1167 1051
64 331 259 389 474 803 1313 1690 2024 2332 2464 2371 2239 2471 2987 2986 2794 2987 2758 2370 2296 2033 1969 1803 1601 1638 1695 1569 1300 923 981 976 1380 2161 2640 2897 2534 2381 2122 1585 1196 1020 996
230 364 470 430 512 781 557 804 1552 1846 1865 1898 1845 1673 2046 2257 2340 2333 2208 2044 2092 1812 1613 1341 1435 1539 1457 1090 711 706 317 74 66 181 861 1434 1540 1504 1393 1132 928 815 821
246 197 272 199 282 435 576 643 883 1244 1348 1423 1532 1525 1385 1671 1872 1986 1801 1637 1726 1738 963 1036 1074 823 599 123 18 29 252 101 64 92 530 1055 1279 1190 1155 999 886 644 792
53 199 196 304 341 477 598 632 555 577 956 1036 1125 1262 1206 1368 1519 1437 1225 1170 761 473 423 564 677 665 431 242 9 0 0 22 44 332 748 1116 1046 566 769 718 629 371 38
11 203 141 89 282 441 303 168 201 87 124 379 882 934 790 906 1049 900 962 685 263 316 476 442 471 406 419 507 593 396 379 377 381 528 543 606 480 703 463 360 417 230 63
41 58 182 178 98 284 86 46 117 141 236 243 386 518 367 103 73 449 260 257 82 100 259 289 320 320 448 599 497 448 381 442 430 566 496 442 549 321 273 235 180 59 3
1 2 187 75 2 19 37 3 9 45 124 127 57 49 68 18 20 87 66 90 91 68 106 151 155 96 253 249 288 370 292 266 263 142 161 151 115 102 123 33 0 0 0

GFSGL_con_mucape_069.txt.gz
CAPE
184 78 62 84 266 507 395 243 433 822 878 905 1000 1268 1355 1388 1200 1249 883 1004 1120 1226 1098 1078 1122 899 1147 893 853 1180 1234 1406 1220 1049 955 1083 1339 1747 1702 1412 2201 2368 1830
292 98 70 32 49 194 370 445 409 267 728 1055 1004 1206 1306 1383 1344 1134 1125 1038 1065 948 1199 1149 877 988 1261 1456 1423 1251 1450 1222 1256 1218 1311 1743 2048 1709 1486 2070 2514 2257 2563
326 259 89 41 5 51 135 317 408 414 185 572 874 996 1228 1240 1228 1266 1109 1096 1189 1216 1137 1446 1364 1123 1265 1576 1579 1617 1617 1923 1907 2038 2118 1842 1635 1642 2034 2415 2749 2588 1566
242 307 232 135 83 45 30 71 325 422 427 222 820 1058 1242 1254 1242 1267 1188 1225 1302 1393 1380 1299 1300 1373 1459 1420 1364 1529 1864 1874 1701 1735 1742 1844 1985 2076 2253 2526 2287 1702 1664
191 244 336 290 219 135 72 36 34 199 284 352 328 1119 1409 1375 1399 1319 1302 1368 1396 1535 1562 1508 1437 1419 1530 1665 1665 1652 1395 1651 1886 1948 1988 2043 2132 2141 2190 2388 1997 1663 1972
420 340 339 343 354 310 251 128 62 19 38 119 200 254 869 1235 1333 1384 1376 1420 1543 1530 1495 1461 1462 1459 1525 1640 1813 2160 2217 2237 2012 1945 2018 2058 2053 2112 2076 1886 1608 1809 2274
521 433 404 412 452 541 426 352 224 147 120 25 24 139 292 689 1186 1359 1294 1250 1241 1167 1138 1180 1240 1248 1330 1440 1562 1554 1727 1920 2008 2159 2158 2056 2052 1972 1778 1687 1801 2408 2386
516 608 554 585 544 571 677 552 486 416 351 268 233 103 167 355 676 1195 1382 1375 1281 1173 1165 1165 1189 1193 1298 1503 1608 1664 1698 1723 1750 1876 1863 1876 1864 1941 2162 2219 2524 2546 1971
461 737 930 845 952 841 798 767 714 672 675 664 604 508 390 257 561 918 1093 1083 1179 1186 1137 1147 1213 1322 1411 1515 1650 1732 1680 1729 1763 1678 1634 1734 1828 2001 2324 2388 2451 1988 1779
207 547 946 1308 1454 1347 1265 1239 1156 1041 991 968 922 836 761 609 470 478 1160 1000 976 1169 1231 1254 1274 1182 1268 1406 1485 1406 1380 1425 1578 1558 1527 1567 1646 1580 1549 1712 1851 1863 1919
289 339 580 916 834 864 1317 1451 1441 1380 1240 1201 1155 1064 1024 929 740 609 464 915 869 881 959 913 974 1008 1147 1283 1313 1360 1380 1390 1411 1386 1338 1347 1464 1559 1699 1822 2068 2053 2381
207 193 177 443 664 864 1393 1362 1384 1398 1359 1271 1250 1188 1128 1094 1019 871 946 820 758 837 943 917 857 955 972 997 1084 1156 1286 1401 1432 1406 1387 1504 1670 1361 1314 1515 1759 1975 2013
135 70 129 102 250 342 1212 1569 1398 1371 1509 1460 1308 1266 1152 1126 1094 1067 1038 968 1251 1253 1113 1086 1178 1200 1198 1114 966 888 884 949 1021 1170 1381 1323 1057 957 1141 1280 1285 1316 2127
0 100 102 107 191 186 825 1522 1525 1482 1478 1470 1375 1311 1235 1173 1307 1244 1172 1158 1200 1184 1235 1364 1492 1545 1582 1583 1531 1448 1354 1363 1375 1199 1059 1043 1188 1322 1056 1073 1197 1524 2491
0 26 145 112 26 336 517 1367 1662 1703 1630 1579 1539 1456 1504 1437 1405 1429 1469 1422 1427 1508 1585 1620 1646 1684 1782 1835 1846 1861 1869 1849 1793 1533 1386 1460 1322 957 958 801 1321 2390 2798
0 2 79 96 35 58 612 1018 1851 2058 1826 1619 1685 1722 1767 1737 1679 1650 1571 1651 1577 1555 1550 1600 1512 1523 1546 1587 1641 1676 1789 1976 2058 1992 1672 1425 1349 1313 1153 1168 1759 2485 2790
0 0 0 0 11 58 254 966 1554 2073 2116 2025 1895 1897 1949 1973 1899 1786 1710 1613 1711 1846 1922 1900 1806 1703 1641 1515 1524 1646 1858 1968 1967 1990 1990 1874 1819 1780 1580 1495 2223 2764 2932
0 0 0 0 0 0 39 615 1384 2076 2257 2271 2161 2095 2044 2084 2098 1985 1924 1816 1910 2075 2060 2032 1929 1945 1929 1904 1962 2159 2181 2170 2021 2144 2234 2131 2041 1676 1657 1594 2458 2843 2771
0 0 0 0 0 0 25 331 732 1792 2292 2374 2439 2332 2325 2234 2215 2163 2118 2005 2100 2201 2281 2341 2322 2029 2140 2320 2539 2477 2376 2171 1855 1903 1723 1611 1710 1555 1384 1692 2048 2469 2262
0 0 0 0 0 0 58 146 257 384 1185 2437 2486 2395 2502 2553 2383 2370 2202 2140 2230 2199 2059 1863 2290 2156 2238 2389 2363 2097 1775 1658 1634 1495 1423 1254 1182 1023 1121 926 754 1180 1732
0 0 0 0 11 36 48 281 240 525 913 1462 1871 2175 2287 2350 2195 1969 1921 1885 1930 1879 2002 1833 1819 1776 1938 1791 1470 1344 1266 1025 921 894 772 731 496 162 77 27 42 2 1016
0 0 0 0 25 112 207 124 140 265 789 780 1385 1647 1710 1858 1653 1406 1520 1685 1862 1990 1841 1531 1608 1283 1613 1598 1173 967 718 636 497 406 580 382 175 41 48 73 9 120 555
0 0 0 0 11 208 116 189 181 262 319 666 900 950 1283 1610 1467 1038 1217 1412 1523 1620 1677 1284 985 900 1114 1047 765 434 213 127 59 36 100 195 72 46 70 160 207 306 291
0 0 0 0 10 80 215 327 335 371 286 477 639 653 910 1231 990 978 992 1229 1135 1172 1241 1079 773 550 331 248 233 184 83 8 0 0 2 5 116 200 424 336 240 193 134
1 0 0 0 42 141 208 225 313 378 255 470 569 451 671 989 862 651 637 759 846 684 631 423 345 203 204 174 116 180 263 60 65 40 136 267 388 331 240 194 310 132 223
8 4 0 0 27 13 69 196 339 500 423 429 412 462 513 444 188 220 258 515 470 405 226 146 142 160 12 93 145 192 205 148 120 160 109 59 101 66 84 96 112 79 160

GFSGL_con_mucape_072.txt.gz
CAPE
215 174 65 55 45 0 0 110 343 466 733 831 988 1126 1000 910 968 1032 968 834 947 1046 1038 1011 1101 998 946 864 735 1101 1040 1100 1250 1280 1246 1294 1541 1944 2185 1879 2118 2478 2436
243 255 156 41 59 104 0 0 101 363 432 705 858 1095 1156 1062 1049 1188 1218 1073 842 884 1048 1068 1069 978 1051 1093 1296 1344 1293 1388 1419 1417 1625 1709 1758 1784 1852 2247 2292 2419 2029
242 238 232 132 4 60 108 81 90 175 222 343 641 948 1152 1193 1111 1131 1252 1204 1071 986 1023 1063 1176 1228 1230 1322 1407 1458 1570 1675 1827 1761 1774 1698 1619 1761 2117 2290 2381 2498 1670
212 253 265 229 110 0 0 39 0 57 166 242 371 651 978 1151 1168 1191 1175 1161 1154 1090 1130 1214 1335 1258 1379 1472 1343 1549 1597 1748 1784 1694 1660 1806 1827 1910 1879 1967 2511 2394 1775
295 260 225 229 156 84 0 0 8 17 21 91 206 597 907 1195 1149 1224 1236 1252 1237 1225 1263 1210 1242 1312 1308 1346 1558 1844 1613 1629 1701 1757 2048 1878 2161 2218 2440 2211 1898 1710 1911
275 275 302 260 247 170 126 36 0 0 36 0 36 323 781 950 1126 1204 1207 1321 1359 1413 1422 1368 1415 1336 1374 1384 1341 1358 1497 1982 2102 2092 2347 2086 2387 2025 2138 1897 1687 1862 1965
278 307 301 300 313 306 261 165 79 67 37 9 5 28 255 657 732 1134 1251 1337 1383 1386 1448 1500 1305 1230 1102 1414 1166 1160 1206 1352 1444 2185 2223 2308 2306 2416 2101 2069 1883 2041 2033
225 386 322 290 355 401 374 321 276 247 218 175 109 69 62 140 250 618 921 831 1247 1273 1250 1220 1273 1345 1232 1273 1391 1488 1528 1416 1333 1357 1379 1750 2206 2241 2054 1977 1749 1667 1648
199 363 517 466 436 462 510 559 448 495 522 440 352 298 255 219 192 154 443 538 794 1095 1156 1216 1213 1211 1025 1015 1336 1545 1677 1699 1379 1442 1438 1515 1565 1487 1475 1532 1422 1383 1805
296 184 689 744 765 806 659 664 597 601 633 732 751 732 705 654 618 544 425 290 330 497 877 1009 849 972 961 986 1038 1473 1531 1606 1628 1656 1194 1210 1296 1321 1303 1241 1259 1453 1974
82 197 208 706 1079 1421 1157 1133 929 873 875 1111 1152 1149 1002 978 957 929 801 625 415 357 449 575 1026 798 894 966 987 1250 1246 1381 1327 1268 1582 1454 1313 1271 1221 1245 1366 1323 1789
48 65 152 189 307 705 1114 1226 996 1290 1150 1043 1069 1167 1220 1199 1142 1090 1066 941 692 578 562 671 713 592 722 757 720 699 738 858 964 1345 1405 1252 1267 1195 1458 1559 1488 1017 1404
0 38 65 87 128 165 285 328 767 1168 1391 1341 1295 1170 1179 1318 1319 1201 1117 1067 962 756 644 504 402 508 657 693 680 666 746 754 762 772 856 1071 1170 1290 1412 1147 1195 1398 1327
0 2 0 0 85 123 78 113 233 1183 1325 1449 1515 1400 1352 1355 1317 1254 1174 1140 1035 979 900 823 748 804 898 901 960 1116 1215 1230 1128 952 949 1048 1202 1199 1014 927 1125 1551 1393
0 0 0 0 0 0 5 48 123 491 1385 1421 1495 1478 1479 1389 1408 1343 1223 1228 1174 1075 940 935 930 897 940 988 1091 1273 1426 1493 1484 1462 1450 1475 1535 1501 1225 1188 1191 1242 1644
0 0 0 1 0 4 0 27 10 131 702 1576 1461 1366 1533 1497 1443 1510 1451 1297 1370 1196 1145 1227 1189 1087 1047 1026 1869 1276 1037 1144 1294 1326 1420 1600 1703 1766 1731 1373 1179 1386 1842
0 0 0 0 0 0 0 0 9 0 197 866 1863 1836 1681 1587 1609 1557 1599 1442 1514 1388 1444 1542 1544 1467 1404 1234 1874 1793 1336 1008 975 1087 1270 1585 1746 1858 1896 1599 1374 1476 1791
0 0 0 0 0 0 0 0 0 0 10 441 861 1555 2043 1972 1902 1837 1657 1576 1549 1444 1552 1606 1648 1638 1648 1658 1964 1926 1463 1497 1388 1440 1732 1803 1862 1810 1774 1731 1717 1663 1607
0 0 0 0 0 0 0 0 0 0 0 151 463 1182 1964 2069 2185 2057 2031 2007 1821 1783 1787 1767 1704 1780 1736 1712 2012 1880 1601 1621 1835 2100 2124 2117 1959 1705 1837 1719 1715 1312 1363
0 0 0 0 0 0 0 0 0 0 0 30 144 676 1347 1844 2107 2199 2159 2136 2024 2023 2038 2043 1939 1946 1906 1856 1918 2200 1879 1949 2163 2186 2006 1906 1517 1405 1395 1431 1515 1309 1225
0 0 0 0 0 0 0 0 0 0 1 114 163 393 957 1361 2052 1968 2167 2214 2258 2181 2138 2062 2065 2013 1863 1718 1516 1765 1728 1914 2040 2056 1665 1565 1468 1316 1339 938 605 382 211
0 0 0 0 0 0 0 0 0 0 11 104 89 396 546 982 1262 1453 1548 1649 1765 1601 1729 1771 1733 1668 1780 1751 1664 1626 1373 1653 1424 1288 1055 1116 1227 858 658 497 446 308 96
0 0 0 0 0 0 0 0 0 0 0 31 42 113 243 432 666 830 1550 1506 1450 1251 1135 1237 1362 1533 1779 1715 1284 1084 1228 1464 1276 881 709 569 415 246 170 234 241 70 32
6 4 1 0 0 0 0 0 0 0 0 5 59 485 618 571 583 536 564 1065 1156 1236 926 1075 1376 1417 1495 1464 1016 943 924 690 742 536 265 153 46 29 13 34 85 240 247
10 17 10 13 28 30 19 0 0 0 0 4 260 256 476 498 507 542 428 646 973 949 911 963 1113 1224 1109 1051 918 612 318 212 122 55 12 9 12 4 38 26 85 223 184
7 12 24 57 47 60 20 12 11 16 53 48 113 269 420 515 455 414 666 802 720 775 854 824 571 552 552 398 369 304 238 200 101 39 23 10 34 120 147 144 140 153 48

GFSGL_con_mucape_075.txt.gz
CAPE
454 887 835 771 658 859 973 1252 1623 1808 1980 2034 2121 2128 2261 2334 2412 2477 2355 2104 2237 2338 2202 2305 2313 2471 1711 1643 1555 1699 1904 1731 1503 1192 1975 2193 2789 3099 2953 3144 2520 2447 2284
564 629 658 810 756 663 808 922 1176 1651 1819 2073 2195 2270 2295 2328 2403 2446 2350 1953 2195 2026 2054 2266 2136 1915 2356 2361 2158 2333 2064 2343 2178 2246 2463 2306 2692 2888 3187 3363 2835 2190 2964
495 313 202 410 726 793 901 901 988 1151 1563 1573 1919 2180 2326 2351 2409 2450 2519 2428 2393 2251 1982 2112 2141 2305 2488 2083 2454 2295 2180 2460 2590 2613 2474 2412 2538 2590 2768 2803 2916 3023 2394
377 419 408 261 262 658 1216 1253 1024 1070 1329 1410 1658 1878 2099 2397 2464 2435 2422 2517 2539 2387 2291 2167 2152 2227 2365 2644 2668 2733 2581 2644 2501 2713 2225 2155 2349 2467 2657 2120 2088 2128 2549
560 529 613 809 477 325 876 1336 1106 1098 1070 1172 1341 1473 1708 1750 1751 2190 2360 2491 2538 2444 2348 2334 2225 2010 1748 1887 2005 2356 2541 2544 2305 2349 2206 2048 1953 1850 2052 1951 1914 2188 2643
383 713 945 965 1067 1066 1175 1274 1270 1090 1079 1124 1026 1372 1408 1161 689 776 1569 2187 2383 2422 2498 2496 2426 1519 1329 1132 1159 1236 1463 2533 2438 2058 1583 1819 2778 2447 1766 1973 1945 2114 1883
575 624 730 1092 1067 1230 980 1022 1119 1268 1146 1169 1027 1024 1482 1708 841 571 912 1499 2041 2381 2521 2544 2393 1860 1818 2327 1700 1225 1158 1093 1154 2404 2454 2350 2727 2372 2588 2790 2452 2415 2359
832 679 862 854 901 1082 1116 1062 1215 912 1086 1043 984 1178 1311 1256 586 538 619 1304 2112 2315 2414 2356 2566 2639 2397 2229 2352 2256 2275 2255 1814 1249 1655 2149 2439 2567 2882 2956 2788 2715 2388
430 267 264 712 1157 1049 1124 1196 1184 977 845 799 841 984 1226 1383 353 177 244 936 1132 2172 2382 2290 2570 2505 2230 1599 1972 2161 2283 2265 1549 1382 1267 1446 1487 1317 1312 1901 2012 1886 1555
330 318 268 396 552 1225 1282 1370 1359 1378 1118 960 839 860 600 1087 565 420 317 378 994 861 1582 2053 1307 1505 1595 1374 1424 1893 2236 2098 1707 1459 1650 1348 1153 1004 961 1085 1896 1933 1602
67 128 211 202 478 695 1043 1748 1531 1693 1658 1578 1492 1392 1253 1021 982 920 791 679 637 951 1012 1007 940 688 834 929 907 2065 2216 1989 1300 1657 1499 1283 1532 1961 2112 1551 1652 1912 1711
16 17 54 96 212 267 578 793 1075 1211 1431 1702 1758 1832 1776 1632 1083 1104 1122 990 945 967 1331 1112 1194 598 537 465 529 548 985 1150 1295 1154 961 1030 1124 1266 1450 1740 2433 2174 1998
0 0 29 52 45 66 103 123 465 555 1000 1584 1763 1757 1754 1816 1841 1110 1084 1152 1090 1052 1001 1073 866 730 542 456 635 485 508 491 915 1032 1153 1211 1158 1116 1779 1927 2134 2300 2320
0 0 0 0 0 0 0 10 30 103 498 774 1577 2015 1953 1819 1945 1933 1413 1235 1200 1156 1075 999 975 896 719 638 558 492 480 838 973 1120 1266 1284 1300 1335 1470 1717 1736 1686 1723
0 0 0 0 0 0 0 0 7 27 87 577 1150 1531 1953 2140 2058 1712 1732 1861 1324 1107 1106 1046 968 1017 1182 1223 1120 1339 1331 1062 1023 1221 1492 1499 1474 1481 1573 1659 1736 1733 1800
0 0 0 0 0 0 0 0 0 0 0 21 147 503 873 1455 1569 1589 1369 1147 1009 1001 1114 1079 1378 1471 1434 1274 1201 1418 1288 1102 1510 1447 1456 1418 1497 1501 1545 1663 1769 1958 1881
0 0 0 0 0 0 0 0 0 0 0 0 0 2 478 1034 1368 1322 1255 1102 1070 1033 1327 1408 1297 1142 1149 1136 1386 1522 1458 1355 1531 1767 1445 1414 1414 1482 1608 1718 1856 2065 2054
0 0 0 0 0 0 0 0 0 0 0 0 0 0 0 488 939 1475 1276 1163 1227 1219 1286 1287 1456 1371 1491 1683 1673 1831 1977 1520 1444 1873 1737 1462 1498 1553 1640 1816 1906 2093 2133
0 0 0 0 0 0 0 0 0 0 0 0 0 0 1 226 670 1055 1575 1118 1192 1314 1442 1559 1604 1770 1760 1927 2191 2227 2004 1757 1600 1933 1977 2003 1842 1882 2000 2124 2388 1782 1788
0 0 0 0 0 0 0 0 0 0 0 0 0 3 27 108 326 626 981 1331 1355 1779 2050 1649 1836 2195 2166 2016 2174 2305 2439 2275 1612 1734 2112 2300 1831 1902 2019 1954 1879 1774 1286
0 0 0 0 0 0 0 0 0 0 0 0 0 12 20 35 262 700 1082 894 1413 1768 2446 2348 2413 2216 2169 2147 2128 2304 1878 1938 1707 1495 1800 1851 1946 2398 1931 1676 1505 1293 1129
0 0 0 0 0 0 0 0 0 0 0 0 0 0 0 24 58 212 1013 1378 1059 1258 1808 2016 2018 1984 1855 1841 1903 1841 1657 1654 1529 1436 1522 1679 1840 2148 2010 1413 1544 1156 1200
0 0 0 0 0 0 0 0 0 0 0 0 0 0 0 22 81 94 281 513 814 960 1206 1510 1602 1551 1404 1417 1429 1426 1450 1551 1681 1516 1227 1231 1651 1472 1167 929 1087 906 905
0 0 0 1 4 0 0 0 0 0 0 0 0 0 0 3 33 214 290 384 641 524 555 1089 1475 1542 1176 996 1110 1175 1355 1473 1652 1261 1066 1358 1266 994 852 929 646 276 188
0 0 0 1 7 1 2 0 0 8 6 0 0 0 0 0 69 257 523 573 556 403 322 677 799 892 999 865 789 998 1013 1208 1100 913 991 932 843 592 396 195 140 181 151
0 0 0 0 4 21 11 9 12 16 6 9 1 2 1 5 189 206 406 483 476 464 387 327 667 697 615 630 547 707 763 815 660 575 594 464 236 135 89 88 43 18 31

GFSGL_con_mucape_081.txt.gz
CAPE
2039 2136 2204 2189 2041 2262 1964 1718 1872 1688 1796 1742 2147 2618 2254 2650 2240 3207 3078 2483 2330 2047 2319 2243 2285 3447 1858 1117 872 885 1026 1213 1305 1303 1575 1924 3296 3965 3715 3768 3051 3542 1907
1860 2656 1985 2438 2478 1883 2131 1901 1888 2362 1946 1998 2352 2327 2396 2046 2608 2670 2377 1788 1873 2204 1939 2273 1936 1633 3476 3430 1980 3569 2305 3061 1919 3436 2515 1790 3269 3685 4292 4798 3116 2224 2444
1591 1777 2006 1896 1831 2014 2259 1996 2636 2377 2404 1529 2258 2867 2510 1963 2856 2882 2663 2767 2341 2316 2324 2301 2098 2535 3382 2304 2981 1879 1563 2142 2372 2227 2026 1618 1831 1813 2607 3940 4357 3229 2009
1126 1515 1648 1778 1744 1844 2396 2830 2067 2947 2629 2335 2432 2895 2575 2064 1984 2318 2848 2843 2781 2564 2492 2804 2620 2547 3199 3392 2901 3558 2855 2546 2044 1506 1406 1692 1957 2707 2106 2318 1936 1394 1441
1396 1406 1882 1773 1640 1765 1918 2267 2403 2868 2848 2890 2917 2651 2752 2091 1864 2635 2661 2846 2905 3282 2849 2900 3232 2556 1603 2285 1855 3142 3723 2870 1666 1296 1383 1449 1420 1696 2520 1788 1679 1457 1865
584 703 901 1836 1882 2080 1989 1944 1997 2245 3283 3553 3048 2995 2673 1409 680 952 1793 2980 3398 3857 3229 3231 3296 2237 1999 1756 1245 1153 1325 3087 4138 1925 1281 1155 3237 2005 1087 1059 1473 1168 1268
424 567 729 793 1129 1610 2234 2571 2341 1971 2571 3442 3320 3139 3267 3167 1248 435 776 1627 2505 3342 3593 3625 2948 1503 2338 3261 2114 1466 1211 1035 842 2645 3580 3339 3201 3635 3918 4405 3175 3070 2299
592 271 738 916 671 815 1282 1913 2304 2547 2657 2824 3144 3482 3594 3176 1795 1085 544 1761 2092 2556 2849 3509 3805 3356 3270 3066 3409 3154 2897 2942 2506 1370 1824 2583 3189 3531 3753 3334 4265 4348 3375
33 308 623 602 268 318 575 1059 1603 2422 2272 2185 2262 2947 3007 3496 2088 1487 1163 1419 1303 1971 2422 2671 2706 3388 3098 2181 2869 3341 3585 3352 1515 1961 1862 1949 1704 1317 1258 1439 1206 1169 993
0 25 13 92 130 131 129 214 441 1518 2017 2735 2017 2555 2035 2923 2403 1929 1549 1476 1850 1597 2353 2528 1502 1441 1894 2123 2707 3128 3269 3172 3371 2169 1585 1645 1618 1518 1222 1137 1427 1101 889
0 1 2 0 0 58 103 102 156 219 678 1729 2186 2603 3022 2549 2720 1719 1543 1937 1719 1672 1753 1683 1889 1176 841 826 1272 2976 2782 2851 2667 2398 2091 1776 1398 1819 2124 2079 2389 1971 1215
0 0 0 0 0 0 2 59 74 96 147 655 1662 2097 2723 2830 1986 1879 1654 1405 1519 1726 2113 1698 1891 1032 899 794 715 692 810 1087 1769 1585 1213 689 461 420 507 787 2816 3108 2432
0 0 0 0 0 0 0 0 6 104 377 383 488 1308 1552 1710 2900 1564 1503 1668 1362 1204 1869 1620 1326 1185 1123 1023 925 870 814 750 1017 1347 1570 1475 1030 465 607 1180 1914 4454 4086
13 3 0 0 0 0 0 0 0 2 9 17 86 359 578 859 2073 2216 1058 893 985 1024 1112 1012 946 946 1107 1155 1203 1169 1129 1038 1291 1483 1440 1518 1215 910 703 744 732 696 907
8 4 2 0 0 0 1 0 0 0 0 0 3 3 44 167 254 602 675 642 784 929 767 971 1786 1720 1493 1810 2006 2196 2391 1799 1380 1293 1475 1506 1433 1368 1098 1154 1146 1152 1240
8 5 0 0 0 0 0 0 0 0 0 0 0 0 2 0 9 78 153 235 388 397 328 280 2070 2194 2191 2270 2414 2526 2661 2146 2664 2331 1833 1642 1592 1567 1591 1654 1593 1639 1627
0 0 0 3 3 3 0 0 0 0 0 0 0 0 0 0 0 0 0 0 23 144 313 156 1415 2082 1856 2538 2213 2139 2275 2354 2850 2368 1995 2611 2000 1985 1623 1487 1579 1868 1848
0 0 0 0 1 9 8 1 0 0 0 0 0 0 0 0 0 0 0 0 0 5 16 134 1612 1863 1943 2019 2491 2393 2361 2707 2756 2765 2766 2486 2688 2623 2501 2548 2117 1916 1709
0 0 0 0 0 0 5 14 7 2 0 0 0 0 0 0 0 0 0 0 0 8 41 233 801 1474 2103 2528 2470 2698 2505 2352 2504 2835 2852 2672 2760 2584 2792 2861 2689 1255 1227
0 0 0 0 0 0 0 5 25 21 13 3 0 0 0 0 0 0 0 20 46 81 125 476 1250 735 1688 2438 2257 2424 2927 2828 3217 3146 2865 3524 3381 2760 2630 2830 2761 2489 2487
0 0 0 0 0 0 0 0 0 34 29 17 6 1 0 0 0 0 0 0 0 31 118 375 1077 1224 1801 2634 2497 1951 2280 2551 2934 3238 3183 3097 2977 3089 2378 2626 2703 2852 2826
0 0 0 0 0 0 0 0 0 0 0 0 24 13 0 6 4 0 0 0 0 0 89 8 77 665 1215 1242 1458 1532 1841 2427 2699 2885 3013 3022 2646 2556 2687 2246 2659 2409 2225
0 0 0 0 0 0 0 0 0 0 0 0 0 18 28 23 21 12 5 2 0 1 0 0 8 33 122 906 874 802 1255 1862 1830 2105 2323 2454 2302 2001 1925 1769 1878 1956 1966
0 0 0 0 0 0 0 0 0 0 0 0 0 0 3 4 4 8 0 0 0 0 0 0 0 0 0 40 568 674 403 420 693 1260 1383 1485 1583 1641 1652 1980 1700 1446 1451
0 0 0 0 0 0 0 0 0 0 0 0 0 0 0 0 0 0 0 0 0 0 0 0 0 0 0 0 14 44 86 239 211 444 744 951 1014 965 874 932 770 898 1022
0 0 0 0 0 0 0 0 0 0 0 0 0 0 0 0 0 0 0 0 0 0 0 0 1 0 2 4 22 98 126 192 186 235 568 741 864 701 573 692 647 526 532

GFSGL_con_mucape_084.txt.gz
CAPE
2556 2542 2512 2635 2834 3110 2956 3291 2995 2890 1683 907 0 884 2626 3131 2811 2951 2352 2162 2200 2434 2693 2629 2765 3302 2676 2471 2278 2379 2006 2382 2415 2266 2710 2943 2820 3454 3288 3885 3863 3629 2886
2350 2714 2713 2933 2561 2725 2857 2902 3271 3134 3149 2991 2355 2580 2872 2698 2540 2676 2751 2150 2319 2662 2685 2178 2398 2380 3340 3182 2723 2600 2839 2847 2697 2567 2465 2091 2176 2086 4541 4099 4156 2905 2591
2135 2565 2610 2555 2675 2674 2872 2792 3187 3171 3016 2662 2650 3165 3040 3108 3194 2956 2740 2864 2754 2285 2693 2660 2828 3115 3178 2472 3523 3000 2438 2539 2542 2609 2083 2703 2166 1868 2296 3292 4130 3863 3628
914 844 2490 2612 2584 2394 3188 3210 2957 3297 3139 3026 3019 3246 2852 3025 2993 2873 3121 3021 3377 2587 3001 2990 3222 3148 3150 3197 2980 2994 2863 2898 2430 2469 1884 1620 1587 1829 2850 3040 2758 1764 1655
464 558 890 1187 2231 2825 2865 2631 3169 3130 3096 3255 3189 2911 3226 2963 2259 2598 2870 2985 2676 2513 2868 2903 3123 3087 2522 2981 2617 2740 2672 2716 2579 2189 1809 1791 1845 2736 2190 2064 1617 2284 1510
234 377 461 567 937 1618 2326 2454 2651 2998 3259 3275 3035 3130 2817 1993 1316 1265 1670 2215 3059 2986 2534 3019 3229 2577 1956 1736 1537 1203 1124 2826 2962 3256 2588 1718 1813 2229 2496 2682 2360 1647 1455
117 148 151 352 656 996 962 1925 2310 2393 2374 2893 2991 3129 2970 3019 1946 1331 763 1957 2862 3012 2971 2950 2935 1846 1567 2672 1708 1555 1353 985 784 1101 1487 2001 2391 2387 3004 3240 2972 2814 2565
44 143 125 258 318 393 596 941 1072 1124 2252 2247 2422 2818 2888 2949 2497 2064 1609 1208 1488 2057 2218 2712 2897 2334 2468 2651 3045 2912 2108 1828 1566 1117 748 754 910 1236 1965 2036 2020 2104 2652
74 120 143 256 191 352 369 412 907 854 944 1459 2127 2287 2485 2773 2274 1912 1979 1613 1454 1460 1477 1969 2129 2140 2812 2438 1611 2302 2787 3088 2603 2166 1969 1516 1075 791 828 1217 1325 1065 769
0 0 0 0 0 56 98 77 144 543 739 691 1074 2012 2009 2159 2236 1946 1751 1839 1935 1871 1788 1709 1055 1090 1666 1306 1298 2430 2005 1742 1832 2067 1887 1357 1540 1419 1240 1154 1097 1330 1078
0 0 0 5 0 6 8 0 38 69 238 323 711 1554 2011 2011 2349 1873 1709 1602 2173 2066 1913 1786 1792 1472 1110 931 1055 1116 1456 1871 1894 1828 1964 1788 1496 1619 1600 1308 1113 1209 1055
13 4 0 1 3 0 0 0 0 0 102 296 396 807 1933 1888 1392 919 818 966 1213 1354 1769 1923 1889 1522 1239 1162 1133 869 720 755 1323 1572 1685 1518 1243 928 706 544 1508 1372 1125
7 5 23 8 0 3 8 0 0 0 9 210 220 256 215 271 409 604 730 769 781 819 801 1031 1121 1429 1223 1102 1085 1003 885 737 672 657 822 959 1088 1027 988 629 268 1935 1829
15 16 5 0 0 0 0 0 0 0 0 0 0 0 0 33 235 453 630 926 997 897 702 537 764 837 990 1005 923 894 995 1055 976 846 802 832 994 1046 1026 922 515 135 249
0 2 1 0 0 0 2 5 1 0 0 0 0 0 0 0 0 49 430 346 480 704 741 491 512 582 1603 1897 1831 1464 1557 1080 1108 1102 1029 1133 1167 1093 1041 795 545 378 623
0 0 0 0 0 0 0 0 0 0 0 0 0 0 0 0 0 0 0 4 12 19 46 175 195 475 480 466 1227 1428 1638 1469 1613 1383 1276 1193 1084 1053 1013 1118 1362 813 619
0 0 0 0 0 0 3 2 0 0 0 0 0 0 0 0 0 0 0 0 0 0 0 24 11 3 57 350 541 329 261 1236 1480 1850 1741 1771 1440 1321 901 850 845 878 1195
0 0 0 0 0 0 0 0 0 0 0 0 0 0 0 0 0 0 0 0 0 0 0 0 3 19 47 569 1222 801 512 868 1049 1434 1417 1672 1571 1598 1505 1567 1500 1186 1010
0 0 0 0 0 0 0 0 0 3 2 0 1 0 0 0 0 0 0 0 0 0 0 89 81 147 301 908 1220 1185 1587 1233 954 252 1395 1999 2037 1797 1829 1776 1777 1475 1333
0 0 0 0 0 0 0 0 0 0 1 8 3 2 14 17 5 1 9 15 46 26 18 66 178 240 483 765 392 262 268 1104 1274 1282 1209 1302 1743 1812 1988 1770 1680 1680 1451
0 0 0 0 0 0 0 0 0 0 0 0 0 0 0 0 0 0 0 0 0 0 0 0 0 97 343 621 630 553 750 951 983 1107 1185 1246 1552 1405 1581 1693 1678 1653 1737
0 0 0 0 0 0 0 0 0 0 0 0 0 0 0 0 0 0 16 9 2 0 0 83 8 0 0 2 0 106 595 665 781 833 855 1176 1418 1513 1404 1228 1432 1804 1774
0 0 0 0 0 0 0 0 0 0 0 0 0 0 0 0 0 0 0 4 3 4 11 9 0 0 0 0 0 0 0 22 644 507 713 716 883 946 1040 1315 1441 1641 1811
0 0 0 0 0 0 0 0 0 0 0 0 0 0 0 0 0 0 0 0 0 1 0 0 0 0 0 0 0 0 0 0 0 0 263 413 477 854 912 1096 1213 1403 1498
0 0 0 0 0 0 0 0 0 0 0 0 0 0 0 0 0 0 0 0 0 0 0 0 0 0 0 0 0 0 0 0 0 2 0 3 85 146 230 726 1059 994 1024
4 0 0 0 0 0 0 0 0 0 0 0 0 0 0 0 0 0 0 0 0 0 0 0 0 0 0 0 0 0 0 0 2 2 3 15 109 90 131 517 869 895 666

GFSGL_con_mucape_087.txt.gz
CAPE
1482 1568 1659 2109 1985 1996 1835 2032 1402 925 731 655 436 829 1132 1435 1523 1515 1387 1198 1554 1379 1078 1508 1108 1731 1079 1588 1730 1483 1349 1827 1441 1512 2047 1770 1219 1151 1658 1667 2433 2725 2476
1689 1828 1926 2043 2221 2281 2266 1994 1827 1071 930 1021 858 19 757 1122 1739 1516 1374 1526 1291 1186 1180 1671 1272 1450 1580 1832 1718 1422 1747 1588 2019 1496 1392 1448 1782 1956 1636 1793 2818 2810 2747
1134 1716 1722 2158 2064 2195 2189 2128 1962 1793 1259 1264 1006 1036 1209 1384 1424 1685 1393 1475 1686 1297 1215 1416 1647 1393 1632 1720 1177 1788 1789 1498 2029 1907 1679 1759 1699 1224 1030 1409 1751 2423 1840
589 840 890 1037 1086 1828 2261 2235 2214 2111 1963 1664 1792 1554 1776 1770 1891 2079 1744 1294 1339 1839 1620 1933 1858 1305 1337 1541 1532 1276 1484 1632 1679 1490 1439 1476 1342 1350 1516 1893 1538 1561 1391
198 627 240 302 475 1030 1509 2165 1970 2080 2133 2044 1923 1983 2282 1913 1763 1883 2056 1859 1882 1776 1864 1698 2053 2231 2286 2044 1825 1557 1486 1490 1572 1736 1951 2081 2097 1760 1467 1948 1584 1715 1366
152 89 96 104 335 584 910 1330 1440 1424 1499 1978 2126 2112 1958 1945 2125 1920 1839 1596 2008 1881 1651 1630 1958 2113 2393 2326 1604 1897 1750 1787 1773 1773 1798 2039 1982 1917 2042 1902 2128 1580 1262
18 32 66 114 288 393 474 738 848 999 1322 1381 1414 1552 1794 2098 1893 1457 1235 1198 1285 1708 2016 1944 1912 1632 1983 2085 1861 1546 1461 1226 1200 1047 706 594 776 801 1119 1295 1093 1374 1384
1 28 20 58 118 203 221 465 826 770 807 934 1198 1379 1557 1614 1762 1910 1899 1357 1207 1228 1240 1873 2027 1877 1956 1793 1779 2100 2089 1866 1746 1718 1548 1364 1301 1185 921 599 716 1188 1202
37 48 40 81 79 80 105 115 308 474 608 773 800 873 1092 1415 1507 1454 1506 1415 1468 1412 1261 1184 1279 1518 1884 2108 2124 2181 2161 2086 2323 2277 2160 2243 2147 1842 1359 1188 1149 1308 909
40 9 48 60 17 28 30 65 68 88 220 385 451 651 958 1106 1249 1192 1333 1347 1264 1436 1548 1535 1441 1216 1069 1096 1179 1177 980 1059 1462 1711 1730 1494 1831 1915 1663 1580 1375 1086 892
0 0 0 0 0 0 0 0 0 0 17 49 71 126 326 800 629 606 861 1101 1042 1110 1278 1307 1379 1453 1420 1346 1231 1115 969 875 823 798 1210 1410 1406 1306 1242 1210 1093 842 724
0 0 0 0 0 0 0 0 0 0 0 0 1 60 271 442 313 190 278 537 555 638 733 941 1006 1109 1241 1215 1319 1243 1123 1074 1083 1071 968 792 1092 1244 1218 1154 1054 1023 853
0 0 0 0 0 0 0 0 0 0 0 0 0 0 0 31 67 24 12 80 235 363 470 613 643 631 674 850 941 1182 1163 1038 967 926 936 800 698 617 745 851 872 817 735
0 0 0 0 0 0 0 0 0 0 0 0 0 0 0 0 0 0 11 5 67 185 290 468 487 458 550 460 433 721 856 881 832 801 789 928 969 918 878 840 810 794 733
0 0 0 0 0 0 0 0 0 0 0 0 0 0 0 0 0 0 0 0 0 0 81 64 162 199 212 143 306 1199 1473 1536 1446 1265 1064 938 861 876 917 923 912 940 801
0 0 0 0 0 0 0 0 0 0 0 0 0 0 0 0 0 0 0 0 0 0 0 0 0 0 0 0 2 49 337 799 1000 1158 1271 1274 1112 1175 1084 1012 1061 998 807
0 0 0 0 0 0 0 0 0 0 0 0 0 0 0 0 0 0 0 0 0 0 0 0 0 0 0 0 0 0 89 199 200 228 531 730 971 1062 1115 1030 913 850 765
0 0 0 0 0 0 0 0 0 0 0 0 0 0 0 0 0 0 0 0 0 0 0 0 0 0 0 0 0 0 167 596 738 740 380 511 376 393 529 575 555 720 856
0 0 0 0 0 0 0 0 0 0 0 0 0 0 0 0 0 0 0 0 0 0 0 0 0 1 10 21 20 62 196 493 417 539 444 111 74 51 34 39 55 506 807
0 0 0 0 0 0 0 0 0 0 0 0 0 0 0 0 0 0 0 0 0 0 0 0 0 0 0 0 15 24 44 64 179 221 278 316 228 40 2 2 496 659 592
0 0 0 0 0 0 0 0 0 0 0 0 0 0 0 0 0 0 0 0 0 0 0 0 0 0 0 2 0 8 3 0 0 65 52 128 395 518 437 315 400 388 492
0 0 0 0 0 0 0 0 0 0 0 0 0 0 0 0 0 0 0 0 0 0 0 0 0 0 1 4 0 0 0 0 0 0 0 1 139 336 266 515 404 336 451
0 0 0 0 0 0 0 0 0 0 0 0 0 0 0 0 0 0 0 0 0 0 0 0 0 4 4 8 8 5 0 0 0 0 0 0 0 0 229 320 397 399 329
0 0 0 0 0 0 0 0 0 0 0 0 0 0 0 0 0 0 0 0 0 0 0 0 0 0 0 1 3 6 4 0 0 0 0 0 0 0 0 0 27 357 436
0 0 0 0 0 0 0 0 0 0 0 0 0 0 0 0 0 0 0 0 0 0 0 0 0 0 0 0 0 0 0 0 0 0 0 0 0 2 2 1 1 0 42
0 0 0 0 0 0 0 0 0 0 0 0 0 0 0 0 0 0 0 0 0 0 0 0 0 0 0 0 0 0 0 0 0 0 0 0 1 2 2 1 2 40 63

GFSGL_con_mucape_090.txt.gz
CAPE
867 954 795 1166 1156 1058 1195 1319 1189 827 678 926 794 805 875 1166 1426 1167 1070 1031 1111 1194 1043 1252 1112 1146 1192 1099 1546 1232 1319 1379 1278 1514 1689 1488 1747 1724 1524 995 1368 1698 2429
631 976 1130 1142 1403 1275 1163 1455 1575 1161 880 705 710 435 767 974 1160 1344 1238 1273 1101 892 1325 1074 1273 1011 976 1271 1766 1073 1569 1461 1448 1437 1575 1430 1272 1232 1228 1242 1468 1699 1840
455 630 903 835 987 1323 1610 1691 1695 1534 833 681 851 757 259 444 700 1440 1513 1106 1112 1301 1280 890 1059 1253 1187 956 1300 1285 1092 1209 1416 1442 1270 1259 1132 1328 1725 1495 1395 1307 1447
167 229 309 589 930 1210 1279 1437 1331 1564 1375 1016 1017 985 855 977 1042 1067 1417 1381 1238 1095 1327 1448 1414 1424 1485 1164 1281 1257 1314 1225 1102 1209 1197 1321 1642 1860 1860 1665 1488 1238 1174
63 167 167 196 401 666 1067 1365 1619 1413 1336 1430 1349 1419 1559 1361 1412 1389 1529 1776 1665 1378 1262 1588 1741 1640 1759 1821 1861 1929 1580 1571 1345 1176 1368 1452 1268 1271 1311 1465 1586 1094 784
90 70 91 101 247 249 561 820 1006 1197 1318 1408 1473 1397 1304 1560 1914 1638 1471 1358 1621 1795 1671 1681 1606 1398 1420 1539 1649 2111 2087 1595 1479 1419 1246 1190 1087 1044 924 1178 924 740 435
77 80 58 77 95 64 133 207 413 640 905 1031 1191 1310 1404 1562 1446 1465 1458 1348 1460 1454 1280 1374 1474 1612 1614 1586 1556 1761 1828 1587 1395 1505 1392 1187 1289 1229 1027 1127 1030 747 614
75 80 37 33 42 65 107 146 182 188 388 789 966 939 945 1129 1294 1360 1361 1187 1190 1128 1049 1120 1379 1562 1696 1752 1638 1521 1593 1533 1512 1634 1602 1469 1445 1493 1576 1688 1694 1281 951
16 0 1 48 85 47 39 82 141 94 128 224 467 604 731 812 763 888 1004 1164 1154 1171 1144 1248 1305 1224 1198 1433 1380 1549 1564 1573 1706 1759 1723 1720 1809 1832 1972 1888 2064 1895 1580
82 71 62 46 64 97 108 116 108 105 92 108 152 301 304 461 710 613 719 912 1048 1079 1121 1193 1274 1374 1407 1327 1270 1210 1096 991 876 771 1000 1211 1402 1508 1583 1600 1511 1303 1076
19 0 0 0 0 6 15 17 3 14 38 72 75 95 189 236 195 173 230 373 501 705 778 753 772 1033 1138 1186 1231 1297 1313 1241 1140 1114 1126 1071 1031 1072 1108 1153 1198 1185 1086
0 0 0 0 0 0 0 0 0 0 0 1 0 39 77 165 165 137 84 156 127 142 211 320 466 515 641 793 802 851 924 988 1124 1090 1073 1040 989 946 886 999 1124 1217 1235
0 0 0 0 0 0 0 0 0 0 0 0 0 0 0 0 0 21 37 44 78 69 29 60 78 120 172 260 298 441 509 503 525 700 902 984 922 881 781 787 828 948 963
0 0 0 0 0 0 0 0 0 0 0 0 0 0 0 0 0 0 0 0 0 15 24 19 1 1 11 13 95 162 159 83 304 907 898 713 662 877 893 738 749 802 787
0 0 0 0 0 0 0 0 0 0 0 0 0 0 0 0 0 0 0 0 0 0 0 0 0 0 0 0 0 9 15 89 488 709 790 830 879 936 1051 984 968 876 758
0 0 0 0 0 0 0 0 0 0 0 0 0 0 0 0 0 0 0 0 0 0 0 0 0 0 0 0 0 0 0 3 4 8 161 348 511 746 850 648 641 773 840
0 0 0 0 0 0 0 0 0 0 0 0 0 0 0 0 0 0 0 0 0 0 0 0 0 0 0 0 0 0 0 0 0 26 74 215 424 234 496 713 812 857 884
0 0 0 0 0 0 0 0 0 0 0 0 0 0 0 0 0 0 0 0 0 0 0 0 0 0 0 0 1 11 20 21 48 94 140 130 180 266 186 118 113 169 144
0 0 0 0 0 0 0 0 0 0 0 0 0 0 0 0 0 0 0 0 0 0 0 0 0 0 0 0 0 3 24 34 26 27 8 27 103 211 92 60 53 0 0
0 0 0 0 0 0 0 0 0 0 0 0 0 0 0 0 0 0 0 0 0 0 0 0 0 0 5 0 0 0 0 0 1 5 0 1 7 9 7 102 25 8 3
0 0 0 0 0 0 0 0 0 0 0 0 0 0 0 0 0 0 0 0 0 0 0 0 0 0 0 0 0 0 0 0 1 0 0 0 0 0 0 0 38 112 148
0 0 0 0 0 0 0 0 0 0 0 0 0 0 0 0 0 0 0 0 0 0 0 0 0 0 0 0 0 0 0 0 0 0 1 0 0 0 0 0 0 0 116
0 0 0 0 0 0 0 0 0 0 0 0 0 0 0 0 0 0 0 0 0 0 0 0 0 0 0 0 0 0 0 0 0 2 2 3 0 0 0 0 0 0 11
0 0 0 0 0 0 0 0 0 0 0 0 0 0 0 0 0 0 0 0 0 0 0 0 0 0 0 0 0 0 0 0 0 0 2 1 0 0 0 0 0 0 0
0 0 0 0 0 0 0 0 0 0 0 0 0 0 0 0 0 0 0 0 0 0 0 0 0 0 0 0 0 0 0 0 0 0 0 0 0 0 0 0 0 0 0
0 0 0 0 0 0 0 0 0 0 0 0 0 0 0 0 0 0 0 0 0 0 0 0 0 0 0 0 0 0 0 0 0 0 0 0 0 0 0 0 0 0 0

GFSGL_con_mucape_093.txt.gz
CAPE
354 343 319 542 585 812 714 597 827 938 813 681 936 910 953 953 1132 1356 1052 1051 995 1076 1095 1093 1107 871 1013 1052 1449 1221 1248 1281 1160 1245 1385 1416 1237 993 987 1176 1252 1289 1467
510 617 628 602 670 760 826 868 1021 1284 945 786 864 708 662 735 897 1158 1317 1195 1075 1021 890 998 1200 1042 912 833 1375 1420 1032 1276 1183 916 991 1057 1067 917 1371 1302 1301 1103 1085
237 376 608 765 845 810 951 1036 1002 1228 1253 1110 801 689 533 632 720 909 1093 1102 1123 1021 1026 1173 1166 949 1068 1230 961 921 1063 1072 1076 1176 1061 995 977 1228 1573 1630 1445 1365 1255
90 124 211 295 352 508 716 879 1062 1153 1203 1165 929 664 767 784 492 419 692 1119 1167 1154 1119 1071 1136 1258 1249 1278 1460 1405 1492 1558 1389 1233 1114 1012 1080 1087 1057 883 943 864 702
102 64 95 133 200 302 418 492 663 1074 1132 1214 1111 987 990 962 971 1039 1151 1137 1305 1353 1278 1242 1120 1211 1418 1390 1322 1304 1414 1533 1589 1544 1191 1234 1167 1024 909 769 765 735 694
86 78 86 61 39 75 98 259 407 473 550 876 1082 1215 1208 1318 1532 1562 1425 1369 1376 1382 1297 1419 1401 1303 1399 1404 1293 1218 1292 1387 1613 1644 1277 1265 1122 1107 1025 1155 1156 1188 1169
44 45 29 42 43 49 55 74 72 135 205 396 573 766 954 1128 1242 1380 1493 1473 1389 1241 1191 1240 1252 1114 1195 1285 1395 1404 1369 1307 1439 1551 1340 1227 1304 1358 1259 1134 1091 1099 1464
89 72 78 47 24 21 36 28 46 73 78 94 250 339 570 596 856 1033 1116 1016 1199 1090 1022 979 942 980 1050 1142 1183 1212 1226 1278 1467 1483 1477 1379 1408 1555 1603 1553 1540 1495 1349
73 79 94 36 12 40 4 13 29 17 42 94 98 82 149 278 561 679 791 848 877 950 902 977 1004 1023 1146 1243 1270 1235 1162 1115 1052 1017 1117 1248 1313 1232 1147 1169 1218 1303 1243
1 2 4 12 33 7 32 33 31 25 26 45 76 116 168 121 220 290 336 357 403 530 619 668 738 843 891 1087 1129 1129 1085 1113 1153 1140 1143 1068 953 893 880 874 902 884 836
48 56 60 78 45 42 46 40 50 22 70 58 89 112 97 94 87 128 143 139 135 151 248 355 439 540 541 558 694 737 763 703 828 904 1001 1032 1025 979 990 965 909 835 789
0 0 0 0 0 0 0 0 0 0 0 34 27 38 56 84 116 96 79 74 60 108 165 178 221 219 195 234 216 210 248 277 350 473 536 566 592 629 694 712 779 783 760
0 0 0 0 0 0 0 0 0 0 0 0 0 3 12 0 0 2 14 34 16 75 90 107 136 92 31 60 79 17 1 10 70 145 238 207 256 803 831 630 581 743 855
0 0 0 0 0 0 0 0 0 0 0 0 0 0 0 0 0 0 0 0 0 0 0 0 13 14 27 20 9 1 0 0 0 0 18 53 229 336 512 645 744 823 793
0 0 0 0 0 0 0 0 0 0 0 0 0 0 0 0 0 0 0 0 0 0 0 0 0 0 0 0 0 0 0 0 0 0 0 4 38 106 141 290 361 472 713
0 0 0 0 0 0 0 0 0 0 0 0 0 0 0 0 0 0 0 0 0 0 0 0 0 0 0 0 0 0 0 0 0 1 1 5 52 107 213 254 309 281 212
0 0 0 0 0 0 0 0 0 0 0 0 0 0 0 0 0 0 0 0 0 0 0 0 0 0 0 0 0 0 0 0 9 10 23 27 18 279 90 307 481 535 340
0 0 0 0 0 0 0 0 0 0 0 0 0 0 0 0 0 0 0 0 0 0 0 0 0 0 0 0 1 2 0 15 15 1 9 5 7 7 4 29 73 40 12
0 0 0 0 0 0 0 0 0 0 0 0 0 0 0 0 0 0 0 0 0 0 0 0 0 0 0 0 0 0 0 0 17 0 0 0 0 0 2 6 7 2 1
0 0 0 0 0 0 0 0 0 0 0 0 0 0 0 0 0 0 0 0 0 0 0 0 0 0 0 0 0 0 0 0 0 0 0 0 0 0 0 0 0 0 0
0 0 0 0 0 0 0 0 0 0 0 0 0 0 0 0 0 0 0 0 0 0 0 0 0 0 0 0 0 0 0 0 0 0 0 0 0 0 0 0 0 0 0
0 0 0 0 0 0 0 0 0 0 0 0 0 0 0 0 0 0 0 0 0 0 0 0 0 0 0 0 0 0 0 0 0 0 0 0 0 0 0 0 0 0 0
0 0 0 0 0 0 0 0 0 0 0 0 0 0 0 0 0 0 0 0 0 0 0 0 0 0 0 0 0 0 0 0 0 0 0 0 0 0 0 0 0 0 0
0 0 0 0 0 0 0 0 0 0 0 0 0 0 0 0 0 0 0 0 0 0 0 0 0 0 0 0 0 0 0 0 0 0 0 0 0 0 0 0 0 0 0
0 0 0 0 0 0 0 0 0 0 0 0 0 0 0 0 0 0 0 0 0 0 0 0 0 0 0 0 0 0 0 0 0 0 0 0 0 0 0 0 0 0 0
0 0 0 0 0 0 0 0 0 0 0 0 0 0 0 0 0 0 0 0 0 0 0 0 0 0 0 0 0 0 0 0 0 0 0 0 0 0 0 0 0 0 0

GFSGL_con_mucape_096.txt.gz
CAPE
189 104 150 321 502 526 505 440 532 608 683 553 568 427 544 710 883 1112 1050 886 971 929 972 985 1080 983 870 874 1003 1316 939 1041 1167 1421 1019 1452 1470 1570 1629 1512 1242 1853 1411
211 178 201 159 318 443 448 450 608 759 726 568 464 634 667 690 684 904 1024 1079 929 889 884 825 722 908 991 781 957 1309 1162 1061 1081 1264 969 1085 1268 1272 1159 1303 1431 1300 1325
195 323 418 503 519 598 587 610 655 719 712 666 577 633 564 399 443 593 723 880 926 944 878 902 906 849 1035 965 1088 1064 906 1005 1164 1202 1222 984 1000 921 1140 1300 1303 1414 897
47 116 219 313 331 321 393 524 567 622 780 850 806 907 834 589 550 590 429 918 923 917 929 944 987 927 924 1076 978 1064 1121 1191 1303 1384 1347 1356 1067 1067 948 965 1121 1117 1061
91 60 49 68 100 85 149 211 313 476 672 883 959 897 859 810 818 787 691 799 1069 1147 1111 1243 1197 1190 1177 1196 1432 1655 1217 1239 1208 1143 1284 1348 1205 1215 1251 1192 1069 946 1007
112 78 29 47 78 71 74 67 117 216 309 349 462 680 907 891 955 1060 1151 1211 1229 1309 1562 1469 1296 1393 1360 1198 1212 1203 1239 1590 1670 1173 1563 1390 1551 1090 960 1017 1129 1212 1149
25 43 41 37 71 55 50 41 63 16 76 68 112 280 369 500 595 886 1101 1206 1268 1217 1160 1081 1015 1058 1040 1083 1036 1122 1195 1270 1266 1648 1468 1560 1389 1322 1247 1241 1260 1097 935
24 12 35 24 40 71 48 23 31 44 37 52 59 50 88 173 395 556 649 740 824 825 690 729 725 778 774 828 933 1038 1079 1089 1034 940 888 939 1155 1138 872 1030 942 731 717
29 47 36 40 21 39 20 29 14 2 9 28 48 121 66 68 133 298 376 505 518 656 669 637 546 540 600 814 699 875 954 988 1057 1035 984 964 922 882 888 837 742 680 883
42 17 149 37 3 0 3 0 0 0 2 4 45 57 63 78 98 122 176 224 233 232 260 254 286 325 333 395 455 446 480 464 582 675 670 650 762 895 973 919 891 837 836
1 0 0 0 0 10 11 21 22 13 8 17 26 42 49 55 72 77 93 97 126 114 89 79 88 132 193 240 222 229 168 188 224 260 268 306 379 472 470 563 574 607 670
1 2 0 0 0 14 10 16 24 21 12 4 16 10 31 31 47 91 99 86 62 70 118 86 89 89 119 124 153 123 81 67 94 70 57 61 138 202 267 357 717 667 516
0 0 0 0 0 0 0 0 0 0 0 0 0 0 0 0 0 1 0 0 1 4 4 0 5 56 58 69 78 91 40 11 21 15 0 0 7 28 229 432 417 514 684
0 0 0 0 0 0 0 0 0 0 0 0 0 0 0 0 0 0 0 0 0 0 0 0 0 0 0 0 7 16 18 30 15 0 0 0 18 21 44 404 315 603 397
0 0 0 0 0 0 0 0 0 0 0 0 0 0 0 0 0 0 0 0 0 0 0 0 0 0 0 0 0 0 0 1 2 12 3 10 7 6 8 54 230 163 248
0 0 0 0 0 0 0 0 0 0 0 0 0 0 0 0 0 0 0 0 0 0 0 0 0 0 0 0 0 0 1 1 5 11 7 19 35 8 2 2 11 40 74
0 0 0 0 0 0 0 0 0 0 0 0 0 0 0 0 0 0 0 0 0 0 0 0 0 0 0 0 10 16 13 4 1 0 41 26 5 3 1 4 7 5 0
0 0 0 0 0 0 0 0 0 0 0 0 0 0 0 0 0 0 0 0 0 0 0 0 0 0 0 0 0 0 0 0 0 0 25 23 32 6 5 0 0 0 1
0 0 0 0 0 0 0 0 0 0 0 0 0 0 0 0 0 0 0 0 0 0 0 0 0 0 0 0 0 0 0 0 0 0 3 11 3 13 6 0 0 0 0
0 0 0 0 0 0 0 0 0 0 0 0 0 0 0 0 0 0 0 0 0 0 0 0 0 0 0 0 0 0 0 0 0 0 0 0 0 0 0 0 0 0 0
0 0 0 0 0 0 0 0 0 0 0 0 0 0 0 0 0 0 0 0 0 0 0 0 0 0 0 0 0 0 0 0 0 0 0 0 0 0 0 0 0 0 0
0 0 0 0 0 0 0 0 0 0 0 0 0 0 0 0 0 0 0 0 0 0 0 0 0 0 0 0 0 0 0 0 0 0 0 0 0 0 0 0 0 0 0
0 0 0 0 0 0 0 0 0 0 0 0 0 0 0 0 0 0 0 0 0 0 0 0 0 0 0 0 0 0 0 0 0 0 0 0 0 0 0 0 0 0 0
0 0 0 0 0 0 0 0 0 0 0 0 0 0 0 0 0 0 0 0 0 0 0 0 0 0 0 0 0 0 0 0 0 0 0 0 0 0 0 0 0 0 0
0 0 0 0 0 0 0 0 0 0 0 0 0 0 0 0 0 0 0 0 0 0 0 0 0 0 0 0 0 0 0 0 0 0 0 0 0 0 0 0 0 0 0
0 0 0 0 0 0 0 0 0 0 0 0 0 0 0 0 0 0 0 0 0 0 0 0 0 0 0 0 0 0 0 0 0 0 0 0 0 0 0 0 0 0 0

GFSGL_con_mucape_099.txt.gz
CAPE
410 668 934 958 1374 1479 1390 1350 1622 1556 1621 1628 1528 1236 1260 1422 1772 2359 2279 1779 2074 2101 1940 2177 2273 2365 1786 1642 1801 2123 2071 1901 1579 1179 1814 1728 2374 2356 2138 2378 1906 2258 1539
634 712 706 1076 1276 1414 1489 1501 1531 1433 1687 1645 1539 1713 1781 1674 1865 2103 2056 1908 2057 1902 1706 1899 1949 1694 2303 2157 1736 2196 1940 2141 1844 1974 2097 2088 2315 2574 2658 2809 1947 1698 2161
415 774 853 912 976 1073 1313 1439 1498 1418 1782 1711 1550 1662 1783 1408 1219 1529 1806 1777 1978 1908 1842 1905 1700 1883 2257 1969 2293 2757 1783 1940 2192 2160 2173 2171 2265 2205 2286 2293 2560 2572 1838
229 294 387 757 1106 1121 1302 1233 1484 1603 1622 1822 1637 1586 1567 1198 1049 1045 1144 1588 1904 1626 1557 1872 1861 2010 2169 2197 1865 2318 1884 2405 2210 1757 1695 1837 1979 2131 2262 2186 1919 1547 1536
40 56 71 197 324 542 694 740 708 1169 1339 1612 1631 1511 1488 1289 859 1000 1135 1133 1247 1970 2058 1839 1851 1766 1295 1262 2211 2953 2203 2209 2468 1264 1471 1581 1599 1564 1864 1770 1587 1435 1821
97 88 70 81 142 258 301 291 294 366 616 723 796 891 823 990 761 771 750 1783 2083 2224 2195 2229 2105 1514 1382 1088 903 837 915 2081 2619 1571 1465 1724 2634 2443 1953 1897 1758 1592 1442
140 119 121 85 37 30 82 126 135 181 207 256 325 460 266 221 372 494 725 1452 1976 2113 1968 1805 1674 1370 771 994 1359 1170 1194 1101 979 1697 2211 2283 2271 2274 2355 2340 2079 2026 1956
118 65 51 26 14 9 56 73 55 57 47 117 334 33 1 57 221 439 494 933 1147 853 670 703 711 539 478 471 510 1218 1581 1757 1888 1566 1749 1902 2042 2007 2027 2044 2028 1728 1747
84 53 25 10 7 6 29 43 57 34 4 218 19 22 25 17 49 116 236 291 224 195 275 230 245 227 160 131 181 229 397 558 522 546 623 711 691 648 639 738 1372 1513 1649
81 46 68 99 46 12 1 40 17 2 15 6 22 53 28 5 14 43 64 57 73 74 62 47 16 10 0 2 23 51 110 96 135 143 167 265 266 234 240 445 1049 1379 1481
12 11 28 92 11 0 0 0 0 0 0 2 10 16 5 5 2 12 56 75 68 59 40 38 10 1 0 2 2 31 64 81 72 80 68 48 49 58 52 136 821 1305 1365
0 0 0 0 0 0 0 0 0 4 8 6 10 0 2 10 11 0 7 26 29 3 4 1 1 8 7 0 15 15 39 30 55 63 35 19 10 9 40 111 255 385 901
1 0 0 0 0 0 0 0 0 0 0 0 0 0 0 0 0 0 0 0 0 0 0 0 0 0 0 0 0 0 0 0 0 7 33 25 20 16 7 28 142 352 677
0 0 0 0 0 0 0 0 0 0 0 0 0 0 0 0 0 0 0 0 0 0 0 0 0 0 0 0 0 0 0 0 0 0 1 1 7 8 25 20 15 3 251
0 0 0 0 0 0 0 0 0 0 0 0 0 0 0 0 0 0 0 0 0 0 0 0 0 0 0 0 0 0 0 0 0 12 1 9 7 14 9 4 6 0 1
0 0 0 0 0 0 0 0 0 0 0 0 0 0 0 0 0 0 0 0 0 0 0 0 0 0 0 0 0 0 0 0 0 0 0 0 2 6 14 4 4 12 7
0 0 0 0 0 0 0 0 0 0 0 0 0 0 0 0 0 0 0 0 0 0 0 0 0 0 0 0 0 0 0 0 0 0 0 0 0 0 0 0 0 5 5
0 0 0 0 0 0 0 0 0 0 0 0 0 0 0 0 0 0 0 0 0 0 0 0 0 0 0 0 0 0 0 0 0 0 0 0 0 0 0 0 0 0 0
0 0 0 0 0 0 0 0 0 0 0 0 0 0 0 0 0 0 0 0 0 0 0 0 0 0 0 0 0 0 0 0 0 0 0 0 0 0 0 0 0 0 0
0 0 0 0 0 0 0 0 0 0 0 0 0 0 0 0 0 0 0 0 0 0 0 0 0 0 0 0 0 0 0 0 0 0 0 0 0 0 0 0 0 0 0
0 0 0 0 0 0 0 0 0 0 0 0 0 0 0 0 0 0 0 0 0 0 0 0 0 0 0 0 0 0 0 0 0 0 0 0 0 0 0 0 0 0 0
0 0 0 0 0 0 0 0 0 0 0 0 0 0 0 0 0 0 0 0 0 0 0 0 0 0 0 0 0 0 0 0 0 0 0 0 0 0 0 0 0 0 0
0 0 0 0 0 0 0 0 0 0 0 0 0 0 0 0 0 0 0 0 0 0 0 0 0 0 0 0 0 0 0 0 0 0 0 0 0 0 0 0 0 0 0
0 0 0 0 0 0 0 0 0 0 0 0 0 0 0 0 0 0 0 0 0 0 0 0 0 0 0 0 0 0 0 0 0 0 0 0 0 0 0 0 0 0 0
0 0 0 0 0 0 0 0 0 0 0 0 0 0 0 0 0 0 0 0 0 0 0 0 0 0 0 0 0 0 0 0 0 0 0 0 0 0 0 0 0 0 0
0 0 0 0 0 0 0 0 0 0 0 0 0 0 0 0 0 0 0 0 0 0 0 0 0 0 0 0 0 0 0 0 0 0 0 0 0 0 0 0 0 0 0

GFSGL_con_mucape_102.txt.gz
CAPE
935 815 871 928 742 1048 947 793 1097 956 1592 1799 2228 2115 1847 1679 1782 2204 2024 1577 1884 1538 1693 1866 2089 2539 1596 1127 1038 1130 1213 1205 1123 678 901 935 2208 2314 2338 2503 1660 1136 743
927 1074 925 520 819 673 1037 853 1190 1079 1472 1404 1674 2286 1790 1291 1585 2038 1725 1211 1652 1328 1278 1415 1678 1368 2197 2112 1543 1676 1836 1826 1477 1915 2177 1453 1590 2012 2172 2720 1973 1232 1419
1176 1000 1348 543 532 788 920 1019 1252 1052 1158 1264 1601 1555 1179 1666 1612 1611 1577 1639 1485 1354 1163 1261 1282 1376 1667 1422 1907 1665 1131 1530 1954 1688 1386 1060 1313 1497 1815 2342 1934 1807 982
891 1010 707 740 742 792 1035 1352 1257 1665 1013 1035 1248 1691 1414 1231 1506 1725 1595 1619 1525 1291 1506 1300 1401 1419 1607 1832 1621 1901 1806 1947 1696 1512 1158 970 974 1328 1538 1062 776 727 794
231 258 623 970 1042 1236 1223 1438 1500 1588 1228 1940 1413 1768 1819 1557 1084 1879 1916 1804 1870 1669 1687 1594 1495 1348 1012 1243 1978 2148 1925 1919 1317 1214 1030 947 824 1904 1761 1095 834 782 1318
68 38 59 143 373 764 1017 1206 1313 1528 1762 1808 1834 1794 1588 1243 714 654 690 1837 2015 1718 1666 1811 1552 1241 1417 1447 1332 1100 929 2122 2140 2080 1483 1454 2152 2194 1427 1169 1470 1381 1508
75 40 41 124 154 185 284 618 836 1043 1134 1144 1185 1172 301 253 304 359 488 1544 1950 1535 1674 1840 1591 686 694 782 791 831 1244 1370 1264 2138 2182 2183 2337 2799 2611 2594 3008 2316 2242
263 136 227 101 52 42 48 104 252 304 510 725 392 144 43 25 192 361 615 1466 1315 815 528 529 410 429 243 182 352 962 1413 1647 1690 1602 2013 2040 2163 1603 1434 2134 2093 2265 2285
181 101 125 40 36 8 15 46 73 278 322 426 103 5 24 52 58 173 269 313 305 316 194 144 63 22 0 0 0 7 46 202 111 104 166 165 141 172 226 537 1096 2413 1796
269 143 52 62 65 89 65 30 37 165 143 103 19 9 0 22 53 52 36 56 65 64 61 38 13 4 0 0 0 0 0 0 33 24 14 18 0 0 0 413 1257 1496 1854
184 116 47 61 118 50 18 0 0 14 18 6 4 0 0 19 18 51 36 33 48 40 34 18 2 0 0 0 0 0 0 0 7 21 9 3 0 7 31 169 355 345 298
199 113 20 50 95 0 0 0 0 0 32 2 0 0 4 5 3 6 2 2 7 8 7 0 0 1 0 0 0 0 0 0 5 0 0 0 0 0 0 0 29 111 429
91 39 10 6 0 0 0 5 0 0 0 0 0 0 0 0 0 0 0 0 0 0 0 0 0 0 0 0 0 0 0 0 0 0 0 0 0 0 5 16 0 3 5
19 15 9 2 3 0 0 0 0 0 0 0 0 0 0 0 0 0 0 0 0 0 0 0 0 0 0 0 0 0 0 0 0 0 0 0 0 0 0 0 0 0 0
0 0 0 0 0 0 0 0 0 0 0 0 0 0 0 0 0 0 0 0 0 0 0 0 0 0 0 0 0 0 0 0 0 0 0 0 0 0 0 0 0 0 0
0 0 0 0 0 0 0 0 0 0 0 0 0 0 0 0 0 0 0 0 0 0 0 0 0 0 0 0 0 0 0 0 0 0 0 0 0 0 0 0 0 0 0
0 0 0 0 0 0 0 0 0 0 0 0 0 0 0 0 0 0 0 0 0 0 0 0 0 0 0 0 0 0 0 0 0 0 0 0 0 0 0 0 0 0 0
0 0 0 0 0 0 0 0 0 0 0 0 0 0 0 0 0 0 0 0 0 0 0 0 0 0 0 0 0 0 0 0 0 0 0 0 0 0 0 0 0 0 0
0 0 0 0 0 0 0 0 0 0 0 0 0 0 0 0 0 0 0 0 0 0 0 0 0 0 0 0 0 0 0 0 0 0 0 0 0 0 0 0 0 0 0
0 0 0 0 0 0 0 0 0 0 0 0 0 0 0 0 0 0 0 0 0 0 0 0 0 0 0 0 0 0 0 0 0 0 0 0 0 0 0 0 0 0 0
0 0 0 0 0 0 0 0 0 0 0 0 0 0 0 0 0 0 0 0 0 0 0 0 0 0 0 0 0 0 0 0 0 0 0 0 0 0 0 0 0 0 0
0 0 0 0 0 0 0 0 0 0 0 0 0 0 0 0 0 0 0 0 0 0 0 0 0 0 0 0 0 0 0 0 0 0 0 0 0 0 0 0 0 0 0
0 0 0 0 0 0 0 0 0 0 0 0 0 0 0 0 0 0 0 0 0 0 0 0 0 0 0 0 0 0 0 0 0 0 0 0 0 0 0 0 0 0 0
0 0 0 0 0 0 0 0 0 0 0 0 0 0 0 0 0 0 0 0 0 0 0 0 0 0 0 0 0 0 0 0 0 0 0 0 0 0 0 0 0 0 0
14 1 0 0 0 0 1 2 7 7 1 1 0 0 0 0 0 0 0 0 0 0 0 0 0 0 0 0 0 0 0 0 0 0 0 0 0 0 0 0 0 0 0
6 2 7 1 0 0 0 5 6 11 14 13 9 5 1 0 0 0 0 0 0 0 0 0 0 0 0 0 0 0 0 0 0 0 0 0 0 0 0 0 0 0 0

GFSGL_con_mucape_105.txt.gz
CAPE
1055 950 833 661 586 781 599 708 974 948 1148 1403 1665 1708 1590 1898 1903 1978 2823 1968 1989 1772 1707 1667 1455 2207 1670 1327 1404 1068 677 705 874 1017 847 1239 3369 3012 2019 2408 1524 2606 966
1194 1295 1124 955 689 523 649 647 1079 1234 1390 1430 1794 1654 1367 1691 1785 1978 2284 1278 1416 1507 1465 1545 1533 1086 1933 2859 1715 3361 1789 2270 951 2851 1810 1483 2690 1739 1593 3441 1532 1071 1277
1370 1305 1831 991 827 715 572 664 911 1291 1312 1439 1415 1415 1559 1680 1399 1769 2020 1516 1578 1217 1134 1372 1453 1530 1865 1782 2083 1833 1188 1839 2114 1670 1052 752 1212 1473 1979 3008 3259 2902 889
758 1249 1823 1441 900 941 1971 778 910 1405 1375 1219 1663 1884 1652 1554 1629 1432 1588 1760 1738 1437 1475 1862 1849 1520 1705 1946 1878 2437 2359 2177 1656 1593 1334 1387 1596 2259 3063 1167 1152 762 893
412 884 836 1885 1530 1413 1386 1611 946 1018 1141 1210 1217 2236 1377 1338 788 1282 1519 1721 1963 1789 1421 1479 1585 1176 1010 1056 1347 2475 2492 2138 1371 1317 1096 893 1113 1759 1422 1031 1365 1203 1810
364 515 951 1104 1189 1479 1413 1396 1416 1283 1257 1308 1337 1527 1463 1302 449 548 803 1815 1717 2067 2073 1564 1237 1619 1480 1304 1250 1105 1208 2321 2270 1860 1533 1358 3015 2001 1745 1822 2121 1649 1669
291 280 272 350 240 386 644 1095 1161 1186 1269 1431 1262 1300 1220 716 392 382 515 1130 1703 1993 1861 1854 2011 802 1054 1211 1060 820 855 884 964 1852 2370 2698 2586 2892 2502 2994 2727 2588 2014
674 365 256 144 161 227 177 235 364 598 927 942 824 321 160 102 154 325 457 1442 1823 1576 1544 1273 1105 536 320 185 76 775 965 1359 1610 1305 1804 1161 1099 611 420 994 1907 2181 2259
570 528 379 296 166 44 34 60 97 247 433 272 170 109 71 60 85 227 414 1174 582 373 281 253 190 156 87 39 23 65 91 107 3 3 0 3 0 0 1 11 442 1992 2178
389 181 57 113 3 10 1 14 13 27 58 99 95 96 82 22 10 20 95 328 430 106 67 74 58 42 14 2 0 0 0 0 0 0 9 0 9 25 1 49 612 508 547
380 313 209 114 55 79 20 28 2 35 123 122 96 54 18 2 3 28 23 20 32 45 25 24 21 1 1 0 0 0 0 0 0 0 0 0 33 91 129 85 583 71 15
347 308 193 150 61 138 6 3 9 3 38 15 19 25 5 0 0 1 5 4 12 30 39 11 4 1 1 0 0 0 0 0 0 0 0 0 0 0 0 0 299 21 1
379 200 119 131 23 75 0 0 0 5 46 22 1 0 0 0 0 0 0 0 0 0 0 0 0 0 0 0 0 0 0 0 0 0 0 0 0 0 20 9 1 2 4
286 215 247 58 4 0 0 0 0 0 0 0 0 0 0 0 0 0 0 0 0 0 0 0 0 0 0 0 0 0 0 0 0 0 0 0 0 0 0 0 0 0 0
94 14 8 5 3 5 0 0 0 0 0 0 0 0 0 0 0 0 0 0 0 0 0 0 0 0 0 0 0 0 0 0 0 0 0 0 0 0 0 0 0 0 0
4 0 0 0 0 0 0 0 0 0 0 0 0 0 0 0 0 0 0 0 0 0 0 0 0 0 0 0 0 0 0 0 0 0 0 0 0 0 0 0 0 0 0
0 0 0 0 0 0 0 0 0 0 0 0 0 0 0 0 0 0 0 0 0 0 0 0 0 0 0 0 0 0 0 0 0 0 0 0 0 0 0 0 0 0 0
0 0 0 0 0 0 0 0 0 0 0 0 0 0 0 0 0 0 0 0 0 0 0 0 0 0 0 0 0 0 0 0 0 0 0 0 0 0 0 0 0 0 0
11 0 0 1 4 0 0 0 0 0 0 0 0 0 0 0 0 0 0 0 0 0 0 0 0 0 0 0 0 0 0 0 0 0 0 0 0 0 0 0 0 0 0
0 0 0 0 0 0 0 0 0 0 0 0 0 0 0 0 0 0 0 0 0 0 0 0 0 0 0 0 0 0 0 0 0 0 0 0 0 0 0 0 0 0 0
0 0 0 0 0 0 0 0 0 0 0 0 0 0 0 0 0 0 0 0 0 0 0 0 0 0 0 0 0 0 0 0 0 0 0 0 0 0 0 0 0 0 0
0 0 0 0 0 0 0 0 0 0 0 0 0 0 0 0 0 0 0 0 0 0 0 0 0 0 0 0 0 0 0 0 0 0 0 0 0 0 0 0 0 0 0
0 0 0 0 0 0 0 0 0 0 0 0 0 0 0 0 0 0 0 0 0 0 0 0 0 0 0 0 0 0 0 0 0 0 0 0 0 0 0 0 0 0 0
0 0 1 0 0 0 0 0 0 0 0 0 0 0 0 0 0 0 0 0 0 0 0 0 0 0 0 0 0 0 0 0 0 0 0 0 0 0 0 0 0 0 0
3 2 0 1 0 0 0 0 0 1 0 0 1 0 0 0 0 0 0 0 0 0 0 0 0 0 0 0 0 0 0 0 0 0 0 0 0 0 0 0 0 0 0
28 4 5 11 8 5 1 0 0 0 12 8 5 8 3 1 0 0 1 2 2 3 4 2 0 0 0 0 0 0 0 0 0 0 0 0 0 0 0 0 0 0 0

GFSGL_con_mucape_108.txt.gz
CAPE
1627 1608 1895 1522 1729 1894 1957 1421 671 307 897 305 1524 2394 2266 2147 2091 2576 2507 2614 2030 2749 2702 2220 2282 2767 2688 2182 1962 1726 1452 1881 1682 1529 1174 1319 1954 3084 2648 2672 2619 1714 1572
1034 1791 1946 1604 1346 1451 1929 1563 2329 2368 2868 2261 2490 2630 2679 2523 2580 2703 2296 1986 1517 1932 2451 2630 2519 1749 2265 3254 2553 2586 2154 2603 2408 1261 2559 1051 1414 1969 3381 2784 3021 1011 1539
1214 1444 1201 1744 1773 1570 1133 1496 2395 2766 2474 2160 2462 2280 2129 2057 1864 2663 2698 2793 2109 1814 2423 2323 2286 2126 2167 2174 2712 2666 2063 2045 2295 2190 2134 1470 1283 1679 1070 1673 1902 2489 2091
961 1603 472 2054 1541 1741 1205 1658 2299 2717 2363 2508 2037 1485 2168 2348 2027 2309 2722 1986 2199 1944 1994 1814 867 1767 2186 2293 1864 2342 1890 2237 1810 1842 1567 1523 1328 1463 1007 1642 1445 1877 1645
1065 1157 627 758 1283 1801 1541 2254 1695 2024 1594 1713 1910 2025 1726 996 764 848 1732 1967 1862 1973 2706 2136 2294 1231 674 940 1614 2449 2934 2493 2224 1663 1502 1276 1488 1826 1741 1894 2062 1983 1781
421 467 707 816 773 631 783 1226 1603 1916 1754 1786 1643 1843 1378 698 442 271 509 1738 1780 1934 2025 1959 1357 1483 1176 995 1003 970 911 1693 2156 1998 1730 1614 1869 1903 1864 2034 1947 1766 1589
610 648 843 1067 725 455 593 889 796 1067 1363 1497 1709 1565 934 701 345 337 308 378 1373 2316 2479 2575 1498 752 743 980 756 626 932 1073 907 1135 1478 1642 1675 1830 1194 1052 1103 1261 1228
809 732 431 326 187 102 134 432 525 307 390 588 605 421 303 146 123 97 187 235 1608 1794 1254 1460 726 592 316 217 136 808 784 1219 623 342 550 222 58 48 15 113 280 858 1455
960 561 329 276 74 93 53 72 80 128 150 128 149 100 34 47 54 109 240 1634 868 674 425 257 257 141 130 89 44 8 59 21 4 0 0 0 12 13 1 0 319 524 622
498 409 407 355 159 25 0 11 17 57 75 72 60 20 9 26 52 84 87 533 357 108 40 56 85 70 45 6 0 0 0 0 0 0 0 5 80 28 3 4 384 85 52
367 307 260 138 43 1 5 97 11 3 3 13 15 21 39 44 62 44 57 105 119 53 2 24 41 45 31 4 0 0 0 0 0 0 0 12 1 11 3 10 285 0 0
331 368 332 304 73 19 6 31 15 8 10 35 56 82 25 21 20 9 0 14 8 6 2 7 20 20 9 0 0 0 0 2 0 0 0 0 0 0 0 0 38 0 0
522 543 475 251 78 164 19 55 4 1 7 22 108 1 14 13 13 0 0 0 0 0 0 0 0 0 0 0 0 0 0 0 0 0 0 0 0 0 0 0 0 0 0
442 435 488 393 263 177 98 109 0 0 0 9 9 0 1 2 0 0 0 0 0 0 0 0 0 0 0 0 0 0 0 0 0 0 0 0 0 0 0 0 0 0 0
276 281 171 205 258 173 47 30 1 0 0 0 0 0 0 0 0 0 0 0 0 0 0 0 0 0 0 0 0 0 0 0 0 0 0 0 0 0 0 0 0 0 0
183 154 134 91 82 92 32 9 1 0 0 0 0 0 0 0 0 0 0 0 0 0 0 0 0 0 0 0 0 0 0 0 0 0 0 0 0 0 0 0 0 0 0
43 90 86 13 5 6 0 0 17 0 0 0 0 0 0 0 0 0 0 0 0 0 0 0 0 0 0 0 0 0 0 0 0 0 0 0 0 0 0 0 0 0 0
0 0 0 0 0 0 0 0 0 0 0 0 0 0 0 0 0 0 0 0 0 0 0 0 0 0 0 0 0 0 0 0 0 0 0 0 0 0 0 0 0 0 0
1 1 0 0 0 0 0 0 0 0 1 0 0 0 0 0 0 0 0 0 0 0 0 0 0 0 0 0 0 0 0 0 0 0 0 0 0 0 0 0 0 0 0
0 0 0 0 0 0 0 0 2 4 0 0 0 0 0 0 0 0 0 0 0 0 0 0 0 0 0 0 0 0 0 0 0 0 0 0 0 0 0 0 0 0 0
0 0 0 0 0 0 0 0 0 0 0 0 0 0 0 0 0 0 0 0 0 0 0 0 0 0 0 0 0 0 0 0 0 0 0 0 0 0 0 0 0 0 0
0 0 0 0 0 0 0 0 0 0 0 0 0 0 0 0 0 0 0 0 0 0 0 0 0 0 0 0 0 0 0 0 0 0 0 0 0 0 0 0 0 0 0
0 0 0 0 0 0 0 0 0 0 0 0 0 0 0 0 0 0 0 0 0 0 0 0 0 0 0 0 0 0 0 0 0 0 0 0 0 0 0 0 0 0 0
0 2 0 0 0 0 0 0 0 0 0 0 0 0 0 0 0 1 0 0 0 0 0 0 0 0 0 0 0 0 0 0 0 0 0 0 0 0 0 0 0 0 0
13 8 15 15 7 0 0 0 0 0 0 0 1 2 0 0 0 0 0 0 0 0 0 0 0 0 0 0 0 0 0 0 0 0 0 0 0 0 0 0 0 0 0
39 21 8 23 36 19 7 0 0 0 0 0 0 9 27 5 0 5 2 2 3 1 4 3 1 0 0 0 0 0 0 0 0 0 0 0 0 0 0 0 0 0 0

GFSGL_con_mucape_111.txt.gz
CAPE
1181 822 999 1076 782 664 400 265 188 0 144 253 343 830 1110 817 1050 1198 1158 796 1103 1058 1215 1142 1000 1255 1302 990 1530 1500 1156 1502 919 682 905 882 681 958 1137 1887 1606 1884 1195
986 826 890 836 840 851 611 426 446 231 434 132 171 937 944 954 1136 969 878 1488 947 838 862 947 988 1147 967 987 1097 1384 1088 1264 914 679 926 980 921 780 617 678 1593 1688 1326
800 1004 886 800 883 675 583 647 407 488 817 895 977 883 964 1207 981 1079 1354 969 921 1202 978 1045 841 708 959 616 952 1075 682 898 717 978 1062 920 898 1141 1129 1352 1494 1581 1472
937 974 1031 894 829 817 801 355 1077 879 764 715 1097 846 817 809 713 1152 1221 1189 970 1033 1313 1136 758 561 1075 732 913 931 1305 1113 1430 1108 1152 1094 1042 1446 1364 1461 1227 1379 1248
525 663 605 617 796 755 952 499 1106 1139 930 774 808 834 507 509 458 667 819 1147 883 738 710 775 819 899 760 548 521 585 664 908 902 1111 1066 1153 1097 1164 1275 1169 1167 1347 486
346 378 383 379 389 476 461 489 542 517 483 468 595 559 406 432 336 307 318 750 882 817 864 713 562 633 754 862 802 678 561 789 840 780 942 902 999 1027 760 124 398 285 517
295 232 232 356 343 332 241 308 326 223 200 170 355 353 378 328 261 245 191 262 414 706 777 648 550 400 334 355 266 302 482 582 562 482 492 464 334 26 0 0 171 278 450
289 399 496 464 237 106 131 110 220 219 154 171 138 173 99 104 100 62 76 139 444 423 327 479 389 275 171 173 139 134 172 158 98 29 0 0 0 0 0 0 9 99 156
399 470 372 248 122 85 32 12 93 97 78 114 101 21 19 8 4 17 198 521 322 256 209 187 156 169 95 36 14 1 0 0 0 0 0 0 0 0 25 14 0 0 1
385 356 302 183 105 6 15 10 22 34 29 30 17 23 11 3 11 17 106 385 134 100 61 72 82 53 38 25 6 0 0 0 0 0 0 0 3 0 0 6 0 0 0
425 383 333 196 60 37 20 1 0 1 16 13 10 6 5 0 1 0 25 162 123 67 8 7 12 22 26 28 24 13 1 0 0 0 0 0 0 0 0 0 0 0 0
462 410 403 307 221 154 27 25 0 21 30 25 20 17 17 7 4 1 12 54 84 34 19 16 10 15 16 11 5 2 0 0 0 0 0 0 0 0 0 0 0 0 0
335 214 344 296 241 338 165 44 55 21 19 15 11 32 7 7 2 2 22 12 2 3 9 9 0 0 0 0 0 0 0 0 0 0 0 0 0 0 0 0 0 0 0
404 253 418 347 255 265 130 53 46 56 7 0 8 32 2 0 1 11 5 0 0 0 0 0 0 0 0 0 0 0 0 0 0 0 0 0 0 0 0 0 0 0 0
371 161 328 403 366 198 205 170 193 87 1 1 2 3 0 2 2 0 0 0 0 0 0 0 0 0 0 0 0 0 0 0 0 0 0 0 0 0 0 0 0 0 0
134 95 164 146 251 192 102 99 111 77 13 5 3 0 0 0 0 0 0 0 0 0 0 0 0 0 0 0 0 0 0 0 0 0 0 0 0 0 0 0 0 0 0
57 163 122 35 38 31 64 116 160 29 21 1 0 0 0 0 0 0 0 0 0 0 0 0 0 0 0 0 0 0 0 0 0 0 0 0 0 0 0 0 0 0 0
0 11 0 0 0 2 7 29 45 62 66 0 0 0 0 0 0 0 0 0 0 0 0 0 0 0 0 0 0 0 0 0 0 0 0 0 0 0 0 0 0 0 0
0 0 0 0 0 0 0 0 0 0 0 0 0 0 0 0 0 0 0 0 0 0 0 0 0 0 0 0 0 0 0 0 0 0 0 0 0 0 0 0 0 0 0
0 0 0 0 0 0 0 0 0 0 0 0 0 0 0 0 0 0 0 0 0 0 0 0 0 0 0 0 0 0 0 0 0 0 0 0 0 0 0 0 0 0 0
0 0 0 0 0 0 0 0 0 0 0 0 0 0 0 0 2 7 6 0 0 0 0 0 0 0 0 0 0 0 0 0 0 0 0 0 0 0 0 0 0 0 0
0 0 0 0 0 0 0 0 0 0 0 0 0 0 0 0 0 0 0 0 0 0 0 0 0 0 0 0 0 0 0 0 0 0 0 0 0 0 0 0 0 0 0
0 0 0 0 0 0 0 0 0 0 0 0 0 0 0 0 0 0 0 0 0 0 0 0 0 0 0 0 0 0 0 0 0 0 0 0 0 0 0 0 0 0 0
8 2 0 0 0 0 0 0 0 0 0 0 0 0 0 0 0 0 0 0 0 0 0 0 0 0 0 0 0 0 0 0 0 0 0 0 0 0 0 0 0 0 0
48 5 2 5 0 2 1 0 0 0 0 0 0 0 0 0 0 0 0 0 0 0 0 0 0 0 0 0 0 0 0 0 0 0 0 0 0 0 0 0 0 0 0
17 22 40 35 5 12 9 5 7 4 4 0 5 2 0 0 0 0 0 0 0 0 0 0 0 0 0 0 0 0 0 0 0 0 0 0 0 0 0 0 0 0 0

GFSGL_con_mucape_114.txt.gz
CAPE
445 618 427 415 445 419 397 131 25 14 0 0 119 480 692 996 709 949 950 675 735 920 931 886 678 932 1043 1323 1069 1070 1071 877 431 541 672 938 811 562 464 1403 1602 1474 1415
715 655 601 414 444 421 468 214 172 31 52 159 164 544 606 909 824 765 788 1320 753 614 544 756 764 895 881 705 799 957 768 690 563 513 744 851 930 972 1030 1166 1137 1330 1220
491 730 516 391 541 416 375 222 233 222 168 278 194 257 398 853 792 759 793 824 988 837 874 836 765 595 646 622 691 782 679 741 1016 954 785 687 1011 1177 1047 1038 925 950 888
573 710 710 534 609 465 417 437 395 227 310 330 509 554 568 523 492 563 554 1080 748 682 842 865 855 769 665 610 633 829 735 661 731 492 595 779 910 1019 1076 773 137 316 730
363 455 670 508 441 549 479 365 441 387 375 646 614 723 380 313 314 294 460 678 911 700 512 645 634 593 636 630 470 471 462 403 394 529 570 690 837 845 549 226 113 281 598
219 236 487 364 455 423 311 353 319 296 298 424 393 560 555 333 313 176 258 474 750 675 411 421 521 602 459 618 614 463 487 717 759 697 700 571 393 249 22 3 260 357 545
97 197 283 235 197 166 266 219 300 217 140 219 198 223 279 285 253 219 181 167 594 662 517 442 353 244 235 281 250 307 298 364 348 211 65 0 3 0 0 0 7 154 228
141 166 225 189 163 131 160 214 275 177 175 136 70 100 85 174 157 88 46 22 194 371 402 261 212 244 209 206 203 166 139 123 64 1 0 0 0 0 0 7 0 0 25
156 175 204 180 128 94 63 106 106 146 104 81 78 66 75 49 27 25 326 173 161 197 191 152 119 132 138 80 36 19 3 0 0 0 0 0 0 0 0 0 0 0 0
206 213 210 151 110 105 101 87 68 71 85 80 54 29 24 27 43 25 126 107 113 123 128 128 95 79 62 42 30 21 18 8 0 0 0 0 0 0 0 0 0 0 0
167 289 209 170 113 96 60 45 76 56 63 51 23 8 5 12 8 8 80 97 88 78 64 49 42 50 66 67 55 48 50 25 21 2 0 0 0 0 0 0 0 0 0
162 309 190 161 236 79 58 38 66 70 72 83 41 10 2 5 1 3 2 51 94 94 71 60 29 27 21 15 15 19 16 14 3 0 0 0 0 0 0 0 0 0 0
406 447 366 318 215 262 175 279 122 29 55 78 52 24 14 21 24 8 8 2 37 66 43 18 12 17 17 15 18 3 0 0 0 0 0 0 0 0 0 0 0 0 0
236 317 325 278 143 126 136 188 178 45 37 31 13 30 33 4 14 9 1 3 3 3 0 0 0 0 0 0 0 0 0 0 0 0 0 0 0 0 0 0 0 0 0
219 233 308 148 262 260 156 91 106 116 145 91 43 19 51 30 5 5 5 3 0 0 0 0 0 0 0 0 0 0 0 0 0 0 0 0 0 0 0 0 0 0 0
86 47 142 58 99 101 52 52 55 95 69 91 16 6 0 19 11 13 10 8 0 0 0 0 0 0 0 0 0 0 0 0 0 0 0 0 0 0 0 0 0 0 0
4 11 31 24 66 79 72 17 58 108 36 15 12 40 17 36 27 5 0 0 0 0 0 0 0 0 0 0 0 0 0 0 0 0 0 0 0 0 0 0 0 0 0
60 18 6 6 19 14 7 20 20 38 24 29 0 1 1 0 0 0 0 3 0 0 0 0 0 0 0 0 0 0 0 0 0 0 0 0 0 0 0 0 0 0 0
0 0 0 0 0 0 0 0 0 0 0 0 0 0 0 0 0 0 0 0 0 0 0 0 0 0 0 0 0 0 0 0 0 0 0 0 0 0 0 0 0 0 0
0 1 0 0 0 0 0 0 0 0 0 0 0 0 0 0 0 0 0 0 0 0 0 0 0 0 0 0 0 0 0 0 0 0 0 0 0 0 0 0 0 0 0
0 0 0 0 0 0 0 0 0 0 0 0 0 0 0 0 3 0 0 0 0 0 0 0 0 0 0 0 0 0 0 0 0 0 0 0 0 0 0 0 0 0 0
0 0 0 0 0 0 0 0 0 0 0 0 0 0 0 0 0 0 0 0 0 0 0 0 0 0 0 0 0 0 0 0 0 0 0 0 0 0 0 0 0 0 0
0 0 0 0 0 0 0 0 0 0 0 0 0 0 0 0 0 0 0 0 0 0 0 0 0 0 0 0 0 0 0 0 0 0 0 0 0 0 0 0 0 0 0
4 1 0 0 1 0 0 0 0 0 0 0 0 0 0 0 0 0 0 0 0 0 0 0 0 0 0 0 0 0 0 0 0 0 0 0 0 0 0 0 0 0 0
49 37 18 4 1 0 5 1 0 0 0 0 0 0 0 0 0 0 0 0 0 0 0 0 0 0 0 0 0 0 0 0 0 0 0 0 0 0 0 0 0 0 0
70 51 41 36 34 27 6 21 5 0 0 0 1 1 0 0 0 0 0 0 0 0 0 0 0 0 0 0 0 0 0 0 0 0 0 0 0 0 0 0 0 0 0

GFSGL_con_mucape_117.txt.gz
CAPE
125 153 203 206 323 287 295 105 159 161 115 0 227 373 413 618 817 841 824 874 510 780 843 657 590 807 825 1006 858 794 838 674 431 369 559 777 626 774 769 899 1007 1062 851
193 151 247 245 331 309 282 262 176 23 31 0 0 73 462 746 800 619 746 841 837 487 572 619 585 626 666 647 634 757 617 548 457 357 434 607 660 821 867 493 373 489 1058
316 313 367 481 366 410 378 371 255 6 22 50 124 90 417 491 744 741 538 481 517 678 563 624 627 704 617 714 477 625 500 633 868 511 363 538 653 853 735 285 65 721 475
362 490 460 571 483 410 425 333 350 159 177 109 201 238 210 380 586 545 476 543 485 539 508 674 824 788 603 480 466 601 673 427 472 278 282 466 628 766 330 28 99 434 347
423 441 495 591 565 387 486 489 334 293 284 167 235 405 528 383 335 290 232 209 192 468 456 532 415 549 506 580 555 479 385 256 238 331 385 496 592 147 34 91 238 372 323
539 472 511 584 653 554 503 484 447 323 237 251 271 494 514 352 252 228 159 150 295 587 484 382 357 351 337 425 538 475 339 437 530 544 531 261 67 0 0 0 84 168 68
488 347 334 521 513 333 293 346 283 218 134 139 131 221 272 303 332 190 186 172 175 298 347 335 302 276 259 295 299 266 305 324 258 218 105 0 0 0 0 0 0 19 55
373 171 203 264 252 212 175 234 202 156 128 156 80 87 84 29 65 86 87 108 84 268 333 308 298 268 203 217 251 259 230 137 87 11 0 0 0 0 0 4 2 0 71
85 125 167 169 195 198 141 133 131 170 163 154 108 41 64 67 58 45 237 71 77 138 132 109 144 142 184 169 155 139 117 74 29 0 0 0 0 0 0 16 3 0 0
120 137 172 166 168 150 126 140 80 90 132 146 126 75 40 51 57 50 86 74 73 15 1 5 60 84 116 140 117 88 82 49 26 16 6 0 0 0 0 0 0 0 0
192 204 184 201 146 112 98 85 80 151 190 173 142 87 67 57 47 29 62 63 55 16 16 13 33 58 80 106 105 88 73 69 61 51 13 9 0 0 0 0 0 0 0
272 206 142 203 78 39 86 85 109 170 159 152 95 32 30 28 32 4 2 20 37 44 52 62 47 27 31 54 85 84 59 36 51 49 28 1 0 0 0 0 0 0 0
210 57 163 208 113 92 92 117 131 139 162 141 133 100 60 27 24 33 24 15 22 61 83 76 73 51 45 46 41 19 29 23 9 0 0 0 0 0 0 0 0 0 0
254 276 241 218 190 183 171 126 136 166 124 107 109 113 48 29 34 17 5 30 4 11 28 38 13 8 1 0 0 0 0 0 0 0 0 0 0 0 0 0 0 0 0
171 88 154 172 177 203 222 134 157 136 91 167 127 26 16 32 43 6 14 4 8 11 2 0 0 0 0 0 0 0 0 0 0 0 0 0 0 0 0 0 0 0 0
111 40 105 192 172 161 107 168 86 77 89 62 83 84 112 12 7 20 26 18 18 24 22 15 0 0 0 0 0 0 0 0 0 0 0 0 0 0 0 0 0 0 0
6 3 18 19 35 23 50 94 99 15 5 20 57 67 6 3 5 13 13 12 21 5 29 44 21 15 1 0 0 0 0 0 0 0 0 0 0 0 0 0 0 0 0
3 1 14 24 10 7 1 7 12 17 11 27 38 27 20 13 3 3 6 10 44 10 30 3 0 0 0 0 0 0 0 0 0 0 0 0 0 0 0 0 0 0 0
0 2 0 0 0 0 0 0 0 0 0 1 0 0 0 0 0 0 0 0 0 0 0 0 0 0 0 0 0 0 0 0 0 0 0 0 0 0 0 0 0 0 0
0 0 0 0 0 0 0 0 0 0 0 0 0 0 0 0 0 0 0 0 0 0 0 0 0 0 0 0 0 0 0 0 0 0 0 0 0 0 0 0 0 0 0
0 0 0 0 0 0 0 0 0 0 0 0 0 0 0 0 0 0 0 0 0 0 0 0 0 0 0 0 0 0 0 0 0 0 0 0 0 0 0 0 0 0 0
0 0 0 0 0 0 0 0 0 0 0 0 0 0 0 0 0 0 0 0 0 0 0 0 0 0 0 0 0 0 0 0 0 0 0 0 0 0 0 0 0 0 0
0 0 0 0 0 0 0 0 0 0 0 0 0 0 0 0 0 0 0 0 0 0 0 0 0 0 0 0 0 0 0 0 0 0 0 0 0 0 0 0 0 0 0
13 2 0 0 0 0 0 0 0 0 0 0 0 0 0 0 0 0 0 0 0 0 0 0 0 0 0 0 0 0 0 0 0 0 0 0 0 0 0 0 0 0 0
47 37 32 18 11 1 0 0 0 0 0 0 0 0 0 0 0 0 0 0 0 0 0 0 0 0 0 0 0 0 0 0 0 0 0 0 0 0 0 0 0 0 0
63 46 42 38 32 25 28 34 39 9 6 12 4 0 0 0 0 0 0 1 0 0 0 0 0 0 0 0 0 0 0 0 0 0 0 0 0 0 0 0 0 0 0

GFSGL_con_mucape_120.txt.gz
CAPE
77 104 126 186 214 220 260 247 231 87 59 123 113 150 330 290 611 679 779 733 679 585 590 650 445 454 566 591 679 671 670 606 456 277 365 618 938 880 999 780 529 1081 1028
56 100 104 145 171 207 235 242 180 120 30 2 0 52 184 281 583 649 636 957 701 559 440 511 612 387 460 724 585 734 468 512 359 460 459 845 801 920 833 485 508 538 927
96 111 117 125 145 167 225 235 201 216 8 0 0 0 44 205 540 564 461 554 577 697 539 537 518 538 809 593 571 575 441 785 565 668 663 447 624 858 811 131 292 348 380
214 202 202 205 207 231 241 282 295 273 180 0 0 112 38 64 329 468 517 525 641 688 605 661 769 730 696 651 471 788 546 521 537 338 369 558 514 734 253 114 233 218 188
271 299 285 256 263 301 298 274 318 253 271 170 87 63 243 231 205 259 298 259 294 261 415 475 412 381 440 425 696 663 433 344 304 423 470 454 632 139 96 43 190 159 75
282 328 321 255 250 323 455 410 305 368 358 262 231 192 355 237 246 174 130 160 149 236 388 385 299 261 235 275 331 299 349 387 509 542 552 467 109 30 0 0 43 260 46
437 393 390 315 329 312 360 479 370 472 459 137 50 108 157 212 200 184 139 118 101 150 291 384 247 189 193 166 185 208 262 298 269 285 320 58 0 0 0 0 0 57 36
248 321 275 241 278 188 211 270 269 265 238 126 71 97 82 77 103 90 4 62 111 108 171 209 216 191 165 140 129 126 108 98 60 31 1 0 0 0 0 0 22 6 16
167 186 158 155 73 116 148 149 136 163 141 144 70 73 64 68 46 31 67 50 35 90 165 214 239 181 141 114 160 177 159 103 49 3 0 0 0 0 1 19 6 0 0
64 26 35 100 121 94 149 150 104 124 109 72 78 75 102 86 4 66 75 39 71 105 69 16 0 0 9 33 62 74 81 73 62 44 24 25 19 4 0 0 0 0 0
30 47 91 150 95 67 99 91 84 84 72 63 89 96 97 59 47 68 80 54 57 55 40 25 29 3 2 24 50 62 49 61 76 67 60 56 48 41 19 0 0 0 0
3 106 142 94 103 107 86 41 52 51 77 102 99 129 100 88 86 78 87 75 56 54 40 16 22 39 36 30 32 53 53 57 78 67 59 57 55 22 0 0 0 0 0
134 187 89 69 77 78 27 27 75 87 113 120 125 116 108 142 131 82 22 16 20 33 29 55 76 70 64 26 14 23 23 21 32 39 36 17 0 0 0 0 0 0 0
215 141 44 160 52 67 55 67 100 72 98 125 86 119 87 61 39 67 45 32 17 10 53 52 66 53 24 8 9 13 0 0 0 0 0 0 0 0 0 0 0 0 0
154 177 178 136 130 80 70 89 88 148 140 185 115 110 133 76 17 24 33 16 7 10 13 44 50 17 0 0 0 0 0 0 0 0 0 0 0 0 0 0 0 0 0
53 82 105 156 177 137 92 108 106 138 165 120 115 64 113 124 84 64 31 1 10 11 5 3 10 18 12 2 1 0 0 0 0 0 0 0 0 0 0 0 0 0 0
46 62 79 68 131 103 76 32 54 96 44 29 10 44 85 49 62 69 16 12 28 18 12 32 36 26 14 13 18 0 10 0 0 0 0 0 0 0 0 0 0 0 0
1 2 17 3 0 16 38 28 1 1 14 13 25 8 12 10 7 15 11 21 34 3 0 9 19 0 0 0 0 0 0 0 0 0 0 0 0 0 0 0 0 0 0
3 2 0 0 0 1 0 0 2 0 2 1 0 0 0 0 0 0 0 0 9 0 0 0 0 0 0 0 0 0 0 0 0 0 0 0 0 0 0 0 0 0 0
0 0 0 0 0 0 0 0 0 0 0 0 0 0 0 0 0 0 0 0 0 0 0 0 0 0 0 0 0 0 0 0 0 0 0 0 0 0 0 0 0 0 0
0 0 0 0 0 0 0 0 0 0 0 0 0 0 0 0 0 0 0 0 0 0 0 0 0 0 0 0 0 0 0 0 0 0 0 0 0 0 0 0 0 0 0
0 0 0 0 0 0 0 0 0 0 0 0 0 0 0 0 0 0 0 0 0 0 0 0 0 0 0 0 0 0 0 0 0 0 0 0 0 0 0 0 0 0 0
24 11 0 0 0 0 0 0 0 0 0 0 0 0 0 0 0 0 0 0 0 0 0 0 0 0 0 0 0 0 0 0 0 0 0 0 0 0 0 0 0 0 0
59 49 15 1 0 0 0 0 0 0 0 0 0 0 0 0 0 0 0 0 0 0 0 0 0 0 0 0 0 0 0 0 0 0 0 0 0 0 0 0 0 0 0
60 56 51 42 30 20 13 7 4 3 0 0 0 0 0 0 0 0 0 0 0 0 0 0 0 0 0 0 0 0 0 0 0 0 0 0 0 0 0 0 0 0 0
45 48 54 52 44 40 46 43 42 41 48 27 10 17 14 3 1 0 0 0 0 1 2 1 0 0 0 0 0 0 0 0 0 0 0 0 0 0 0 0 0 0 0

GFSGL_con_mucape_123.txt.gz
CAPE
378 538 818 875 965 982 984 1054 1156 900 610 514 780 855 1223 1374 1540 1827 2088 1915 1986 1827 1689 1899 1928 1826 1315 1442 1607 1793 1601 1537 1172 939 1127 1627 1891 2047 1667 1201 1420 1669 237
412 507 549 699 804 784 940 942 1072 1038 808 760 380 447 542 997 1273 1564 1611 1311 1705 1649 1583 1768 1817 1270 1799 1888 1741 2161 1906 1793 1393 1507 1488 1525 1838 1887 1115 1452 1060 1135 197
455 482 486 535 638 653 811 892 878 851 714 409 129 225 310 297 912 1430 1738 1496 1248 1522 1650 1624 1502 1604 1964 1609 1953 1847 1164 1756 1470 1794 1227 1054 1274 1413 724 1025 609 442 197
516 501 554 586 571 618 737 910 887 805 704 399 266 107 255 701 693 1002 1423 1374 1468 1440 1541 1482 1476 1569 1751 1808 1591 1975 1635 2034 1756 1460 1059 703 1064 1511 305 809 464 131 385
779 472 476 1001 811 829 980 1062 1044 978 771 732 371 219 524 990 658 860 1049 1257 1499 1432 1206 1355 1426 976 412 1012 2031 1923 1879 2061 1976 1556 741 975 1174 423 276 452 957 3 8
339 634 838 1112 1030 1126 1228 1340 1365 1276 1267 1003 720 559 585 472 179 142 67 472 705 982 521 791 1163 235 243 173 224 307 637 1715 1502 1753 1687 1626 1164 155 112 160 597 900 6
920 831 840 802 779 418 588 1381 1010 1453 1495 1268 1003 900 623 126 203 149 96 13 317 577 950 1243 1093 199 131 311 77 126 180 198 222 1332 1523 1496 282 95 94 179 407 172 0
507 292 265 564 430 273 205 200 160 997 525 1246 819 293 60 59 50 57 93 47 34 235 218 692 755 127 121 69 35 17 25 57 48 41 32 50 37 35 92 203 379 48 0
186 166 138 115 99 102 110 120 118 231 181 146 122 211 123 92 66 64 21 26 0 2 28 82 122 138 133 102 92 69 40 52 60 18 0 0 0 0 0 89 121 291 133
232 108 53 59 101 90 79 51 46 143 122 77 50 46 64 68 99 82 23 42 36 2 66 31 38 55 27 1 5 12 32 32 32 21 9 5 2 6 0 0 1 0 0
196 109 120 209 253 179 82 77 108 128 30 50 49 43 16 62 59 18 37 67 7 38 34 25 26 43 55 17 11 0 10 27 24 27 34 39 39 43 33 26 7 12 0
29 31 63 94 87 76 110 99 81 79 57 54 45 26 52 69 42 2 27 54 33 36 67 53 19 36 10 19 1 11 18 43 49 65 75 84 74 51 46 61 2 0 0
80 148 169 86 167 143 110 28 44 25 30 18 18 16 26 55 84 81 61 71 85 69 63 57 36 45 69 75 53 30 18 16 42 52 56 25 22 24 28 7 0 0 0
267 247 58 36 99 52 64 19 30 37 57 49 42 43 39 43 74 65 47 62 58 62 67 58 73 44 35 53 34 0 9 18 12 0 0 0 0 0 0 0 0 0 0
87 169 214 149 120 88 81 95 75 115 55 81 67 76 78 37 34 94 75 52 40 39 47 61 45 87 60 14 15 0 0 0 0 0 0 0 0 0 0 0 0 0 0
47 74 132 102 103 70 101 79 106 117 74 98 103 87 109 46 18 32 87 70 54 23 14 27 19 20 24 16 6 0 0 0 0 0 0 0 0 0 0 0 0 0 0
5 16 32 26 69 84 82 40 43 22 27 51 51 46 33 5 14 46 60 29 52 54 21 4 11 6 1 3 10 11 9 0 0 0 0 0 0 0 0 0 0 0 0
8 9 17 24 7 3 2 1 0 7 7 0 0 2 2 8 4 10 9 12 5 2 7 2 1 4 7 12 5 3 1 0 0 0 0 0 0 0 0 0 0 0 0
0 2 1 0 0 0 0 0 4 2 1 0 0 0 0 0 0 0 0 0 0 1 0 0 0 0 0 0 0 0 0 0 0 0 0 0 0 0 0 0 0 0 0
0 0 0 0 0 0 0 0 0 0 0 0 0 0 0 0 0 0 0 0 0 0 0 0 0 0 0 0 0 0 0 0 0 0 0 0 0 0 0 0 0 0 0
0 0 0 0 0 0 0 0 0 0 0 0 0 0 0 0 0 0 0 0 0 0 0 0 0 0 0 0 0 0 0 0 0 0 0 0 0 0 0 0 0 0 0
0 0 0 0 0 0 0 0 0 0 0 0 0 0 0 0 0 0 0 0 0 0 0 0 0 0 0 0 0 0 0 0 0 0 0 0 0 0 0 0 0 0 0
0 0 0 0 0 0 0 0 0 0 0 0 0 0 0 0 0 0 0 0 0 0 0 0 0 0 0 0 0 0 0 0 0 0 0 0 0 0 0 0 0 0 0
47 26 13 7 0 0 0 0 0 0 0 0 0 0 0 0 0 0 0 0 0 0 0 0 0 0 0 0 0 0 0 0 0 0 0 0 0 0 0 0 0 0 0
91 65 43 42 39 17 23 9 7 1 0 1 0 0 0 0 0 0 0 0 0 0 0 4 1 0 0 0 0 0 0 0 0 0 0 0 0 0 0 0 0 0 0
102 95 91 70 57 58 60 49 45 41 43 25 18 12 10 4 0 4 1 3 1 0 0 11 17 16 12 0 0 0 0 0 0 0 0 0 0 0 0 0 0 0 0

GFSGL_con_mucape_126.txt.gz
CAPE
648 625 740 842 930 1469 1546 1828 1599 1696 1688 1698 1476 1389 1650 1808 1766 2100 1976 1383 1622 1752 1793 1585 1743 1721 1197 718 772 731 684 714 420 215 712 1653 1475 1691 1549 1705 1745 661 76
692 734 816 836 979 1006 1387 1294 1415 1666 1788 1724 1437 1475 1548 1564 1712 1914 1745 1233 1384 1440 1461 1500 1574 1298 1677 1756 932 930 915 1103 965 1169 1376 901 1329 1515 1594 1730 1193 301 53
929 791 888 874 952 895 880 1140 1226 1483 1634 1484 1509 1415 1107 1038 1141 1555 1780 1427 1432 1350 1427 1528 1538 1564 1595 1235 1336 1193 1158 1461 1673 1438 1006 1123 958 1061 1437 1352 1267 585 62
992 961 1095 1113 920 807 935 1153 1213 1369 1503 1515 1511 1202 851 677 775 848 1336 1560 1558 1246 1390 1356 1262 1386 1553 1589 1495 1925 1573 1746 1841 1267 1437 703 669 1538 974 1280 1072 1422 246
1105 1164 1256 1326 1417 1278 1183 1268 1415 1345 1242 1460 1592 1345 1095 1017 1113 1168 1349 1559 1516 1339 1232 1302 927 959 678 763 1777 1573 2275 1956 1430 960 404 444 672 1087 673 912 1670 431 1171
530 802 1112 1346 1273 1143 1598 1687 1751 1783 1649 1618 1558 1430 1266 822 278 321 309 1213 1286 1410 1491 1344 1250 590 346 162 155 223 405 1874 1976 1104 363 930 1208 1380 417 432 1372 531 69
1212 846 966 1233 1456 1297 1547 927 1214 1534 1552 1638 1535 1409 1119 1173 334 175 177 328 863 1171 1290 1443 1387 695 516 1232 340 126 161 179 202 1225 1443 1174 1285 779 407 736 1060 1396 1041
1288 947 1503 1490 1264 1245 1365 1370 1348 519 366 339 1045 1136 1508 1392 239 59 80 48 172 639 1018 1078 1405 1292 705 792 593 416 177 50 84 105 158 624 427 265 390 662 894 435 12
760 998 820 866 936 1103 453 702 977 872 143 143 168 552 563 400 78 78 59 99 59 71 32 49 271 467 173 105 341 224 136 66 59 76 65 24 7 1 7 160 1145 477 444
609 383 275 244 241 161 168 149 324 298 221 179 127 74 94 61 51 54 55 65 27 5 14 22 34 38 32 32 203 147 68 13 53 55 53 31 22 12 13 69 101 91 79
349 370 315 382 468 480 443 123 120 147 126 93 75 66 57 32 15 36 13 16 61 41 4 17 9 14 33 38 14 10 29 50 18 19 27 34 31 31 34 43 50 52 42
139 51 40 42 31 73 69 62 63 58 88 102 81 46 4 10 36 5 8 12 18 29 21 2 20 9 3 31 32 43 47 25 2 2 31 43 50 57 63 67 70 39 19
133 43 178 84 75 128 151 81 104 15 3 28 62 20 3 7 17 32 19 17 25 40 38 45 43 34 59 58 46 67 42 17 18 5 19 21 17 40 32 13 11 12 0
226 169 95 125 170 86 59 54 0 3 12 13 12 46 30 43 53 50 55 78 34 17 20 21 11 0 17 39 50 32 39 43 0 0 10 19 4 0 0 0 0 0 0
225 191 213 167 256 77 58 87 105 25 41 42 32 30 43 33 38 54 38 47 25 40 32 25 29 79 44 49 15 30 38 5 0 0 0 0 0 0 0 0 0 0 0
70 123 96 93 185 137 62 26 26 58 33 57 22 46 58 42 56 71 48 64 45 21 23 6 31 41 20 18 19 16 16 5 0 0 0 0 0 0 0 0 0 0 0
52 31 11 99 42 72 33 64 46 0 0 5 9 18 19 36 4 2 6 4 29 55 62 27 31 56 62 55 46 7 23 5 1 1 0 0 0 0 0 0 0 0 0
0 7 17 0 2 4 0 0 0 0 0 3 0 0 0 0 0 3 6 3 1 1 17 12 0 8 0 1 0 0 0 3 7 0 0 0 0 0 4 4 0 0 0
0 0 0 0 0 0 0 0 0 0 0 0 0 0 0 0 0 0 0 0 0 0 0 0 0 0 0 0 0 0 0 0 0 0 0 0 0 0 0 0 0 0 0
0 0 0 0 0 0 0 0 0 0 0 0 0 0 0 0 0 0 0 0 0 0 0 0 0 0 0 0 0 0 0 0 0 0 0 0 0 0 0 0 0 0 0
0 0 0 0 0 0 0 0 0 0 0 0 0 0 0 0 0 0 0 0 0 0 0 0 0 0 0 0 0 0 0 0 0 0 0 0 0 0 0 0 0 0 0
1 0 0 0 0 0 0 0 0 0 0 0 0 0 0 0 0 0 0 0 0 0 0 0 1 8 8 6 0 0 1 0 1 0 0 0 0 0 0 0 0 0 0
19 15 12 3 0 0 0 0 0 0 0 0 0 0 0 0 0 0 0 0 0 0 0 0 3 7 7 1 0 0 0 0 0 0 0 0 0 0 0 0 0 0 0
30 21 17 21 22 6 2 1 0 0 0 0 1 0 2 2 1 1 0 0 0 0 0 0 1 3 4 0 1 0 0 0 0 0 0 0 0 0 0 0 0 0 0
56 40 49 36 38 27 13 2 3 2 17 29 33 35 39 32 20 15 14 17 16 12 10 8 13 19 19 11 0 0 0 0 0 0 0 0 0 0 0 0 0 0 0
46 53 66 62 77 74 70 76 80 60 50 79 44 26 46 53 39 25 14 8 21 27 27 31 31 32 31 34 27 0 0 0 0 0 0 0 0 0 0 0 0 0 1